[[{"header":{"parameterUnit":"m.s-1","parameterCategory":1,"la1":30.6,"la2":29.2853,"lo1":-89.7004,"lo2":-87.6739,"dy":0.0162,"dx":0.0183,"nx":112,"ny":82,"refTime":"2024-09-01T00:00:00:Z","depth":0,"parameterNumber":2,"parameterNumberName":"U-component_of_WINDS"},"data":[0.0,0.0,0.0,0.0,0.0,0.0,0.0,0.0,0.0,0.0,0.0,0.0,0.0,0.0,0.0,0.0,0.0,0.0,0.0,0.0,0.0,0.0,0.0,0.0,0.0,0.0,0.0,0.0,0.0,0.0,0.0,0.0,0.0,0.0,0.0,0.0,0.0,0.0,0.0,0.0,0.0,0.0,0.0,0.0,0.0,0.0,0.0,0.0,0.0,0.0,0.0,0.0,0.0,0.0,0.0,0.0,0.0,0.0,0.0,0.0,0.0,0.0,0.0,0.0,0.0,0.0,0.0,0.0,0.0,0.0,0.0,0.0,0.0,0.0,0.0,0.0,0.0,0.0,0.0,0.0,0.0,0.0,0.0,0.0,0.0,0.0,0.0,0.0,0.0,0.0,0.4473,0.4573,0.552,0.6219,0.6475,0.7609,0.7983,0.7095,0.0,0.0,0.0,0.0,0.0,0.0,0.0,0.0,0.0,0.0,0.0,0.0,0.0,0.0,0.0,0.0,0.0,0.0,0.0,0.0,0.0,0.0,0.0,0.0,0.0,0.0,0.0,0.0,0.0,0.0,0.0,0.0,0.0,0.0,0.0,0.0,0.0,0.0,0.0,0.0,0.0,0.0,0.0,0.0,0.0,0.0,0.0,0.0,0.0,0.0,0.0,0.0,0.0,0.0,0.0,0.0,0.0,0.0,0.0,0.0,0.0,0.0,0.0,0.0,0.0,0.0,0.0,0.0,0.0,0.0,0.0,0.0,0.0,0.0,0.0,0.0,0.0,0.0,0.0,0.0,0.0,0.0,0.0,0.0,0.0,0.0,0.0,0.0,0.0,0.0,0.0,0.0,0.0,0.0,0.0,0.0,0.0,0.0,0.0,0.0,0.0,0.0,0.0,0.0,0.3994,0.4966,0.506,0.5633,0.7158,0.783,0.7872,0.7317,0.0,0.0,0.0,0.0,0.0,0.0,0.0,0.0,0.0,0.0,0.0,0.0,0.0,0.0,0.0,0.0,0.0,0.0,0.0,0.0,0.0,0.0,0.0,0.0,0.0,0.0,0.0,0.0,0.0,0.0,0.0,0.0,0.0,0.0,0.0,0.0,0.0,0.0,0.0,0.0,0.0,0.0,0.0,0.0,0.0,0.0,0.0,0.0,0.0,0.0,0.0,0.0,0.0,0.0,0.0,0.0,0.0,0.0,0.0,0.0,0.0,0.0,0.0,0.0,0.0,0.0,0.0,0.0,0.0,0.0,0.0,0.0,0.0,0.0,0.0,0.0,0.0,0.0,0.0,0.0,0.0,0.0,0.0,0.0,0.0,0.0,0.0,0.0,0.0,0.0,0.0,0.0,0.0,0.0,0.0,0.0,0.0,0.0,0.0,0.0,0.0,0.0,0.0,0.2873,0.3173,0.4305,0.4663,0.5503,0.7312,0.793,0.7891,0.7277,0.6839,0.0,0.0,0.0,0.0,0.0,0.0,0.0,0.0,0.0,0.0,0.0,0.0,0.0,0.0,0.0,0.0,0.0,0.0,0.0,0.0,0.0,0.0,0.0,0.0,0.0,0.0,0.0,0.0,0.0,0.0,0.0,0.0,0.0,0.0,0.0,0.0,0.0,0.0,0.0,0.0,0.0,0.0,0.0,0.0,0.0,0.0,0.0,0.0,0.0,0.0,0.0,0.0,0.0,0.0,0.0,0.0,0.0,0.0,0.0,0.0,0.0,0.0,0.0,0.0,0.0,0.0,0.0,0.0,0.0,0.0,0.0,0.0,0.0,0.0,0.0,0.0,0.0,0.0,0.0,0.0,0.0,0.0,0.0,0.0,0.0,0.0,0.0,0.0,0.0,0.0,0.0,0.0,0.0,0.0,0.0,0.0,0.0,0.0,0.0,0.0,0.0,0.0,0.2323,0.2283,0.3265,0.4026,0.5165,0.6976,0.7711,0.7837,0.7251,0.6624,0.0,0.0,0.0,0.0,0.0,0.0,0.0,0.0,0.0,0.0,0.0,0.0,0.0,0.0,0.0,0.0,0.0,0.0,0.0,0.0,0.0,0.0,0.0,0.0,0.0,0.0,0.0,0.0,0.0,0.0,0.0,0.0,0.0,0.0,0.0,0.0,0.0,0.0,0.0,0.0,0.0,0.0,0.0,0.0,0.0,0.0,0.0,0.0,0.0,0.0,0.0,0.0,0.0,0.0,0.0,0.0,0.0,0.0,0.0,0.0,0.0,0.0,0.0,0.0,0.0,0.0,0.0,0.0,0.0,0.0,0.0,0.0,0.0,0.0,0.0,0.0,0.0,0.0,0.0,0.0,0.0,0.0,0.0,0.0,0.0,0.0,0.0,0.0,0.0,0.0,0.0,0.0,0.0,0.0,0.0,0.0,0.0,0.0,0.0,0.0,0.0,0.0,0.1381,0.1214,0.2138,0.2884,0.4023,0.5835,0.7057,0.757,0.7235,0.6391,0.0,0.0,0.0,0.0,0.0,0.0,0.0,0.0,0.0,0.0,0.0,0.0,0.0,0.0,0.0,0.0,0.0,0.0,0.0,0.0,0.0,0.0,0.0,0.0,0.0,0.0,0.0,0.0,0.0,0.0,0.0,0.0,0.0,0.0,0.0,0.0,0.0,0.0,0.0,0.0,0.0,0.0,0.0,0.0,0.0,0.0,0.0,0.0,0.0,0.0,0.0,0.0,0.0,0.0,0.0,0.0,0.0,0.0,0.0,0.0,0.0,0.0,0.0,0.0,0.0,0.0,0.0,0.0,0.0,0.0,0.0,0.0,0.0,0.0,0.0,0.0,0.0,0.0,0.0,0.0,0.0,0.0,0.0,0.0,0.0,0.0,0.0,0.0,0.0,0.0,0.0,0.0,0.0,0.0,0.0,0.0,0.0,0.0,0.0,0.0,0.0,0.0,0.0237,0.0063,0.0,0.1544,0.2617,0.4426,0.5813,0.6352,0.5751,0.0,0.0,0.0,0.0,0.0,0.0,0.0,0.0,0.0,0.0,0.0,0.0,0.0,0.0,0.0,0.0,0.0,0.0,0.0,0.0,0.0,0.0,0.0,0.0,0.0,0.0,0.0,0.0,0.0,0.0,0.0,0.0,0.0,0.0,0.0,0.0,0.0,0.0,0.0,0.0,0.0,0.0,0.0,0.0,0.0,0.0,0.0,0.0,0.0,0.0,0.0,0.0,0.0,0.0,0.0,0.0,0.0,0.0,0.0,0.0,0.0,0.0,0.0,0.0,0.0,0.0,0.0,0.0,0.0,0.0,0.0,0.0,0.0,0.0,0.0,0.0,0.0,0.0,0.0,0.0,0.0,0.0,0.0,0.0,0.0,0.0,0.0,0.0,0.0,0.0,0.0,0.0,0.0,0.0,0.0,0.0,0.0,0.0,0.0,0.0,0.0,0.0,0.0498,-0.0297,-0.0694,0.0,0.0403,0.1408,0.2667,0.413,0.4873,0.4675,0.0,0.0,0.0,0.0,0.0,0.0,0.0,0.0,0.0,0.0,0.0,0.0,0.0,0.0,0.0,0.0,0.0,0.0,0.0,0.0,0.0,0.0,0.0,0.0,0.0,0.0,0.0,0.0,0.0,0.0,0.0,0.0,0.0,0.0,0.0,0.0,0.0,0.0,0.0,0.0,0.0,0.0,0.0,0.0,0.0,0.0,0.0,0.0,0.0,0.0,0.0,0.0,0.0,0.0,0.0,0.0,0.0,0.0,0.0,0.0,0.0,0.0,0.0,0.0,0.0,0.0,0.0,0.0,0.0,0.0,0.0,0.0,0.0,0.0,0.0,0.0,0.0,0.0,0.0,0.0,0.0,0.0,0.0,0.0,0.0,0.0,0.0,0.0,0.0,0.0,0.0,0.0,0.0,0.0,0.0,0.0,0.0,0.0,0.0,0.0,0.0,0.0,0.0501,-0.0183,-0.1043,-0.2081,-0.0605,0.0534,0.0593,0.2028,0.337,0.0,0.0,0.0,0.0,0.0,0.0,0.0,0.0,0.0,0.0,0.0,0.0,0.0,0.0,0.0,0.0,0.0,0.0,0.0,0.0,0.0,0.0,0.0,0.0,0.0,0.0,0.0,0.0,0.0,0.0,0.0,0.0,0.0,0.0,0.0,0.0,0.0,0.0,0.0,0.0,0.0,0.0,0.0,0.0,0.0,0.0,0.0,0.0,0.0,0.0,0.0,0.0,0.0,0.0,0.0,0.0,0.0,0.0,0.0,0.0,0.0,0.0,0.0,0.0,0.0,0.0,0.0,0.0,0.0,0.0,0.0,0.0,0.0,0.0,0.0,0.0,0.0,0.0,0.0,0.0,0.0,0.0,0.0,0.0,0.0,0.0,0.0,0.0,0.0,0.0,0.0,0.0,0.0,0.0,0.0,0.0,0.0,0.0,0.0,0.0,0.0,0.0,0.0,0.0445,-0.0793,-0.1826,-0.2148,-0.1481,-0.1003,-0.0923,0.0501,0.1805,0.2624,0.0,0.0,0.0,0.0,0.0,0.0,0.0,0.0,0.0,0.0,0.0,0.0,0.0,0.0,0.0,0.0,0.0,0.0,0.0,0.0,0.0,0.0,0.0,0.0,0.0,0.0,0.0,0.0,0.0,0.0,0.0,0.0,0.0,0.0,0.0,0.0,0.0,0.0,0.0,0.0,0.0,0.0,0.0,0.0,0.0,0.0,0.0,0.0,0.0,0.0,0.0,0.0,0.0,0.0,0.0,0.0,0.0,0.0,0.0,0.0,0.0,0.0,0.0,0.0,0.0,0.0,0.0,0.0,0.0,0.0,0.0,0.0,0.0,0.0,0.0,0.0,0.0,0.0,0.0,0.0,0.0,0.0,0.0,0.0,0.0,0.0,0.0,0.0,0.0,0.0,0.0,0.0,0.0,0.0,0.0,0.0,0.0,0.0,0.0,0.0,0.0,0.0,-0.0056,-0.1286,-0.2152,-0.2215,-0.1953,-0.1803,-0.1833,-0.0756,0.0236,0.1107,0.0,0.0,0.0,0.0,0.0,0.0,0.0,0.0,0.0,0.0,0.0,0.0,0.0,0.0,0.0,0.0,0.0,0.0,0.0,0.0,0.0,0.0,0.0,0.0,0.0,0.0,0.0,0.0,0.0,0.0,0.0,0.0,0.0,0.0,0.0,0.0,0.0,0.0,0.0,0.0,0.0,0.0,0.0,0.0,0.0,0.0,0.0,0.0,0.0,0.0,0.0,0.0,0.0,0.0,0.0,0.0,0.0,0.0,0.0,0.0,0.0,0.0,0.0,0.0,0.0,0.0,0.0,0.0,0.0,0.0,0.0,0.0,0.0,0.0,0.0,0.0,0.0,0.0,0.0,0.0,0.0,0.0,0.0,0.0,0.0,0.0,0.0,0.0,0.0,0.0,0.0,0.0,0.0,0.0,0.0,0.0,0.0,0.0,0.0,0.0,0.0,0.0,-0.0683,-0.1542,-0.2156,-0.2216,-0.2222,-0.2198,-0.2138,-0.1763,-0.113,-0.0162,0.0,0.0,0.0,0.0,0.0,0.0,0.0,0.0,0.0,0.0,0.0,0.0,0.0,0.0,0.0,0.0,0.0,0.0,0.0,0.0,0.0,0.0,0.0,0.0,0.0,0.0,0.0,0.0,0.0,0.0,0.0,0.0,0.0,0.0,0.0,0.0,0.0,0.0,0.0,0.0,0.0,0.0,0.0,0.0,0.0,0.0,0.0,0.0,0.0,0.0,0.0,0.0,0.0,0.0,0.0,0.0,0.0,0.0,0.0,0.0,0.4063,0.0,0.0,0.0,0.0,0.0,0.0,0.0,0.0,0.0,0.0,0.0,0.0,0.0,0.0,0.0,0.0,0.0,0.0,0.0,0.0,0.0,0.0,0.0,0.0,0.0,0.0,0.0,0.0,0.0,0.0,0.0,0.0,0.0,0.0,0.0,0.0,0.0,0.0,0.0,0.0,0.0,-0.0685,-0.1556,-0.2114,-0.2218,-0.2222,-0.214,-0.2103,-0.198,-0.1395,-0.0278,-0.026,0.0,0.0,0.0,0.0,0.0,0.0,0.0,0.0,0.0,0.0,0.0,0.0,0.0,0.0,0.0,0.0,0.0,0.0,0.0,0.0,0.0,0.0,0.0,0.0,0.0,0.0,0.0,0.0,0.0,0.0,0.0,0.0,0.0,0.0,0.0,0.0,0.0,0.0,0.0,0.0,0.0,0.0,0.0,0.0,0.0,0.0,0.0,0.0,0.0,0.0,0.0,0.0,0.0,0.0,0.0,0.0,0.0,0.0,0.0,0.0,0.4464,0.0,0.0,0.0,0.0,0.0,0.0,0.0,0.0,0.0,0.0,0.0,0.0,0.0,0.0,0.0,0.0,0.0,0.0,0.0,0.0,0.0,0.0,0.0,0.0,0.0,0.0,0.0,0.0,0.0,0.0,0.0,0.0,0.0,0.0,0.0,0.0,0.0,0.0,0.0,0.0,-0.1213,-0.1756,-0.2121,-0.2218,-0.2222,-0.2142,-0.2112,-0.2053,-0.1726,-0.1049,-0.0866,0.0,0.0,0.0,0.0,0.0,0.0,0.0,0.0,0.0,0.0,0.0,0.0,0.0,0.0,0.0,0.0,0.0,0.0,0.0,0.0,0.0,0.0,0.0,0.0,0.0,0.0,0.0,0.0,0.0,0.0,0.0,0.0,0.0,0.0,0.0,0.0,0.0,0.0,0.0,0.0,0.0,0.0,0.0,0.0,0.0,0.0,0.0,0.0,0.0,0.0,0.0,0.0,0.0,0.6214,0.5843,0.5718,0.571,0.5823,0.6069,0.5285,0.5009,0.5022,0.4464,0.0,0.0,0.0,0.0,0.0,0.0,0.0,0.0,0.0,0.0,0.0,0.0,0.0,0.0,0.0,0.0,0.0,0.0,0.0,0.0,0.0,0.0,0.0,0.0,-0.0501,-0.0777,0.0,0.0,0.0,0.0,0.0,0.0,0.0,0.0,0.0,0.0,0.0,0.0,-0.1821,-0.2024,-0.2127,-0.2219,-0.2222,-0.2144,-0.2119,-0.2061,-0.2003,-0.1949,-0.136,-0.1008,0.0,0.0,0.0,0.0,0.0,0.0,0.0,0.0,0.0,0.0,0.0,0.0,0.0,0.0,0.0,0.0,0.0,0.0,0.0,0.0,0.0,0.0,0.0,0.0,0.0,0.0,0.0,0.0,0.0,0.0,0.0,0.0,1.1257,1.1659,0.0,0.0,0.0,0.0,0.0,0.0,0.0,0.0,0.0,0.0,0.0,0.0,0.0,0.8545,0.8119,0.8334,0.8133,0.7371,0.771,0.712,0.5895,0.5956,0.5367,0.4247,0.4143,0.0,0.4478,0.3088,0.0,0.0,0.0,0.0,0.0,0.0,0.0,0.0,0.0,0.0,0.0,0.0,0.0,0.0,0.0,0.0,0.0,0.0,0.0,0.0,0.0,0.0,-0.1798,-0.1638,-0.1729,-0.1756,0.0,-0.0548,0.0409,0.0547,0.0524,0.0,0.0,0.0,0.0,0.0,0.0,0.0,-0.1796,-0.2056,-0.2217,-0.2222,-0.2222,-0.222,-0.2216,-0.2093,-0.2044,-0.2009,-0.1856,-0.1718,-0.1658,-0.1555,0.0,0.0,0.0,0.0,0.0,0.0,0.0,0.0,0.0,0.0,0.0,0.0,0.0,0.0,0.0,0.0,0.0,0.0,0.0,0.0,0.0,0.0,0.0,0.0,0.0,0.0,0.0,0.0,0.0,1.0584,1.0606,1.081,1.0562,1.0269,0.0,0.0,0.0,0.0,0.0,0.0,0.0,0.0,0.0,0.8591,0.8825,0.8698,0.8129,0.7569,0.7125,0.683,0.6176,0.5604,0.5026,0.5057,0.4741,0.4085,0.3231,0.2891,0.288,0.2682,0.2691,0.2767,0.0,0.0,0.0,0.0,0.0733,0.032,-0.0163,-0.0275,-0.033,-0.0788,0.0,0.0,0.0,0.0,0.0,0.0,0.0,0.0,0.0,0.0,-0.1982,-0.2006,-0.2032,-0.2048,-0.2034,-0.1466,-0.087,0.0,-0.0269,-0.0263,-0.0199,0.0,0.0,0.0,0.0,-0.1554,-0.1911,-0.2082,-0.2222,-0.2222,-0.2222,-0.2222,-0.2222,-0.2164,-0.2059,-0.2045,-0.196,-0.1892,-0.1848,-0.1763,-0.1667,0.0,0.0,0.0,0.0,0.0,0.0,0.0,0.0,0.0,0.0,0.0,0.0,0.0,0.0,0.0,0.0,0.0,0.0,0.0,0.0,0.0,0.0,0.0,0.0,0.0,0.0,0.0,0.0,1.0464,1.0281,1.0415,1.0519,1.0359,0.0,0.0,0.0,0.0,0.0,0.0,0.8618,0.8934,0.8894,0.8522,0.8448,0.8122,0.7676,0.6335,0.5686,0.5747,0.4692,0.3988,0.3758,0.3758,0.3557,0.3155,0.1948,0.127,0.1121,0.1754,0.2059,0.2073,0.1082,0.0788,0.0794,0.0342,0.0,-0.0294,-0.0914,-0.1104,-0.1152,-0.1698,-0.1827,-0.178,-0.169,0.0,0.0,0.0,0.0,-0.1859,-0.1934,-0.1981,-0.2027,-0.2093,-0.2115,-0.2121,-0.2121,-0.2103,-0.1919,0.0,-0.1064,-0.1046,-0.0928,0.0,0.0,0.0,0.0,-0.1972,-0.2023,-0.2103,-0.2222,-0.2222,-0.2222,-0.2222,-0.2222,-0.2164,-0.2128,-0.2128,-0.1988,-0.1932,-0.191,-0.1851,-0.1769,-0.1665,0.0,0.0,0.0,0.0,0.0,0.0,0.0,0.0,0.0,0.0,0.0,0.0,0.0,0.0,0.0,0.0,0.0,0.0,0.0,0.0,0.0,0.0,0.0,0.0,0.0,0.0,0.0,0.0,0.0,1.146,1.1453,0.0,0.0,0.0,0.0,0.8636,0.9079,0.9154,0.8612,0.8947,0.8799,0.8254,0.7082,0.646,0.6487,0.5087,0.442,0.4423,0.4356,0.3555,0.2218,0.2218,0.1479,0.0202,-0.0202,-0.0404,-0.0402,-0.0326,0.0063,0.0553,0.0,-0.0059,0.0059,-0.0418,-0.1152,-0.1908,-0.1913,-0.1931,-0.195,-0.2009,-0.1969,-0.1921,-0.1915,-0.1817,0.0,0.0,-0.192,-0.1975,-0.2006,-0.2059,-0.2104,-0.2108,-0.2131,-0.2219,-0.2219,-0.2218,-0.2122,0.0,-0.1904,-0.1866,-0.1859,0.0,-0.1827,-0.1856,-0.1973,-0.2025,-0.2058,-0.2182,-0.2222,-0.2222,-0.2222,-0.2222,-0.2222,-0.2164,-0.2128,-0.2128,-0.2007,-0.1973,-0.1972,-0.1914,-0.1851,-0.1787,-0.1671,0.0,0.0,0.0,0.0,0.0,0.0,0.0,0.0,0.0,0.0,0.0,0.0,0.0,0.0,0.0,0.0,0.0,0.0,0.0,0.0,0.0,0.0,0.0,0.0,0.0,0.0,0.0,0.0,1.0937,1.1155,0.0,0.9615,0.9583,0.9352,0.8628,0.8954,0.8973,0.8397,0.7681,0.7188,0.7069,0.5712,0.5005,0.5031,0.3625,0.2888,0.2888,0.1948,0.1277,0.074,0.074,0.0471,0.0,-0.0337,-0.0673,-0.0874,-0.1133,-0.1055,-0.0913,-0.1285,-0.1409,-0.1414,-0.1535,-0.1806,-0.2157,-0.2157,-0.2085,-0.2203,-0.3142,-0.3995,-0.4713,-0.4713,-0.474,-0.4715,-0.4787,-0.4782,-0.4835,-0.4836,-0.4824,-0.4861,-0.4861,-0.488,-0.4899,-0.4899,-0.4899,-0.4875,-0.4868,-0.3298,-0.2033,-0.1994,-0.1994,-0.2309,-0.3227,-0.261,-0.2413,-0.3372,-0.2742,-0.2222,-0.2222,-0.2222,-0.2222,-0.2222,-0.2883,-0.3272,-0.3179,-0.3951,-0.3987,-0.3113,-0.3077,-0.2667,-0.1796,-0.1734,-0.1628,0.0,0.0,0.0,0.0,0.0,0.0,0.0,0.0,0.0,0.0,0.0,0.0,0.0,0.0,0.0,0.0,0.0,0.0,0.0,0.0,0.0,0.0,0.0,0.0,0.0,1.1654,1.1363,1.1012,1.1021,1.0616,0.943,0.9415,0.9219,0.8528,0.874,0.8517,0.7627,0.6813,0.6158,0.5674,0.4326,0.3591,0.354,0.2103,0.1357,0.1364,0.0478,0.0,0.0,0.0,0.0,0.0,-0.0472,-0.0875,-0.1144,-0.1616,-0.2086,-0.2486,-0.2265,-0.2137,-0.2219,-0.2132,-0.2471,-0.296,-0.3427,-0.3606,-0.3703,-0.4648,-0.5544,-0.6324,-0.6324,-0.6324,-0.6337,-0.6399,-0.6415,-0.6428,-0.6417,-0.6433,-0.6433,-0.6433,-0.6433,-0.6433,-0.6433,-0.6433,-0.6433,-0.6433,-0.486,-0.3556,-0.3489,-0.3505,-0.3711,-0.4191,-0.3861,-0.3723,-0.4229,-0.3897,-0.3629,-0.3629,-0.3629,-0.3622,-0.3539,-0.3899,-0.4198,-0.4473,-0.4809,-0.481,-0.4348,-0.3916,-0.3274,-0.2336,-0.2323,-0.2481,-0.2814,0.0,0.0,0.0,0.0,0.0,0.0,0.0,0.0,0.0,0.0,0.0,0.0,0.0,0.0,0.0,0.0,0.0,0.0,0.0,0.0,0.0,0.0,0.0,1.1479,1.15,1.1572,1.1798,1.1192,1.0372,0.9387,0.9323,0.9063,0.83,0.8294,0.7749,0.6441,0.6328,0.5621,0.425,0.2814,0.2005,0.2031,0.0692,0.0,0.0,0.0,0.0,0.0,0.0,-0.0069,-0.0137,-0.0881,-0.1212,-0.1279,-0.202,-0.3162,-0.4233,-0.2826,-0.2289,-0.2356,-0.2356,-0.3161,-0.4567,-0.59,-0.6433,-0.6498,-0.6498,-0.65,-0.6566,-0.6566,-0.6566,-0.6566,-0.6566,-0.6566,-0.6566,-0.6566,-0.6566,-0.6566,-0.6566,-0.6566,-0.6566,-0.6566,-0.6566,-0.6566,-0.6566,-0.6566,-0.65,-0.6433,-0.6433,-0.5965,-0.4635,-0.5566,0.0,-0.4635,-0.5568,-0.6364,-0.6366,-0.6364,-0.6332,-0.6185,-0.4994,-0.4782,-0.5904,-0.4637,-0.4402,-0.5512,-0.4391,-0.3616,-0.3448,-0.3483,-0.409,-0.5391,0.0,0.0,0.0,0.0,0.0,0.0,0.0,0.0,0.0,0.0,0.0,0.0,0.0,0.0,0.0,0.0,0.0,0.0,0.0,0.0,0.0,1.0253,1.069,1.1655,1.1893,1.1499,1.036,1.0195,0.9784,0.8869,0.8835,0.8716,0.8486,0.7529,0.6787,0.6403,0.442,0.3133,0.2715,0.1324,0.0559,0.0561,0.021,0.0,0.0,0.0,0.0,0.0,-0.0279,-0.1046,-0.2157,-0.2814,-0.3681,-0.476,-0.5119,-0.5499,-0.57,-0.4298,-0.4366,-0.5232,-0.5232,-0.5499,-0.5899,-0.6299,-0.71,-0.7969,-0.7969,-0.8706,-0.951,-0.951,-0.951,-0.951,-0.951,-0.951,-0.951,-0.951,-0.951,-0.951,-0.951,-0.951,-0.951,-0.951,-0.951,-0.951,-0.951,-0.951,-0.8839,-0.6767,-0.6433,-0.6633,-0.7305,-0.6833,0.0,-0.7305,-0.6833,-0.6034,-0.4967,-0.5767,-0.5958,-0.4942,-0.6172,-0.7086,-0.7182,-0.7514,-0.7429,-0.6914,-0.6412,-0.5803,-0.503,-0.5068,-0.5204,0.0,0.0,0.0,0.0,0.0,0.0,0.0,0.0,0.0,0.0,0.0,0.0,0.0,0.0,0.0,0.0,0.0,0.0,0.0,0.0,0.0,0.0,1.0155,1.0498,1.1017,1.1157,1.0874,0.9967,0.9549,0.9171,0.8645,0.8051,0.7667,0.7644,0.6341,0.5221,0.4631,0.3013,0.1837,0.1272,0.0424,0.0,0.0,0.0,0.0,0.0,-0.0641,-0.1068,-0.121,-0.2124,-0.3104,-0.4155,-0.4656,-0.5386,-0.6203,-0.6459,-0.6894,0.0,0.0,0.0,0.0,0.0,-0.7303,-0.7436,-0.7969,-0.8773,-0.9513,-0.9513,-1.0047,-1.0721,-1.0721,-1.0721,-1.0721,-1.0721,-1.0721,-1.0721,-1.0721,-1.0721,-1.0721,-1.0721,-1.0721,-1.0721,-1.0721,-1.0721,-1.0721,-1.0721,-1.0721,0.0,-0.8507,-0.8171,-0.8304,-0.8573,-0.8371,-0.8304,-0.8573,-0.8371,-0.7905,-0.704,-0.7705,-0.7818,-0.698,-0.7741,0.0,0.0,0.0,-0.8241,-0.7499,-0.7267,0.0,0.0,0.0,0.0,0.0,0.0,0.0,0.0,-0.6383,-0.6252,0.0,0.0,0.0,0.0,0.0,0.0,0.0,0.0,0.0,0.0,0.0,0.0,0.0,0.0,0.0,0.0,1.0233,1.0377,0.9828,0.9736,0.9842,1.0028,0.9183,0.852,0.8387,0.7178,0.6345,0.6161,0.487,0.3456,0.2174,0.0,0.0,0.0,0.0,0.0,0.0,-0.0144,-0.0288,-0.0292,-0.1821,-0.2764,-0.3197,-0.4597,-0.557,-0.6131,-0.6473,-0.6717,-0.692,-0.7104,-0.7947,-0.888,-0.7476,-0.69,-0.7034,-0.8371,-0.8842,-0.9042,-1.025,0.0,0.0,-1.0721,-1.0721,-1.0721,-1.0721,-1.0721,-1.0721,-1.0721,-1.0721,-1.0721,-1.0721,-1.0721,-1.0721,-1.0721,-1.0721,-1.0721,-1.0721,-1.0721,-1.0721,-1.0721,-1.0721,-1.0721,-1.0721,-1.0721,-1.025,-0.9042,-0.9915,-1.025,-0.8975,-0.9915,-1.0654,-1.0452,0.0,0.0,-1.0329,-0.934,-0.9079,-0.9958,-0.8772,-0.7982,-0.7741,-0.7706,-0.7764,-0.8037,-0.8054,-0.8705,-0.9987,-1.0021,-1.0171,-1.0287,-0.7739,-0.7248,0.0,0.0,0.0,0.0,0.0,0.0,0.0,0.0,0.0,0.0,0.0,0.0,0.0,0.0,0.0,0.9281,0.9055,0.885,0.8863,0.8883,0.8892,0.8914,0.872,0.8117,0.6911,0.6577,0.594,0.479,0.3325,0.2385,0.2132,0.1009,0.0291,0.0,0.0,0.0,0.0,-0.1236,-0.1889,-0.1893,0.0,0.0,-0.4796,-0.5366,-0.6585,-0.816,-0.8411,-0.9287,-1.0413,-1.0341,-1.0362,-1.0454,-1.0038,-0.9848,-0.9915,-1.0183,-1.0316,-1.0316,-1.0588,-1.0721,-1.0721,-1.0721,-1.0721,-1.0721,-1.0721,-1.0721,0.0,-1.0721,-1.0721,-1.0721,-1.0721,-1.0721,-1.0721,-1.0721,-1.0721,-1.0721,-1.0721,-1.0721,-1.0721,-1.0721,-1.0721,-1.0721,-1.0721,-1.0721,-1.0588,-1.0316,-1.0518,-1.0585,-1.0319,-1.0518,-1.025,-0.9108,-1.0047,-1.024,-0.9074,-0.968,-1.0128,-1.0246,-0.9876,-0.9574,-0.9336,-0.9594,-0.9676,-0.9549,-0.9728,-0.9899,-0.9987,-1.029,-1.0422,-1.0443,-0.98,-0.9708,0.0,0.0,0.0,0.0,0.0,0.0,0.0,0.0,0.0,0.0,0.0,0.929,0.8902,0.0,0.8857,0.8819,0.8646,0.8254,0.7574,0.7514,0.7514,0.7514,0.7514,0.6911,0.5501,0.4662,0.3958,0.3252,0.1896,0.1068,0.1082,0.0363,0.0,0.0,-0.0729,-0.1166,-0.1166,-0.2911,-0.3781,-0.3781,-0.5523,-0.6608,-0.6968,-0.7989,-0.9077,-1.0155,-1.0308,-1.0782,-1.1494,-1.1341,-1.1189,-1.105,-1.0972,-1.085,-1.0721,-1.0721,-1.0721,-1.0721,-1.0721,-1.0721,-1.0721,-1.0721,-1.0721,-1.0721,-1.0721,-1.0721,-1.0721,-1.0721,-1.0721,-1.0721,-1.0721,-1.0721,-1.0721,-1.0721,-1.0721,-1.0721,-1.0721,-1.0721,-1.0721,-1.0721,-1.0721,-1.0721,-1.0721,-1.0721,-1.0721,-1.0721,-1.0721,-1.0721,-1.0721,-1.0721,-1.0452,-0.9712,-1.025,-1.0452,-0.9712,-1.0182,-1.0463,-1.0392,-1.0246,-1.0134,-1.0053,-1.0198,-1.0276,-1.027,-1.0348,-1.0385,-1.0321,-1.0534,-1.0605,-1.0605,-1.0612,-1.0612,0.0,0.0,0.0,0.0,0.0,0.0,0.0,0.9331,0.8555,0.9563,0.9581,0.9259,0.8762,0.8903,0.8892,0.8481,0.8262,0.7784,0.6577,0.6174,0.5906,0.5571,0.5839,0.5434,0.4026,0.279,0.2002,0.168,0.0639,0.0,0.0,0.0,-0.0146,-0.0438,-0.1675,-0.2475,-0.2838,-0.4725,-0.5668,-0.5813,-0.7695,-0.8781,-0.9213,-1.0455,-1.1188,-1.1619,-1.1619,-1.1619,-1.1609,-1.1487,-1.1345,-1.1206,-1.1206,-1.1043,-1.0806,-1.0806,-1.0789,-1.0765,-1.0765,-1.0744,-1.0721,-1.0721,-1.0721,-1.0721,-1.0721,-1.0721,-1.0721,-1.0721,-1.0721,-1.0721,-1.0721,-1.0721,-1.0721,-1.0721,-1.0721,-1.0721,-1.0721,-1.0721,-1.0721,-1.0721,-1.0721,-1.0721,-1.0721,-1.0721,-1.0721,-1.0721,-1.0721,-1.0721,-1.0721,-1.0721,-1.0721,-1.0721,-1.0721,-1.0721,-1.0721,-1.0609,-1.0534,-1.0534,-1.0429,-1.0368,-1.0368,-1.0368,-1.0419,-1.0534,-1.0534,-1.0599,-1.0721,-1.0721,-1.0734,-1.0768,-1.0823,-1.0813,1.0964,1.0424,0.9842,0.9789,0.918,0.8875,0.0,0.9878,0.9441,0.9314,0.9367,0.9175,0.8399,0.8414,0.8484,0.8549,0.7507,0.6577,0.6443,0.53,0.4026,0.2754,0.3759,0.3959,0.2486,0.2178,0.1588,0.035,0.0071,0.0,0.0,0.0,-0.0656,-0.1966,-0.2184,-0.3128,-0.487,-0.6538,-0.748,-0.7765,-0.9435,-1.0383,-1.075,-1.0897,-1.1188,-1.1619,-1.1619,-1.1619,-1.1616,-1.1599,-1.1504,-1.1365,-1.1365,-1.1263,-1.1114,-1.1114,-1.1033,-1.0853,-1.0853,-1.0766,-1.0721,-1.0721,-1.0721,-1.0721,-1.0721,-1.0721,-1.0721,-1.0721,-1.0721,-1.0721,-1.0721,-1.0721,-1.0721,-1.0721,-1.0721,-1.0721,-1.0721,-1.0721,-1.0721,-1.0721,-1.0721,-1.0721,-1.0721,-1.0721,-1.0721,-1.0721,-1.0721,-1.0721,-1.0721,-1.0721,-1.0721,-1.0721,-1.0721,-1.0721,-1.0721,-1.0704,-1.0694,-1.0694,-1.068,-1.067,-1.067,-1.067,-1.0677,-1.0694,-1.0694,-1.0704,-1.0721,-1.0721,-1.0792,-1.0857,-1.0873,-1.0873,1.0306,0.9979,0.9567,1.0071,0.9459,0.8975,0.9985,0.9446,0.8806,0.932,0.9127,0.8752,0.8484,0.8481,0.8265,0.7441,0.6777,0.5839,0.4163,0.3358,0.2486,0.1076,0.1411,0.1546,0.0942,0.0892,0.0627,0.007,0.0,-0.0363,-0.1311,-0.1311,-0.2039,-0.3638,-0.4798,-0.5741,-0.661,-0.8569,-0.966,-0.9801,-1.0675,-1.1185,-1.1332,-1.1332,-1.1476,-1.1619,-1.1619,-1.1619,-1.1619,-1.1619,-1.1582,-1.1525,-1.1525,-1.1484,-1.1406,-1.1226,-1.1124,-1.106,-1.0911,-1.084,-1.0769,-1.0748,-1.0721,-1.0721,-1.0721,-1.0721,-1.0721,-1.0721,-1.0721,-1.0721,-1.0721,-1.0721,-1.0721,-1.0721,-1.0721,-1.0721,-1.0721,-1.0721,-1.0721,-1.0721,-1.0721,-1.0721,-1.0721,-1.0721,-1.0721,-1.0721,-1.0721,-1.0721,-1.0721,-1.0721,-1.0721,-1.0721,-1.0721,-1.0721,-1.0721,-1.0721,-1.0721,-1.0721,-1.0721,-1.0721,-1.0721,-1.0721,-1.0721,-1.0721,-1.0721,-1.0765,-1.0786,-1.0786,-1.0928,-1.1077,-1.1165,-1.1206,0.9413,0.9293,0.9171,0.9794,0.9298,0.8844,0.9546,0.882,0.8267,0.9117,0.8855,0.8357,0.8035,0.7984,0.7512,0.6038,0.5503,0.4498,0.2419,0.1748,0.1143,0.0135,0.0,0.0,0.0,0.0,0.0,0.0,-0.043,-0.1089,-0.2256,-0.2693,-0.371,-0.5454,-0.6831,-0.7917,-0.8497,-1.017,-1.1044,-1.1188,-1.1476,-1.1619,-1.1619,-1.1619,-1.1619,-1.1619,-1.1619,-1.1619,-1.1619,-1.1619,-1.1619,-1.1619,-1.1619,-1.1619,-1.1592,-1.1369,-1.126,-1.1206,-1.106,-1.0982,-1.0857,-1.0768,-1.0721,-1.0784,-1.1178,-1.0982,-1.0787,-1.1181,-1.0982,-1.0721,-1.0721,-1.0721,-1.0721,-1.0721,-1.0721,-1.0721,-1.0721,-1.0721,-1.0721,-1.0721,-1.0721,-1.085,-1.1178,-1.0982,-1.085,-1.1244,-1.0982,-1.0721,-1.0721,-1.0721,-1.0721,-1.0721,-1.0721,-1.0721,-1.0721,-1.0721,-1.0721,-1.0721,-1.0721,-1.0721,-1.0721,-1.0721,-1.0721,-1.0721,-1.0761,-1.0769,-1.088,-1.0989,-1.1084,-1.1226,-1.1341,-1.1413,0.8709,0.8612,0.8641,0.8673,0.8459,0.8329,0.8444,0.8399,0.8435,0.8618,0.8579,0.8182,0.6711,0.6441,0.5973,0.4562,0.3156,0.2218,0.2084,0.0942,0.0067,0.0,0.0,0.0,0.0,0.0,0.0,0.0,-0.1418,-0.2226,-0.2328,-0.3784,-0.5526,-0.7483,-0.7555,-0.8644,-1.0897,-1.0972,-1.1188,-1.1548,-1.1619,-1.1619,-1.1619,-1.1619,-1.1619,-1.1619,-1.1619,-1.1619,-1.1619,-1.1619,-1.1619,-1.1619,-1.1619,-1.1619,-1.1616,-1.1609,-1.1511,-1.1362,-1.1209,-1.1063,-1.0857,-1.0768,-1.0721,-1.0982,-1.2293,-1.1769,-1.0982,-1.2359,-1.1769,-1.0721,-1.0721,-1.0721,-1.0721,-1.0721,-1.0721,-1.0721,-1.0721,-1.0721,-1.0721,-1.0721,-1.0721,-1.1115,-1.2491,-1.1571,-1.1178,-1.2553,-1.1571,-1.0721,-1.0721,-1.0721,-1.0721,-1.0721,-1.0721,-1.0721,-1.0721,-1.0721,-1.0721,-1.0721,-1.0721,-1.0721,-1.0721,-1.0721,-1.0721,-1.0721,-1.0799,-1.0877,-1.088,-1.1087,-1.1236,-1.1385,-1.1389,-1.147,0.7793,0.7958,0.8108,0.8464,0.8429,0.8416,0.8484,0.853,0.8252,0.7351,0.7144,0.671,0.5293,0.4994,0.4504,0.3069,0.2436,0.1796,0.0806,0.0269,0.0,0.0,-0.0807,-0.1412,-0.1412,-0.1362,-0.145,-0.1539,-0.2904,-0.4233,-0.5377,-0.6177,-0.741,-0.908,-0.9588,-1.0242,-1.0972,-1.126,-1.1476,-1.1619,-1.1619,-1.1619,-1.1619,-1.1619,-1.1619,-1.1619,-1.1619,-1.1619,-1.1619,-1.1619,-1.1619,-1.1688,-1.2753,-1.3103,-1.3246,-1.4231,-1.454,-1.4388,-1.3235,-1.3332,-1.3963,-1.3779,-1.3637,-1.3604,-1.4058,-1.3862,-1.36,-1.4058,-1.3862,-1.3473,-1.3473,-1.3473,-1.3473,-1.3473,-1.3473,-1.3473,-1.3473,-1.3473,-1.3473,-1.3473,-1.3473,-1.3665,-1.4124,-1.3796,-1.3337,-1.2882,-1.1574,-1.0721,-1.0721,-1.0721,-1.0721,-1.0721,-1.0721,-1.0721,-1.0721,-1.0721,-1.0721,-1.0721,-1.0721,-1.0787,-1.1052,-1.0883,-1.0937,-1.121,-1.1152,-1.1141,-1.1243,-1.129,-1.1533,-1.1902,-1.1902,-1.2069,0.746,0.7348,0.7146,0.7607,0.7351,0.6969,0.7029,0.7082,0.6764,0.582,0.565,0.5203,0.3763,0.351,0.3035,0.1607,0.1358,0.1047,0.0134,0.0,-0.0202,-0.0673,-0.1621,-0.237,-0.291,-0.3425,-0.3603,-0.3145,-0.453,-0.5951,-0.7117,-0.7991,-0.9008,-1.0242,-1.0753,-1.1044,-1.1188,-1.1476,-1.1619,-1.1619,-1.1619,-1.1619,-1.1619,-1.1619,-1.1619,-1.1619,-1.1619,-1.1619,-1.1619,-1.2183,-1.2398,-1.2538,-1.4089,-1.4654,-1.4796,-1.5778,-1.6484,-1.6671,-1.5064,-1.4931,-1.5474,-1.5343,-1.5144,-1.4973,-1.5494,-1.5298,-1.4973,-1.5494,-1.5298,-1.4907,-1.4907,-1.4907,-1.4907,-1.4907,-1.4907,-1.4907,-1.4907,-1.4907,-1.4907,-1.4907,-1.4907,-1.5038,-1.5554,-1.5619,-1.5163,-1.3731,-1.275,-1.1835,-1.085,-1.0721,-1.0721,-1.0721,-1.0721,-1.0721,-1.0853,-1.085,-1.0916,-1.1052,-1.1168,-1.1263,-1.1463,-1.1415,-1.1503,-1.1775,-1.1721,-1.1713,-1.1815,-1.1868,-1.2087,-1.2406,-1.2971,-1.3321,0.7442,0.666,0.5843,0.6139,0.5246,0.4293,0.4289,0.4309,0.4247,0.4183,0.4184,0.3745,0.2271,0.2001,0.1527,0.0192,0.0,0.0,-0.0067,-0.0135,-0.0673,-0.2086,-0.2384,-0.309,-0.4458,-0.6037,-0.6364,-0.4899,-0.6228,-0.7311,-0.7695,-0.9152,-1.0314,-1.0972,-1.105,-1.1194,-1.1619,-1.1619,-1.1619,-1.1619,-1.1619,-1.1619,-1.1619,-1.1619,-1.1619,-1.1619,-1.1691,-1.1691,-1.1832,-1.3389,-1.4022,-1.4164,-1.5641,-1.6202,-1.6202,-1.6343,-1.7268,-1.8304,-1.6688,-1.5986,-1.5697,-1.5562,-1.5356,-1.5378,-1.6721,-1.6138,-1.5364,-1.6721,-1.6138,-1.5103,-1.5103,-1.5103,-1.5103,-1.5103,-1.5113,-1.5122,-1.5122,-1.5127,-1.5132,-1.5122,-1.5113,-1.5559,-1.685,-1.7109,-1.6656,-1.5248,-1.5047,-1.4058,-1.131,-1.0916,-1.0916,-1.0982,-1.0982,-1.1049,-1.1376,-1.1376,-1.1516,-1.1858,-1.1996,-1.2015,-1.2026,-1.219,-1.2348,-1.2348,-1.2513,-1.26,-1.26,-1.2821,-1.2968,-1.3107,-1.4445,-1.5075,0.4976,0.4706,0.4573,0.4784,0.4549,0.4282,0.4302,0.4313,0.397,0.2903,0.2663,0.2248,0.0797,0.0522,0.0418,0.0061,0.0,-0.0389,-0.1406,-0.1628,-0.2253,-0.3682,-0.4967,-0.5771,-0.6187,-0.7881,-0.8797,-0.8371,-0.8753,-0.9105,-0.9291,-1.0242,-1.0825,-1.0972,-1.1358,-1.158,-1.1619,-1.1619,-1.1619,-1.1619,-1.1619,-1.1619,-1.1619,-1.1619,-1.1619,-1.1688,-1.2821,-1.3317,-1.3456,-1.4937,-1.5566,-1.5712,-1.7203,-1.784,-1.7981,-1.9105,-1.9744,-2.0023,-1.9606,-1.9278,-1.9021,-1.8776,-1.8519,-1.8338,-1.8542,-1.8291,-1.8098,-1.8483,-1.8291,-1.8033,-1.8033,-1.8033,-1.8033,-1.8033,-1.817,-1.8307,-1.8307,-1.8462,-1.8547,-1.8347,-1.8159,-1.8162,-1.8483,-1.8547,-1.822,-1.7287,-1.6968,-1.6203,-1.4437,-1.3988,-1.4054,-1.4493,-1.4367,-1.4371,-1.4688,-1.3718,-1.326,-1.3473,-1.259,-1.2206,-1.2608,-1.2504,-1.2594,-1.2878,-1.387,-1.4377,-1.4377,-1.4419,-1.5146,-1.6545,-1.5783,-1.6207,0.5015,0.4044,0.326,0.3284,0.2874,0.2445,0.2444,0.2402,0.2158,0.1345,0.1206,0.0959,0.0163,0.0,0.0,0.0,-0.0496,-0.1219,-0.2005,-0.2788,-0.3771,-0.5276,-0.6272,-0.7189,-0.7965,-0.9133,-0.9873,-1.0146,-1.0096,-1.0191,-1.0465,-1.0784,-1.1171,-1.1444,-1.1677,-1.1826,-1.1813,-1.1745,-1.1711,-1.1711,-1.165,-1.1619,-1.1619,-1.2327,-1.261,-1.2678,-1.4231,-1.4867,-1.5008,-1.6489,-1.7127,-1.7268,-1.8826,-1.9396,-1.9535,-2.0382,-2.0665,-2.0665,-2.0665,-2.0569,-2.0388,-2.0008,-1.9694,-1.9481,-1.9151,-1.9078,-1.9078,-1.9078,-1.9078,-1.9078,-1.9078,-1.9163,-1.9247,-1.9247,-1.9452,-1.9652,-1.9652,-1.9772,-1.9802,-1.9519,-1.935,-1.9275,-1.9282,-1.9426,-1.9419,-1.9102,-1.9036,-1.877,-1.7987,-1.6385,-1.5474,-1.5854,-1.5729,-1.5834,-1.6316,-1.5612,-1.5049,-1.4805,-1.4087,-1.357,-1.3136,-1.3099,-1.3189,-1.3471,-1.4123,-1.4804,-1.5509,-1.5509,-1.6348,-1.8094,-1.7895,-1.8385,0.5428,0.3658,0.1815,0.1815,0.093,0.0,0.0,0.0,0.0,0.0,0.0,0.0,0.0,0.0,-0.0056,-0.0238,-0.1279,-0.2264,-0.26,-0.3879,-0.5358,-0.6733,-0.7176,-0.7934,-0.9507,-0.9818,-1.0148,-1.0651,-1.0692,-1.0831,-1.127,-1.1236,-1.1441,-1.2084,-1.1942,-1.1935,-1.2091,-1.1938,-1.185,-1.183,-1.1921,-1.1921,-1.1975,-1.3456,-1.416,-1.4303,-1.5778,-1.6413,-1.6484,-1.8051,-1.8692,-1.8832,-2.0173,-2.0665,-2.0665,-2.0665,-2.0665,-2.0665,-2.0665,-2.0665,-2.0587,-2.0098,-1.9748,-1.947,-1.9211,-1.9102,-1.9078,-1.9078,-1.9078,-1.9084,-1.912,-1.936,-1.9542,-1.9513,-1.9736,-1.9941,-1.9941,-1.9941,-1.9935,-1.9687,-1.9608,-1.9642,-1.979,-2.0011,-2.0251,-2.0621,-2.0872,-2.1127,-2.1176,-1.8417,-1.6548,-1.6678,-1.6608,-1.6838,-1.7538,-1.7428,-1.7004,-1.6239,-1.6221,-1.5575,-1.4299,-1.4381,-1.4533,-1.4533,-1.4675,-1.5447,-1.6715,-1.6715,-1.7479,-1.9013,-2.0069,-2.0698,0.14,0.0738,0.0336,0.0336,0.0198,0.0,0.0,0.0,0.0,0.0,0.0,0.0,0.0,0.0,-0.0384,-0.152,-0.1935,-0.2954,-0.5326,-0.6102,-0.6894,-0.8362,-0.8771,-0.9056,-0.9347,-1.0011,-1.051,-1.0651,-1.1221,-1.1567,-1.1492,-1.1777,-1.1993,-1.2244,-1.2101,-1.2094,-1.225,-1.2098,-1.1955,-1.183,-1.3038,-1.3598,-1.3527,-1.5004,-1.5707,-1.5778,-1.7343,0.0,-1.8121,-1.968,-2.0312,-2.0318,-2.0596,-2.0665,-2.0665,-2.0665,-2.0665,-2.0665,-2.0665,-2.0665,-2.0617,-2.0309,-2.0032,-1.976,-1.9483,-1.9247,-1.9078,-1.9078,-1.9078,-1.9126,-1.9344,-1.9499,-1.959,-1.976,-2.002,-2.0207,-2.0207,-2.0207,-2.033,-2.0546,-2.0422,-2.0321,-2.0668,-2.0772,-2.1006,-2.157,-2.1514,-2.1594,-2.2111,-2.0742,-1.9971,-2.0547,-2.0288,-2.0402,-2.1076,-2.0025,-1.9401,-1.9401,-1.8361,-1.7643,-1.7547,-1.7593,-1.7614,-1.7614,-1.8809,-1.9582,-1.9791,-1.9791,-2.0623,-2.2091,-2.1044,-2.1258,0.1273,0.0538,0.0,0.0,0.0,0.0,0.0,-0.0389,-0.0739,-0.0735,-0.1167,-0.1366,-0.0822,-0.1164,-0.1655,-0.191,-0.3044,-0.4416,-0.599,-0.7259,-0.8321,-0.9143,-0.9445,-0.9833,-1.0262,-1.049,-1.0868,-1.1457,-1.2657,-1.2913,-1.195,-1.2175,-1.2291,-1.2291,-1.2291,-1.2779,-1.361,-1.3525,-1.3846,-1.4638,-1.5281,-1.5424,-1.5305,-1.68,-1.745,-1.7409,-1.8901,-1.9611,-1.9675,-2.0388,-2.0665,-2.0665,-2.0665,-2.0665,-2.0665,-2.0665,-2.0665,-2.0665,-2.0665,-2.0665,-2.0647,-2.0521,-2.0303,-2.0038,-1.9766,-1.9495,-1.9277,-1.9277,-1.9277,-1.9372,-1.9499,-1.9676,-1.9923,-2.0062,-2.0427,-2.0747,-2.0747,-2.0959,-2.1121,-2.1113,-2.1043,-2.0971,-2.123,-2.1387,-2.1603,-2.2062,-2.223,-2.2236,-2.2418,-2.1845,-2.1549,-2.1797,-2.1646,-2.17,-2.2184,-2.1598,-2.0969,-2.0424,-1.9749,-1.9104,-1.8449,-1.8379,-1.8379,-1.8379,-1.9083,-1.9854,-2.0629,-2.0629,-2.1396,-2.2866,-2.216,-2.225,0.1266,0.0403,-0.0536,-0.0793,-0.0827,-0.0783,-0.0724,-0.1269,-0.1756,-0.1724,-0.233,-0.2645,-0.189,-0.2421,-0.2907,-0.2708,-0.4364,-0.5915,-0.6688,-0.8251,-0.9379,-0.9616,-0.9868,-1.0366,-1.1088,-1.0954,-1.1366,-1.256,-1.4271,-1.4593,-1.2938,-1.2975,-1.2982,-1.2865,-1.2975,-1.3799,-1.5399,-1.5337,-1.5918,-1.7211,-1.735,-1.7282,-1.7033,-1.8613,-1.9128,-1.8971,-2.0173,-2.0665,-2.0665,-2.0665,-2.0665,-2.0665,-2.0665,-2.0665,-2.0665,-2.0665,-2.0665,-2.0741,-2.0804,-2.0804,-2.0804,-2.0943,-2.0697,-2.0373,-2.0166,-1.9911,-1.9686,-1.9686,-1.9621,-1.9567,-1.9693,-2.002,-2.0421,-2.0619,-2.099,-2.1352,-2.1352,-2.1559,-2.1771,-2.1616,-2.1577,-2.1642,-2.1751,-2.1969,-2.2181,-2.2444,-2.2712,-2.2779,-2.2545,-2.2512,-2.2425,-2.2198,-2.2118,-2.2198,-2.2492,-2.2512,-2.213,-2.1176,-2.112,-2.0554,-1.9431,-1.9362,-1.9362,-1.9362,-1.9362,-1.9924,-2.112,-2.112,-2.1779,-2.2966,-2.2966,-2.3126,-0.138,-0.1797,-0.2211,-0.3433,-0.359,-0.3376,-0.3158,-0.2952,-0.2855,-0.2777,-0.2829,-0.2867,-0.2775,-0.2872,-0.3525,-0.5173,-0.5837,-0.6789,-0.8646,-0.9387,-0.9819,-1.004,-1.0293,-1.051,-1.0721,-1.1027,-1.2022,-1.3815,-1.5956,-1.6438,-1.4766,-1.4701,-1.4705,-1.4689,-1.4705,-1.5476,-1.715,-1.7132,-1.718,-1.7211,-1.8546,-1.8973,-1.8613,-2.0196,-2.0772,-2.0527,-2.0665,-2.0665,0.0,-2.0665,-2.0665,-2.0665,-2.0665,-2.0665,-2.0665,-2.0665,-2.0665,-2.0735,-2.1075,-2.1144,-2.1214,-2.1559,-2.1302,-2.0737,-2.0712,-2.052,-2.0304,-2.0304,-2.0111,-1.9905,-2.014,-2.0509,-2.0941,-2.1533,-2.1678,-2.1766,-2.1766,-2.1766,-2.1891,-2.214,-2.2203,-2.2333,-2.2717,-2.2806,-2.2819,-2.2819,-2.2914,-2.2921,-2.2894,-2.2819,-2.2812,-2.2854,-2.2539,-2.2498,-2.2799,-2.2819,-2.2832,-2.2722,-2.2722,-2.2654,-2.251,-2.251,-2.251,-2.251,-2.251,-2.2578,-2.2722,-2.2722,-2.2868,-2.3287,-2.3287,-2.344,-0.1739,-0.2101,-0.2447,-0.3779,-0.3974,-0.379,-0.3654,-0.3859,-0.408,-0.3978,-0.4412,-0.468,-0.4187,-0.4578,-0.5186,-0.5844,-0.6462,-0.7334,-0.8558,-0.9234,-0.9715,-1.0111,-1.0398,-1.1216,-1.2794,-1.2912,-1.4151,-1.7293,-1.8315,-1.8522,-1.791,-1.6922,-1.6389,-1.6389,-1.6389,-1.7227,-1.8825,-1.8825,-1.9311,-2.028,-2.0883,-2.0926,-2.0439,-2.1091,-2.1076,-2.0665,-2.0665,-2.0665,0.0,-2.0665,-2.0665,-2.0665,-2.0665,-2.0804,-2.1006,-2.1006,-2.1144,-2.1352,-2.149,-2.1559,-2.1559,-2.1766,-2.1758,-2.1669,-2.1464,-2.1206,-2.0986,-2.0986,-2.0925,-2.0815,-2.0921,-2.1207,-2.1489,-2.1741,-2.1973,-2.2104,-2.2104,-2.2317,-2.2516,-2.2654,-2.2654,-2.2722,-2.2859,-2.2928,-2.2928,-2.2928,-2.2928,-2.2928,-2.2928,-2.2928,-2.2928,-2.2928,-2.2752,-2.2732,-2.2921,-2.2928,-2.2928,-2.2928,-2.2928,-2.2928,-2.2928,-2.2928,-2.2928,-2.2928,-2.2928,-2.2928,-2.2928,-2.3053,-2.3207,-2.3327,-2.3514,-2.3748,-0.2805,-0.3263,-0.3559,-0.4906,-0.5115,-0.4933,-0.4767,-0.5101,-0.5356,-0.5228,-0.5719,-0.6017,-0.5468,-0.5955,-0.6458,-0.6448,-0.7147,-0.7933,-0.8599,-0.9553,-1.0201,-1.0264,-1.1244,-1.2557,-1.4196,-1.518,-1.6838,-1.9559,-2.0269,-2.0575,-2.0575,-1.9434,-1.8598,-1.8138,-1.8138,-1.89,-2.05,-2.0575,-2.1072,-2.2144,-2.2144,-2.1867,-2.1354,-2.1354,-2.1106,-2.0665,-2.0665,-2.0665,0.0,-2.0665,-2.0735,-2.0873,-2.0873,-2.1075,-2.1352,-2.1352,-2.1559,-2.1835,-2.1897,-2.1973,-2.1966,-2.2104,-2.2317,-2.2448,-2.2173,-2.19,-2.1677,-2.1677,-2.1609,-2.1541,-2.1609,-2.1825,-2.1973,-2.211,-2.231,-2.2448,-2.2448,-2.2722,-2.2928,-2.2928,-2.2928,-2.2928,-2.2928,-2.2928,-2.2928,-2.2928,-2.2928,-2.2928,-2.2928,-2.2928,-2.2928,-2.2928,-2.2928,-2.2928,-2.2928,-2.2928,-2.2928,-2.2928,-2.2928,-2.2928,-2.2928,-2.2928,-2.2928,-2.2928,-2.2953,-2.2999,-2.2999,-2.3307,-2.35,-2.3587,-2.3801,-2.4055,-0.5339,-0.5965,-0.621,-0.7534,-0.7785,-0.7556,-0.7052,-0.6888,-0.6718,-0.6442,-0.6384,-0.6384,-0.6387,-0.6609,-0.6931,-0.7411,-0.7962,-0.854,-0.9259,-1.0898,-1.158,-1.0586,-1.3062,-1.4652,-1.4123,-1.7487,-1.9731,-1.9811,-2.1343,-2.2259,-2.2259,-2.2259,-2.1493,-1.9811,-1.9817,-2.0575,-2.2259,-2.2259,-2.2132,-2.1873,-2.1873,-2.1589,-2.1135,-2.1135,-2.0989,-2.0665,-2.0665,-2.0665,0.0,-2.0665,-2.0873,-2.1214,-2.1214,-2.1421,-2.1766,-2.1766,-2.1766,-2.1835,-2.2173,-2.231,-2.2379,-2.2791,-2.2859,-2.2859,-2.2859,-2.2585,-2.2304,-2.2304,-2.2035,-2.1897,-2.2166,-2.231,-2.2379,-2.2791,-2.2859,-2.2859,-2.2859,-2.2928,-2.2928,-2.2928,-2.2928,-2.2928,-2.2928,-2.2928,-2.2928,-2.2928,-2.2928,-2.2928,-2.2928,-2.2928,-2.2928,-2.2928,-2.2928,-2.2928,-2.2928,-2.2928,-2.2928,-2.2928,-2.2928,-2.2928,-2.2928,-2.2928,-2.2928,-2.2928,-2.3166,-2.3327,-2.3327,-2.3621,-2.3915,-2.4195,-2.4195,-2.4356,-0.5374,-0.5836,-0.6193,-0.7463,-0.7671,-0.7561,-0.7272,-0.7141,-0.6994,-0.6716,-0.6735,-0.6805,-0.6805,-0.695,-0.734,-0.8182,-0.927,-1.021,-1.0786,-1.235,-1.3447,-1.3396,-1.5992,-1.7775,-1.7631,-1.9974,-2.1493,-2.1493,-2.2029,-2.2334,-2.2334,-2.2334,-2.2035,-2.1499,-2.1493,-2.1723,-2.2259,-2.2334,-2.2206,-2.1873,-2.216,-2.1866,-2.1128,-2.1616,-2.1544,-2.1075,-2.1352,-2.1421,-2.1421,-2.1421,-2.149,-2.1628,-2.1628,-2.1829,-2.2173,-2.2173,-2.2317,-2.2585,-2.2654,-2.2722,-2.2722,-2.2859,-2.2928,-2.2928,-2.2928,-2.2791,-2.2722,-2.2722,-2.2654,-2.2592,-2.2654,-2.2722,-2.2722,-2.2859,-2.2928,-2.2928,-2.2928,-2.2928,-2.2928,-2.2928,-2.2928,-2.2928,-2.2928,-2.2928,-2.2928,-2.2928,-2.2928,-2.2928,-2.2928,-2.2928,-2.2928,-2.2928,-2.2928,-2.2928,-2.2928,-2.2928,-2.2928,-2.2928,-2.2928,-2.2928,-2.2928,-2.2928,-2.2928,-2.2928,-2.2959,-2.3113,-2.3327,-2.3627,-2.4022,-2.4496,-2.4496,-2.4549,-0.6164,-0.6426,-0.6606,-0.7343,-0.7596,-0.7607,-0.7717,-0.7516,-0.73,-0.7416,-0.7221,-0.7166,-0.7629,-0.7855,-0.835,-0.9488,-1.0535,-1.1419,-1.2077,-1.3653,-1.5207,-1.6359,-1.7902,-1.914,-1.9825,-2.127,-2.2156,-2.2253,-2.2334,-2.2334,-2.2334,-2.2334,-2.2334,-2.2334,-2.2334,-2.2334,-2.2334,-2.2483,-2.23,-2.1934,-2.2298,-2.2078,-2.1398,-2.1811,-2.1786,-2.1421,-2.1697,-2.1766,0.0,-2.1766,-2.1904,-2.1966,-2.1966,-2.2242,-2.2516,-2.2516,-2.2654,-2.2928,-2.2928,-2.2928,-2.2928,-2.2928,-2.2928,-2.2928,-2.2928,-2.2928,-2.2928,-2.2928,-2.2928,-2.2928,-2.2928,-2.2928,-2.2928,-2.2928,-2.2928,-2.2928,-2.2928,-2.2928,-2.2928,-2.2928,-2.2928,-2.2928,-2.2928,-2.2928,-2.2928,-2.2928,-2.2928,-2.2928,-2.2928,-2.2928,-2.2928,-2.2928,-2.2928,-2.2928,-2.2928,-2.2928,-2.2928,-2.2928,-2.2928,-2.2928,-2.2928,-2.2928,-2.2928,-2.2928,-2.3086,-2.33,-2.3494,-2.3901,-2.4282,-2.4636,-2.4636,-2.4636,0.0,-0.7463,-0.7316,-0.7354,-0.7525,-0.7867,-0.846,-0.805,0.0,-0.836,-0.7804,-0.7556,-0.8763,-0.9179,-0.9811,-1.1163,-1.1776,-1.2327,-1.3263,-1.4902,-1.6858,-1.9214,-1.8963,-1.9265,-2.0969,-2.1637,-2.1975,-2.2315,-2.2334,-2.234,-2.234,-2.234,-2.2408,-2.2408,-2.239,-2.2315,-2.234,-2.2707,-2.2669,-2.2075,-2.2487,-2.2332,-2.186,-2.1841,-2.1835,0.0,-2.1835,-2.1904,-2.1904,-2.1904,-2.2035,-2.231,-2.231,-2.2585,-2.2928,-2.2928,-2.2928,-2.2928,-2.2928,-2.2928,-2.2928,-2.2928,-2.2928,-2.2928,-2.2928,-2.2928,-2.2928,-2.2928,-2.2928,-2.2928,-2.2928,-2.2928,-2.2928,-2.2928,-2.2928,-2.2928,-2.2928,-2.2928,-2.2928,-2.2928,-2.2928,-2.2928,-2.2928,-2.2928,-2.2928,-2.2928,-2.2928,-2.2928,-2.2928,-2.2928,-2.2928,-2.2928,-2.2928,-2.2928,-2.2928,-2.2928,-2.2928,-2.2928,-2.2928,-2.2928,-2.2928,-2.2928,-2.2928,-2.2928,-2.346,-2.3781,-2.3801,-2.4362,-2.4636,-2.4636,-2.4636,-2.4636,-0.7785,0.0,-0.7282,-0.7923,-0.8276,-0.8704,0.0,-0.8999,-0.8485,-0.8492,-0.8427,-0.8609,-0.9396,-1.0175,-1.1123,-1.2268,-1.3516,-1.4518,-1.5095,-1.7151,-1.8935,-1.9724,-2.0218,-2.0721,-2.1347,-2.1679,-2.1975,-2.2315,-2.2558,-2.2781,-2.2781,-2.2999,-2.3147,-2.3147,-2.2946,-2.2793,-2.2781,-2.3073,-2.3125,-2.2791,-2.2936,-2.2718,-2.2141,-2.2484,-2.2448,-2.2173,-2.2516,-2.2654,-2.2654,-2.2654,-2.266,-2.2791,-2.2791,-2.2797,-2.2928,-2.2928,-2.2928,-2.2928,-2.2928,-2.2928,-2.2928,-2.2928,-2.2928,-2.2928,-2.2928,-2.2928,-2.2928,-2.2928,-2.2928,-2.2928,-2.2928,-2.2928,-2.2928,-2.2928,-2.2928,-2.2928,-2.2928,-2.2928,-2.2928,-2.2928,-2.2928,-2.2928,-2.2928,-2.2928,-2.2928,-2.2928,-2.2928,-2.2928,-2.2928,-2.2928,-2.2928,-2.2928,-2.2928,-2.2928,-2.2928,-2.2928,-2.2928,-2.2928,-2.2928,-2.2928,-2.2928,-2.2928,-2.2928,-2.2928,-2.346,-2.3881,-2.4102,-2.4462,-2.4636,-2.4636,-2.4636,-2.4636,-0.8251,-0.8309,-0.8424,-0.8457,-0.8993,-0.9719,-1.0534,-0.999,-0.9403,-0.9738,-0.9534,-0.9593,-1.0599,-1.1451,-1.2453,-1.3811,-1.4922,-1.6,-1.6975,-1.8606,-1.9869,-2.0398,-2.0894,-2.1331,-2.1756,-2.1982,-2.2114,-2.2392,-2.2631,-2.2777,-2.2777,-2.2923,-2.3063,-2.3063,-2.3068,-2.3053,-2.2965,-2.3206,-2.3141,-2.2865,-2.3144,-2.2979,-2.2538,-2.2795,-2.2791,-2.2585,-2.2791,-2.2928,-2.2928,-2.2928,-2.2928,-2.2928,-2.2928,-2.2928,-2.2928,-2.2928,-2.2928,-2.2928,-2.2928,-2.2928,-2.2996,-2.3665,-2.34,-2.2996,-2.3665,-2.387,-2.3734,-2.3065,-2.2928,-2.2928,-2.2928,-2.2928,-2.3065,-2.3734,-2.387,-2.387,-2.387,-2.387,-2.3665,-2.2996,-2.2928,-2.2928,-2.2928,-2.2928,-2.2928,-2.2928,-2.2928,-2.2928,-2.2928,-2.2928,-2.2928,-2.2928,-2.2928,-2.2928,-2.2928,-2.2928,-2.2928,-2.2928,-2.2928,-2.2928,-2.2928,-2.2928,-2.3062,-2.3343,-2.3601,-2.3981,-2.4402,-2.4563,-2.4636,-2.4636,-2.4636,-2.4636,-0.9081,-0.9714,-1.0168,-0.9243,-0.9821,-1.082,-1.1673,-1.0976,-1.0404,-1.1149,-1.0694,-1.0592,-1.1992,-1.2766,-1.375,-1.5437,-1.6205,-1.7111,-1.8603,-1.9463,-2.0264,-2.1165,-2.1258,-2.1527,-2.2147,-2.2179,-2.2371,-2.2872,-2.2963,-2.3035,-2.3035,-2.3041,-2.3041,-2.2768,-2.308,-2.3243,-2.3398,-2.3334,-2.319,-2.2896,-2.3183,-2.3366,-2.3262,-2.3016,-2.2996,-2.3195,-2.3195,0.0,-2.2928,-2.3133,-2.3065,-2.2928,-2.2928,-2.2928,-2.2928,-2.2928,-2.2928,-2.2934,-2.3133,-2.3331,-2.3727,-2.467,-2.4338,-2.372,-2.4612,-2.5069,-2.5002,-2.38,-2.3495,-2.3529,-2.3529,-2.3529,-2.3863,-2.5068,-2.5143,-2.5008,-2.5008,-2.4805,-2.4338,-2.3133,-2.2928,-2.2928,-2.2928,-2.2928,-2.2928,-2.2928,-2.2928,-2.2928,-2.2928,-2.2928,-2.2928,-2.2928,-2.2928,-2.2928,-2.2928,-2.2928,-2.2928,-2.2928,-2.2928,-2.2928,-2.2928,-2.2928,-2.3126,-2.3694,-2.3748,-2.4035,-2.4569,-2.4616,-2.4636,-2.4636,-2.4636,-2.4636,-1.0869,-1.1734,-1.2161,-1.0739,-1.1246,-1.2153,-1.2469,-1.1957,-1.1408,-1.1322,-1.1352,-1.1687,-1.2601,-1.3874,-1.5164,-1.6344,-1.7346,-1.8349,-1.929,-1.9971,-2.0593,-2.131,-2.1558,-2.1874,-2.2147,-2.2179,-2.2774,-2.4241,-2.4693,-2.4904,-2.4904,-2.52,-2.4862,-2.3625,-2.3386,-2.3814,-2.5013,-2.4388,-2.3916,-2.363,-2.3701,-2.4161,-2.4991,-2.3584,-2.3536,-2.4677,0.0,-2.4006,-2.2996,-2.4203,-2.4006,-2.2928,-2.2928,-2.2928,-2.2928,-2.2928,-2.2928,-2.3065,-2.427,-2.5465,-2.6321,-2.5338,-2.5667,-2.6201,-2.4886,-2.5319,-2.6226,-2.6029,-2.6164,-2.6447,-2.6447,-2.6447,-2.6514,-2.6722,-2.5868,-2.5008,-2.5008,-2.4067,-2.3133,-2.2928,-2.2928,-2.2928,-2.2928,-2.2928,-2.2928,-2.2928,-2.2928,-2.2928,-2.2928,-2.2928,-2.2928,-2.2928,-2.2928,-2.2928,-2.2928,-2.2928,-2.2928,-2.2928,-2.2928,-2.2928,-2.2928,-2.2928,-2.3033,-2.3387,-2.3641,-2.3935,-2.4269,-2.4516,-2.4636,-2.4636,-2.4636,-2.4636,-1.1484,-1.2336,-1.2981,-1.2145,-1.2573,-1.3229,-1.3336,-1.3126,-1.2816,-1.2543,-1.2716,-1.313,-1.4002,-1.495,-1.6023,-1.741,-1.8414,-1.9243,-1.972,-2.0345,-2.0958,-2.1797,-2.2026,-2.2225,-2.2569,-2.3253,-2.4059,-2.4806,-2.576,-2.6307,-2.6307,-2.6451,-2.6254,-2.5577,-2.5437,-2.5688,-2.6283,-2.6111,-2.5915,-2.5584,-2.478,-2.5107,-2.6283,-2.5524,-2.5525,-2.6128,0.0,-2.5793,-2.5188,-2.586,-2.5726,-2.5053,-2.4331,-2.3999,-2.3999,-2.3999,-2.3999,-2.4338,-2.6537,-2.7262,-2.7081,-2.7046,-2.6917,-2.6714,-2.6503,-2.685,-2.7596,-2.8567,-2.7832,-2.6817,-2.7065,-2.7113,-2.7312,-2.8122,-2.78,-2.7336,-2.7336,-2.6804,-2.5868,-2.4338,-2.3999,-2.3802,-2.3065,-2.2928,-2.2928,-2.2928,-2.2928,-2.2928,-2.2928,-2.2928,-2.2928,-2.2928,-2.2928,-2.2928,-2.2928,-2.2928,-2.2928,-2.2928,-2.2928,-2.2928,-2.2928,-2.2928,-2.308,-2.3554,-2.3701,-2.3988,-2.4436,-2.4569,-2.4636,-2.4636,-2.4636,-2.4636,-1.2022,-1.2622,-1.316,-1.3172,-1.3598,-1.409,-1.4188,-1.4231,-1.4259,-1.4086,-1.429,-1.4673,-1.5376,-1.6097,-1.7009,-1.8417,-1.9284,-1.9878,-2.0172,-2.0683,-2.1378,-2.2215,-2.2408,-2.2585,-2.2859,-2.4203,-2.5135,-2.5472,-2.6788,-2.7652,-2.7652,-2.7652,-2.7445,-2.7113,-2.7113,-2.7246,-2.7585,-2.7533,-2.7332,-2.7113,-2.6086,-2.628,-2.7585,-2.7246,-2.7312,-2.7652,-2.7652,-2.7445,-2.7113,-2.7453,-2.7379,-2.698,-2.5927,-2.5472,-2.5472,-2.5472,-2.5741,-2.6344,-2.8534,-2.8789,-2.8205,-2.8672,-2.8261,-2.7586,-2.7993,-2.8263,-2.8781,-3.0211,-2.9081,-2.7498,-2.7999,-2.8114,-2.8378,-2.9526,-2.9535,-2.9273,-2.9273,-2.9003,-2.8131,-2.5935,-2.5203,-2.4677,-2.3604,-2.3133,-2.2928,-2.2928,-2.2928,-2.2928,-2.2928,-2.2928,-2.2928,-2.2928,-2.2928,-2.2928,-2.2928,-2.2928,-2.2928,-2.2928,-2.2928,-2.2928,-2.2928,-2.2928,-2.3149,-2.3547,-2.3701,-2.3988,-2.4436,-2.4569,-2.4636,-2.4636,-2.4636,-2.4636,-1.2954,-1.2989,-1.2959,-1.3532,-1.4058,-1.4574,-1.5002,-1.527,-1.5466,-1.5743,-1.6022,-1.6224,-1.631,-1.7427,-1.8543,-1.9121,-1.9706,-2.024,-2.0857,-2.1215,-2.1706,-2.2344,-2.2692,-2.2859,-2.2928,-2.4203,-2.5532,-2.6847,-2.8328,-2.9134,-2.9134,-2.9134,-2.8526,-2.7113,-2.7113,-2.7784,-2.9134,-2.7816,-2.7137,-2.7113,-2.7336,-2.8,-2.9068,-2.7718,-2.785,-2.9134,-2.9134,-2.8386,-2.7179,-2.86,-2.8328,-2.7113,-2.698,-2.698,-2.698,-2.698,-2.7792,-2.9003,-2.9208,-3.0056,-3.0908,-2.9631,-2.9848,-3.0185,-2.857,-2.8774,-2.9578,-3.0121,-3.0116,-3.0093,-3.0911,-3.1111,-3.1111,-3.124,-3.026,-2.9273,-2.9273,-2.8188,-2.7179,-2.698,-2.586,-2.494,-2.4873,-2.3802,-2.2928,-2.2928,-2.2928,-2.2928,-2.2928,-2.2928,-2.2928,-2.2928,-2.2928,-2.2928,-2.2928,-2.2928,-2.2928,-2.2928,-2.2928,-2.2928,-2.2928,-2.2928,-2.2954,-2.2926,-2.348,-2.3794,-2.3834,-2.4376,-2.4636,-2.4636,-2.4636,-2.4636,-1.2532,-1.3107,-1.3683,-1.3902,-1.4488,-1.506,-1.5152,-1.5759,-1.6427,-1.6714,-1.7137,-1.7493,-1.7666,-1.8692,-1.9554,-1.9533,-2.023,-2.077,-2.0987,-2.1319,-2.202,-2.3227,-2.2941,-2.3247,-2.496,-2.5873,-2.6929,-2.8328,-2.9787,-3.0584,-3.0584,-3.0584,-3.0381,-2.9778,-2.9778,-3.0048,-3.0584,-3.0039,-2.9778,-2.9778,-2.9006,-2.9336,-3.0584,-3.0039,-3.0113,-3.0584,-3.0584,-3.0316,-2.9844,-3.0381,-3.0251,-2.9713,-2.8789,-2.7719,-2.6893,-2.804,-2.8654,-2.9094,-3.0236,-3.0982,-3.1267,-3.05,-3.0293,-3.0279,-2.9551,-2.9274,-2.9402,-3.0248,-3.038,-3.0387,-3.1176,-3.1377,-3.1377,-3.1377,-3.0982,-3.0584,-3.0584,-3.0178,-2.9509,-2.8657,-2.8065,-2.7403,-2.6455,-2.5128,-2.4203,-2.4203,-2.3468,-2.2928,-2.2928,-2.2928,-2.2928,-2.2928,-2.2928,-2.2928,-2.2928,-2.2928,-2.2928,-2.2928,-2.2928,-2.2928,-2.2928,-2.2928,-2.2953,-2.3146,-2.3561,-2.3861,-2.4042,-2.4442,-2.4636,-2.4636,-2.4636,-2.4636,-1.2365,-1.3113,-1.3881,-1.4155,-1.4816,-1.5478,-1.58,-1.6574,-1.7358,-1.7971,-1.8394,-1.8693,-1.8906,-1.9648,-2.0139,-2.0055,-2.0601,-2.1049,-2.1062,-2.1361,-2.2134,-2.3688,-2.2884,-2.3329,-2.6056,-2.6587,-2.7434,-2.902,-3.0406,-3.1249,-3.1368,-3.1377,-3.1377,-3.1377,-3.1377,-3.1377,-3.1377,-3.1377,-3.1377,-3.1377,-3.039,-3.0455,-3.1377,-3.1377,-3.1377,-3.1377,-3.1377,-3.1377,-3.1377,-3.1377,-3.1451,-3.1433,-3.0257,-2.9051,-2.8112,-2.9185,-2.941,-2.9353,-3.071,-3.1275,-3.134,-3.1199,-3.0837,-3.051,-3.0354,-2.9767,-2.9329,-3.0272,-3.0288,-3.0213,-3.1139,-3.1377,-3.1377,-3.1377,-3.1377,-3.1377,-3.1377,-3.1377,-3.112,-3.013,-2.96,-2.9003,-2.7982,-2.6588,-2.5667,-2.5667,-2.4865,-2.4067,-2.3597,-2.3536,-2.34,-2.2928,-2.2928,-2.2928,-2.2928,-2.2928,-2.2928,-2.2928,-2.2928,-2.2928,-2.2928,-2.2928,-2.2966,-2.318,-2.3567,-2.3868,-2.4068,-2.4449,-2.4636,-2.4636,-2.4636,-2.4636,-1.2703,-1.3018,-1.3434,-1.4309,-1.497,-1.5798,-1.7255,-1.7836,-1.8342,-1.9573,-1.9813,-1.9781,-1.9837,-2.0004,-2.0334,-2.0628,-2.0922,-2.1109,-2.1109,-2.1363,-2.2045,-2.3354,-2.2623,-2.3079,-2.5704,-2.6024,-2.6817,-2.8563,-3.0003,-3.0956,-3.135,-3.1368,-3.1368,-3.1368,-3.1377,-3.1377,-3.1377,-3.1377,-3.1377,-3.1377,-3.1377,-3.1377,-3.1377,-3.1377,-3.1377,-3.1377,-3.1377,-3.1377,-3.1377,-3.1377,-3.158,-3.1809,-3.1073,-3.1034,-3.122,-3.0466,-3.0195,-3.0257,-3.0566,-3.0941,-3.1348,-3.1671,-3.1513,-3.1162,-3.0803,-3.0162,-2.9617,-3.0079,-2.9892,-2.9907,-3.112,-3.1433,-3.1368,-3.1377,-3.1377,-3.1377,-3.1377,-3.1377,-3.1377,-3.1377,-3.026,-2.9339,-2.9339,-2.8122,-2.7113,-2.7113,-2.7113,-2.6588,-2.521,-2.5008,-2.4474,-2.3065,-2.2934,-2.2928,-2.2928,-2.2928,-2.2928,-2.2928,-2.2928,-2.2928,-2.2928,-2.2928,-2.2928,-2.2928,-2.346,-2.3774,-2.3774,-2.4356,-2.4636,-2.4636,-2.4636,-2.4636,-1.2703,-1.3427,-1.4242,-1.4716,-1.5785,-1.6958,-1.7976,-1.8611,-1.9312,-2.0481,-2.0555,-2.0441,-2.0411,-2.0486,-2.0575,-2.0661,-2.0922,-2.1109,-2.1109,-2.1189,-2.2047,-2.4277,-2.3691,-2.4512,-2.8174,-2.7918,-2.8123,-2.9663,-3.0119,-3.0424,-3.0543,-3.0809,-3.0965,-3.0965,-3.1231,-3.1377,-3.1377,-3.1377,-3.1377,-3.1377,-3.1377,-3.1377,-3.1377,-3.1377,-3.1377,-3.1377,-3.1377,-3.1377,-3.1442,-3.1644,-3.1806,-3.1797,-3.1602,-3.1074,-3.0517,-3.0747,-3.0512,-3.0185,-3.0771,-3.127,-3.1634,-3.1403,-3.1276,-3.1176,-3.0952,-3.0238,-2.968,-3.0534,-3.0349,-3.0162,-3.0937,-3.1168,-3.1246,-3.1377,-3.1772,-3.2038,-3.1782,-3.1717,-3.1717,-3.1717,-3.1249,-3.0788,-3.0788,-2.9591,-2.8666,-2.8666,-2.7784,-2.698,-2.6522,-2.5599,-2.4805,-2.4406,-2.3468,-2.2928,-2.2928,-2.2928,-2.2928,-2.2928,-2.2928,-2.2928,-2.2928,-2.2928,-2.2928,-2.2928,-2.346,-2.3774,-2.3774,-2.4356,-2.4636,-2.4636,-2.4636,-2.4636,-1.3139,-1.3975,-1.4883,-1.5685,-1.6636,-1.7702,-1.8898,-1.9546,-2.012,-2.0942,-2.0882,-2.0715,-2.0828,-2.0755,-2.0715,-2.0828,-2.0995,-2.1109,-2.1109,-2.1538,-2.2654,-2.4748,-2.4486,-2.5482,-2.9022,-2.8307,-2.8324,-2.9876,-2.9947,-3.002,-3.0195,-3.0424,-3.0552,-3.0552,-3.0781,-3.091,-3.091,-3.091,-3.091,-3.091,-3.091,-3.091,-3.0919,-3.1231,-3.1295,-3.1139,-3.0974,-3.0973,-3.1163,-3.1362,-3.1527,-3.1665,-3.1371,-3.0931,-3.0496,-3.0591,-3.0347,-3.0109,-3.0654,-3.1136,-3.1451,-3.1325,-3.13,-3.1303,-3.1043,-3.0491,-3.0007,-3.0613,-3.0433,-3.0203,-3.0907,-3.1049,-3.1086,-3.1258,-3.1736,-3.2121,-3.1931,-3.199,-3.2111,-3.2111,-3.1846,-3.158,-3.158,-3.0788,-3.0121,-3.0121,-2.892,-2.7982,-2.7982,-2.6722,-2.586,-2.586,-2.5061,-2.4324,-2.3802,-2.4263,-2.406,-2.2996,-2.34,-2.3468,-2.2928,-2.2928,-2.2928,-2.2928,-2.3347,-2.3654,-2.3774,-2.4235,-2.4523,-2.4636,-2.4636,-2.4636,-1.3858,-1.4583,-1.5357,-1.6797,-1.7481,-1.8176,-1.982,-2.0421,-2.0728,-2.1042,-2.0902,-2.0795,-2.1062,-2.0895,-2.0802,-2.1069,-2.1109,-2.1172,-2.1299,-2.2341,-2.3628,-2.4994,-2.5178,-2.6164,-2.8737,-2.7882,-2.7833,-2.9428,-2.9577,-2.9681,-3.0066,-3.0121,-3.014,-3.014,-3.0176,-3.0204,-3.0204,-3.0204,-3.0204,-3.0204,-3.0204,-3.0204,-3.0222,-3.0947,-3.1075,-3.0717,-3.0413,-3.0442,-3.0741,-3.0741,-3.1091,-3.1504,-3.087,-3.0749,-3.0842,-3.0241,-2.9981,-2.9981,-3.0333,-3.072,-3.1067,-3.1346,-3.1484,-3.1444,-3.1088,-3.068,-3.041,-3.0496,-3.0275,-3.0102,-3.0869,-3.1016,-3.0995,-3.1095,-3.148,-3.1831,-3.1869,-3.21,-3.2374,-3.2412,-3.2166,-3.1919,-3.1919,-3.1644,-3.1442,-3.1377,-3.0325,-2.9469,-2.9469,-2.8188,-2.7312,-2.7312,-2.7179,-2.6588,-2.527,-2.6388,-2.5987,-2.3461,-2.4338,-2.4406,-2.3133,-2.2996,-2.2928,-2.2928,-2.3166,-2.346,-2.3734,-2.4048,-2.4342,-2.4596,-2.4623,-2.4636,-1.4415,-1.48,-1.5303,-1.6493,-1.7903,-1.9145,-1.9753,-2.012,-2.0481,-2.1002,-2.1056,-2.1036,-2.1096,-2.1056,-2.1036,-2.1096,-2.1109,-2.1475,-2.2522,-2.2889,-2.3938,-2.6277,-2.6589,-2.7203,-2.8856,-2.8737,-2.8714,-2.9104,-2.9113,-2.9149,-2.9241,-2.9534,-2.9709,-2.9709,-3.003,-3.0204,-3.0204,-3.0204,-3.0204,-3.0204,-3.0204,-3.0204,-3.0204,-3.0378,-3.0406,-3.0323,-3.0541,-3.0803,-3.111,-3.1294,-3.1469,-3.1531,-3.1374,-3.1003,-3.0566,-3.0674,-3.0518,-3.0333,-3.0704,-3.1044,-3.1336,-3.1133,-3.125,-3.1455,-3.1064,-3.0703,-3.047,-3.0752,-3.0527,-3.0381,-3.0809,-3.0917,-3.0927,-3.0966,-3.1568,-3.2157,-3.2176,-3.2248,-3.2411,-3.2727,-3.2549,-3.223,-3.1919,-3.1855,-3.1717,-3.1442,-3.1111,-3.0917,-3.0917,-2.9722,-2.8797,-2.8797,-2.7784,-2.698,-2.6647,-2.6914,-2.6847,-2.6247,-2.5465,-2.4873,-2.4542,-2.3468,-2.2928,-2.2928,-2.3166,-2.336,-2.342,-2.3948,-2.4235,-2.4302,-2.4529,-2.4636,-1.4882,-1.5489,-1.6275,-1.7291,-1.8364,-1.9272,-1.97,-1.9913,-2.0147,-2.0601,-2.0802,-2.0942,-2.1082,-2.1109,-2.1109,-2.1109,-2.1109,-2.1538,-2.2889,-2.3636,-2.474,-2.6771,-2.7564,-2.8241,-2.8925,-2.8984,-2.8984,-2.8984,-2.8984,-2.8984,-2.8984,-2.9177,-2.9287,-2.9287,-2.9507,-2.9617,-2.9617,-2.9617,-2.9617,-2.9617,-2.9799,-2.9851,-2.986,-2.9871,-2.9901,-2.9944,-3.0055,-3.0334,-3.0626,-3.0876,-3.1109,-3.1211,-3.1211,-3.0957,-3.0645,-3.083,-3.0762,-3.0635,-3.083,-3.1035,-3.1182,-3.0957,-3.1035,-3.1172,-3.0957,-3.0762,-3.0704,-3.083,-3.0762,-3.0704,-3.083,-3.0889,-3.0889,-3.0889,-3.1387,-3.1854,-3.1895,-3.2109,-3.2312,-3.2535,-3.2262,-3.2017,-3.21,-3.198,-3.1855,-3.1653,-3.1515,-3.1377,-3.1377,-3.0788,-3.0325,-3.0325,-2.9648,-2.8912,-2.8188,-2.878,-2.8575,-2.7179,-2.7062,-2.6737,-2.6061,-2.467,-2.3597,-2.2928,-2.3026,-2.318,-2.3327,-2.3634,-2.3928,-2.4209,-2.4356,-2.4502,-1.533,-1.6235,-1.7311,-1.8124,-1.8631,-1.9052,-1.9539,-1.9686,-1.9806,-2.01,-2.0394,-2.0688,-2.0982,-2.1036,-2.1049,-2.1102,-2.1109,-2.1664,-2.3201,-2.4317,-2.5607,-2.7142,-2.8301,-2.8984,-2.8984,-2.8984,-2.8984,-2.8984,-2.8984,-2.8984,-2.8984,-2.8984,-2.8984,-2.8984,-2.8984,-2.8984,-2.8984,-2.8984,-2.9044,-2.9103,-2.939,-2.9568,-2.9577,-2.9555,-2.9591,-2.9564,-2.9589,-2.9745,-3.0039,-3.0333,-3.0635,-3.0889,-3.0889,-3.0889,-3.0889,-3.0889,-3.0889,-3.0889,-3.0889,-3.0889,-3.0889,-3.0889,-3.0889,-3.0889,-3.0889,-3.0889,-3.0889,-3.0889,-3.0889,-3.0889,-3.0889,-3.0889,-3.0889,-3.0889,-3.1152,-3.1426,-3.1504,-3.1807,-3.208,-3.2158,-3.1854,-3.1715,-3.2132,-3.1923,-3.1769,-3.1769,-3.1504,-3.1304,-3.1304,-3.1295,-3.1277,-3.1277,-3.1332,-3.0917,-2.9731,-3.0723,-3.0372,-2.7982,-2.8789,-2.8732,-2.7511,-2.6128,-2.4798,-2.3665,-2.3133,-2.2986,-2.3247,-2.33,-2.3607,-2.4128,-2.4182,-2.4356,-1.5757,-1.6456,-1.7204,-1.7642,-1.8317,-1.8945,-1.9025,-1.9239,-1.9506,-1.98,-2.0087,-2.0381,-2.0681,-2.0735,-2.0815,-2.1069,-2.1109,-2.1971,-2.4379,-2.4871,-2.5912,-2.843,-2.8856,-2.8984,-2.8984,-2.8984,-2.8984,-2.8984,-2.8984,-2.8984,-2.8984,-2.8984,-2.8984,-2.8984,-2.8984,-2.8984,-2.8984,-2.8984,-2.9153,-2.945,-2.9686,-2.9863,-2.9863,-2.9624,-2.9524,-2.9524,-2.9764,-3.0039,-3.0333,-3.0704,-3.083,-3.0889,-3.0889,-3.0889,-3.0889,-3.0889,-3.0889,-3.0889,-3.0889,-3.0889,-3.0889,-3.0889,-3.0889,-3.0889,-3.0889,-3.0889,-3.0889,-3.0889,-3.0889,-3.0889,-3.0889,-3.0889,-3.0889,-3.0889,-3.0937,-3.1074,-3.1435,-3.1562,-3.1719,-3.21,-3.1854,-3.1619,-3.1677,-3.1427,-3.1228,-3.1228,-3.0971,-3.0776,-3.0776,-3.0842,-3.0873,-3.0873,-3.1176,-3.1313,-3.112,-3.1313,-3.124,-3.0843,-2.9861,-2.9208,-2.9003,-2.7585,-2.6714,-2.6514,-2.4128,-2.2954,-2.2926,-2.3193,-2.35,-2.3834,-2.4088,-2.4356,-1.7102,-1.7626,-1.821,-1.9297,-1.949,-1.9636,-2.0482,-1.9975,-1.9723,-2.1198,-2.1218,-2.0899,-2.049,-2.0964,-2.1242,-2.0718,-2.1904,-2.3359,-2.4587,-2.5538,-2.6831,-2.8797,-2.8984,-2.8984,-2.8984,-2.8984,-2.8984,-2.8984,-2.8984,-2.8984,-2.8984,-2.8984,-2.8984,-2.8984,-2.8984,-2.8984,-2.8984,-2.8984,-2.9213,-2.9745,-2.9863,-2.9981,-3.0157,-2.9863,-2.9745,-2.9745,-2.9863,-3.0098,-3.045,-3.0762,-3.0889,-3.0889,-3.0889,-3.0889,-3.0889,-3.0889,-3.0889,-3.0889,-3.0889,-3.0889,-3.0889,-3.0889,-3.0889,-3.0889,-3.0889,-3.0889,-3.0889,-3.0889,-3.0889,-3.0889,-3.0889,-3.0889,-3.0889,-3.0889,-3.0889,-3.0947,-3.1123,-3.1162,-3.1221,-3.1416,-3.1521,-3.1556,-3.1556,-3.1447,-3.1356,-3.1356,-3.112,-3.0874,-3.0741,-3.0714,-3.0793,-3.0826,-3.0947,-3.1139,-3.1359,-3.1377,-3.1377,-3.1377,-3.0852,-3.0455,-3.0455,-2.9125,-2.8328,-2.8328,-2.5532,-2.4074,-2.4074,-2.3406,-2.322,-2.3527,-2.3654,-2.3875,-1.7716,-1.817,-1.8617,-2.0087,-2.0184,-2.0256,-2.163,-2.0703,-2.0164,-2.2274,-2.2025,-2.1354,-2.1028,-2.1765,-2.2186,-2.1452,-2.3021,-2.4559,-2.5052,-2.6185,-2.7421,-2.881,-2.9006,-2.9111,-2.9144,-2.9213,-2.9222,-2.9222,-2.9222,-2.9222,-2.9222,-2.9222,-2.9222,-2.9222,-2.9222,-2.9222,-2.9222,-2.9331,-2.9568,-3.0039,-3.0108,-3.0284,-3.0518,-3.0157,-3.0049,-3.0167,-3.0039,-3.0216,-3.0577,-3.082,-3.0889,-3.0889,-3.0889,-3.0889,-3.0889,-3.0889,-3.0889,-3.0889,-3.0889,-3.0889,-3.0889,-3.0889,-3.0889,-3.0889,-3.0889,-3.0889,-3.0889,-3.0889,-3.0889,-3.0889,-3.0889,-3.0889,-3.0889,-3.0889,-3.0889,-3.0889,-3.0889,-3.0889,-3.0889,-3.0889,-3.1143,-3.1357,-3.1357,-3.1382,-3.1404,-3.1404,-3.1162,-3.0859,-3.0677,-3.0588,-3.059,-3.0639,-3.0642,-3.08,-3.1194,-3.1231,-3.1267,-3.1368,-3.1377,-3.1377,-3.1377,-3.039,-2.9796,-2.9796,-2.7336,-2.5935,-2.5532,-2.3734,-2.322,-2.3795,-2.346,-2.3487,-1.6616,-1.7132,-1.7583,-1.8507,-1.9449,-2.0435,-2.1342,-2.0844,-2.0666,-2.2228,-2.1649,-2.1387,-2.2755,-2.3432,-2.3874,-2.4379,-2.4402,-2.4819,-2.6402,-2.6659,-2.7222,-2.8633,-2.9104,-2.9321,-2.9471,-2.9686,-2.9863,-2.9863,-2.9863,-2.9863,-2.9863,-2.9863,-2.9863,-2.9863,-2.9863,-2.9863,-2.9863,-3.0157,-3.0323,-3.0382,-3.0704,-3.083,-3.083,-3.0509,-3.0577,-3.083,-3.0509,-3.0577,-3.0889,-3.0889,-3.0889,-3.0889,-3.0889,-3.0889,-3.0889,-3.0889,-3.0889,-3.0889,-3.0889,-3.0889,-3.0889,-3.0889,-3.0889,-3.0889,-3.0889,-3.0889,-3.0889,-3.0889,-3.0889,-3.0889,-3.0889,-3.0889,-3.0889,-3.0889,-3.0889,-3.0889,-3.0889,-3.0889,-3.0889,-3.0889,-3.0908,-3.0928,-3.0928,-3.0937,-3.0957,-3.0957,-3.0645,-3.0449,-3.0391,-3.0219,-3.0121,-3.0139,-3.0187,-3.0396,-3.0781,-3.0818,-3.0983,-3.1359,-3.1377,-3.1377,-3.1377,-3.1313,-3.1313,-3.1313,-2.9861,-2.8394,-2.698,-2.4263,-2.3687,-2.5277,-2.3934,-2.3487,-1.7435,-1.7875,-1.8452,-1.987,-2.041,-2.1028,-2.2413,-2.1973,-2.1879,-2.3892,-2.3812,-2.3843,-2.534,-2.504,-2.4471,-2.4152,-2.5552,-2.6584,-2.6406,-2.7271,-2.8086,-2.8596,-2.8795,-2.9022,-2.9321,-2.9475,-2.9647,-2.9903,-2.9922,-2.9922,-2.9922,-2.9922,-2.9922,-2.9922,-2.9922,-2.9922,-2.9922,-3.0216,-3.0382,-3.0382,-3.0762,-3.0889,-3.0889,-3.0762,-3.0772,-3.0889,-3.0762,-3.0762,-3.0889,-3.0889,-3.0889,-3.0889,-3.0889,-3.0889,-3.0889,-3.0889,-3.0889,-3.0889,-3.0889,-3.0889,-3.0889,-3.0889,-3.0889,-3.0889,-3.0889,-3.0889,-3.0889,-3.0889,-3.0889,-3.0889,-3.0889,-3.0889,-3.0889,-3.0889,-3.0889,-3.0889,-3.0889,-3.0889,-3.0889,-3.0889,-3.0889,-3.0889,-3.0889,-3.0889,-3.0889,-3.0889,-3.082,-3.0635,-3.045,-3.035,-3.0313,-3.0338,-3.0204,-3.0393,-3.1069,-3.0917,-3.0956,-3.135,-3.1377,-3.1377,-3.1377,-3.1377,-3.1377,-3.1377,-2.9991,-2.9068,-2.8526,-2.6522,-2.5457,-2.5176,-2.5576,-2.4833,-1.8016,-1.8293,-1.8868,-2.0751,-2.0795,-2.0987,-2.3152,-2.2557,-2.2262,-2.4736,-2.4794,-2.4842,-2.6487,-2.6078,-2.5367,-2.517,-2.6591,-2.755,-2.6995,-2.7835,-2.8544,-2.8576,-2.8641,-2.8859,-2.9174,-2.9451,-2.9699,-2.9977,-3.0139,-3.0225,-3.0225,-3.0225,-3.0225,-3.0225,-3.0225,-3.0225,-3.0225,-3.046,-3.0577,-3.0577,-3.0762,-3.0889,-3.0889,-3.0889,-3.0889,-3.0889,-3.0889,-3.0889,-3.0889,-3.0889,-3.0889,-3.0889,-3.0889,-3.0889,-3.0889,-3.0889,-3.0889,-3.0889,-3.0889,-3.0889,-3.0889,-3.0889,-3.0889,-3.0889,-3.0889,-3.0889,-3.0889,-3.0889,-3.0889,-3.0889,-3.0889,-3.0889,-3.0889,-3.0889,-3.0889,-3.0889,-3.0889,-3.0889,-3.0889,-3.0889,-3.0889,-3.0889,-3.0889,-3.0889,-3.0889,-3.0889,-3.0889,-3.083,-3.0577,-3.045,-3.0439,-3.047,-3.0219,-3.027,-3.0962,-3.0953,-3.1069,-3.1358,-3.1506,-3.1515,-3.1377,-3.1377,-3.1377,-3.1377,-3.0455,-2.9991,-2.9991,-2.8048,-2.6855,-2.647,-2.6922,-2.6121,0.0,0.0,0.0,-2.0822,-2.0457,-2.0333,-2.3365,-2.2459,-2.175,-2.4472,-2.4231,-2.41,-2.6014,-2.6338,-2.6631,-2.7523,-2.7398,-2.7448,-2.814,-2.8262,-2.833,-2.8475,-2.8742,-2.8962,-2.9064,-2.9752,-3.0166,-3.0176,-3.0596,-3.085,-3.085,-3.0859,-3.0879,-3.0889,-3.0889,-3.0889,-3.0889,-3.0889,-3.0889,-3.0889,-3.0889,-3.0889,-3.0889,-3.0889,-3.0889,-3.0889,-3.0889,-3.0889,-3.0889,-3.0889,-3.0889,-3.0889,-3.0889,-3.0889,-3.0889,-3.0889,-3.0889,-3.0889,-3.0889,-3.0889,-3.0889,-3.0889,-3.0889,-3.0889,-3.0889,-3.0889,-3.0889,-3.0889,-3.0889,-3.0889,-3.0889,-3.0889,-3.0889,-3.0889,-3.0889,-3.0889,-3.0889,-3.0889,-3.0889,-3.0889,-3.0889,-3.0889,-3.0889,-3.0889,-3.0889,-3.0889,-3.0889,-3.0889,-3.0889,-3.0635,-3.0382,-3.0382,-3.0098,-3.0092,-3.0499,-3.0907,-3.1209,-3.1276,-3.1668,-3.1754,-3.1423,-3.1359,-3.1368,-3.1377,-3.1377,-3.1377,-3.1377,-2.8575,-2.7916,-2.9265,-2.7784,-2.7113,-1.8608,0.0,0.0,0.0,0.0,0.0,-2.2377,-2.2491,-2.2593,-2.3687,-2.3662,-2.3735,-2.4748,-2.5225,-2.5615,-2.6182,-2.6686,-2.7124,-2.7353,-2.7637,-2.7881,-2.7902,-2.8228,-2.8579,-2.8898,-2.9154,-2.9404,-2.9717,-2.9863,-2.9941,-2.9941,-3.0225,-3.0547,-3.0879,-3.0889,-3.0889,-3.0889,-3.0889,-3.0889,-3.0889,-3.0889,-3.0889,-3.0889,-3.0889,-3.0889,-3.0889,-3.0889,-3.0889,-3.0889,-3.0889,-3.0889,-3.0889,-3.0889,-3.0889,-3.0889,-3.0889,-3.0889,-3.0889,-3.0889,-3.0889,-3.0889,-3.0889,-3.0889,-3.0889,-3.0889,-3.0889,-3.0889,-3.0889,-3.0889,-3.0889,-3.0889,-3.0889,-3.0889,-3.0889,-3.0889,-3.0889,-3.0889,-3.0889,-3.0889,-3.0889,-3.0889,-3.0889,-3.0889,-3.0889,-3.0889,-3.0889,-3.0889,-3.0889,-3.0889,-3.083,-3.0762,-3.0762,-3.046,-3.0447,-3.0818,-3.0771,-3.0836,-3.1147,-3.1093,-3.1092,-3.1336,-3.1083,-3.1084,-3.1368,-3.1377,-3.1377,-3.1377,-3.0576,-2.9917,-2.9265,-2.7784,-2.7652,0.0,0.0,0.0,-2.1348,0.0,0.0,-2.2524,-2.2482,-2.2315,-2.2951,-2.3191,-2.3472,-2.4023,-2.4502,-2.4941,-2.5381,-2.5879,-2.6387,-2.6943,-2.7236,-2.7393,-2.7393,-2.7773,-2.8125,-2.8369,-2.8711,-2.9023,-2.9277,-2.9473,-2.9626,-2.9626,-2.9971,-3.0322,-3.0596,-3.0791,-3.0889,-3.0889,-3.0889,-3.0889,-3.0889,-3.0889,-3.0889,-3.0889,-3.0889,-3.0889,-3.0889,-3.0889,-3.0889,-3.0889,-3.0889,-3.0889,-3.0889,-3.0889,-3.0889,-3.0889,-3.0889,-3.0889,-3.0889,-3.0889,-3.0889,-3.0889,-3.0889,-3.0889,-3.0889,-3.0889,-3.0889,-3.0889,-3.0889,-3.0889,-3.0889,-3.0889,-3.0889,-3.0889,-3.0889,-3.0889,-3.0889,-3.0889,-3.0889,-3.0889,-3.0889,-3.0889,-3.0889,-3.0889,-3.0889,-3.0889,-3.0889,-3.0889,-3.0889,-3.0889,-3.0889,-3.0889,-3.0889,-3.0704,-3.0683,-3.0945,-3.093,-3.0952,-3.1028,-3.1086,-3.1039,-3.1043,-3.1032,-3.0954,-3.0882,-3.1047,-3.113,-3.113,-3.1295,-3.0982,-3.0195,-2.9313,-2.9378,-2.1694,-2.1334,0.0,0.0,-2.2883,0.0,-2.334,-2.2531,-2.168,-2.241,-2.2767,-2.3163,-2.3697,-2.4063,-2.4496,-2.5023,-2.508,-2.5487,-2.6699,-2.6914,-2.6943,-2.6943,-2.7334,-2.7598,-2.7598,-2.831,-2.8779,-2.8779,-2.918,-2.9509,-2.9492,-2.9853,-3.0098,-3.0195,-3.0596,-3.084,-3.0889,-3.0889,-3.0889,-3.0889,-3.0889,-3.0889,-3.0889,-3.0889,-3.0889,-3.0898,-3.1064,-3.1005,-3.0889,-3.1054,-3.1005,-3.0889,-3.0889,-3.0889,-3.0889,-3.0889,-3.0889,-3.0889,-3.0889,-3.0889,-3.0889,-3.0889,-3.0889,-3.0889,-3.0889,-3.0889,-3.0889,-3.0889,-3.0889,-3.0889,-3.0889,-3.0889,-3.0889,-3.0889,-3.0889,-3.0889,-3.0889,-3.0889,-3.0889,-3.0889,-3.0889,-3.0889,-3.0889,-3.0889,-3.0889,-3.0889,-3.0889,-3.0889,-3.0889,-3.0889,-3.0889,-3.0889,-3.0889,-3.0889,-3.0889,-3.123,-3.1326,-3.1038,-3.1315,-3.1241,-3.0676,-3.0978,-3.0837,-3.0204,-3.0543,-3.0745,-3.0791,-3.1185,-3.1377,-3.1377,-3.1377,-3.1377,-2.2907,-2.2991,-2.3317,-2.3919,0.0,0.0,-2.3768,-2.3452,-2.319,-2.2827,-2.2506,-2.2629,-2.374,-2.3786,-2.4054,-2.5173,-2.5013,-2.5061,-2.585,-2.6289,-2.6514,-2.6514,-2.6885,-2.7139,-2.7139,-2.7607,-2.791,-2.791,-2.8301,-2.8691,-2.9023,-2.9121,-2.9482,-3.0176,-3.0283,-3.0518,-3.0889,-3.0889,-3.0889,-3.0889,-3.0889,-3.0889,-3.0889,-3.0889,-3.0889,-3.0947,-3.1903,-3.1787,-3.1005,-3.196,-3.1797,-3.0889,-3.0889,-3.0889,-3.0889,-3.0889,-3.0889,-3.0889,-3.0889,-3.0889,-3.0889,-3.0889,-3.0889,-3.0889,-3.0889,-3.0889,-3.0889,-3.0889,-3.0889,-3.0889,-3.0889,-3.0889,-3.0889,-3.0889,-3.0889,-3.0889,-3.0889,-3.0889,-3.0889,-3.0889,-3.0889,-3.0889,-3.0889,-3.0889,-3.0889,-3.0889,-3.0889,-3.0889,-3.0889,-3.0889,-3.0889,-3.0889,-3.0889,-3.0889,-3.0889,-3.0967,-3.1016,-3.0898,-3.0721,-3.0608,-3.0521,-3.0391,-3.0324,-3.0195,-3.0277,-3.047,-3.0791,-3.1185,-3.1377,-3.1377,-3.1377,-3.1377,-2.4242,-2.4209,-2.4542,-2.5531,0.0,0.0,0.0,-2.4333,-2.3904,-2.3612,-2.3086,-2.2981,-2.3924,-2.3892,-2.4013,-2.4856,-2.4809,-2.4927,-2.5771,-2.5972,-2.6064,-2.6064,-2.6445,-2.6699,-2.6699,-2.709,-2.7344,-2.7344,-2.7734,-2.8066,-2.8281,-2.8691,-2.9111,-2.9551,-2.9775,-3.0098,-3.0537,-3.0547,-3.0664,-3.0889,-3.0889,-3.0889,-3.0889,-3.1508,-3.1787,-3.1845,-3.3073,-3.2903,-3.1845,-3.2467,-3.2018,-3.0889,-3.0889,-3.0889,-3.0889,-3.0889,-3.0889,-3.0889,-3.0889,-3.0889,-3.0889,-3.0889,-3.0889,-3.0889,-3.0889,-3.0889,-3.0889,-3.0889,-3.0889,-3.0889,-3.0889,-3.0889,-3.0889,-3.0889,-3.0889,-3.0889,-3.0889,-3.0889,-3.0889,-3.0889,-3.0889,-3.0889,-3.0889,-3.0889,-3.0889,-3.0889,-3.0889,-3.0889,-3.0889,-3.0889,-3.0889,-3.0889,-3.0889,-3.0889,-3.0889,-3.0889,-3.0889,-3.0889,-3.0762,-3.0605,-3.0453,-3.0373,-3.0167,-2.9883,-2.9883,-2.9984,-3.0185,-3.0791,-3.1185,-3.1377,-3.1377,-3.1377,0.0,0.0,0.0,0.0,0.0,-2.6133,0.0,0.0,0.0,-2.4449,-2.3988,-2.3779,-2.4365,-2.4192,-2.4157,-2.4857,-2.4734,-2.493,-2.5984,-2.5939,-2.5814,-2.5942,-2.5975,-2.6133,-2.6409,-2.6725,-2.694,-2.7002,-2.7383,-2.7651,-2.7708,-2.831,-2.875,-2.8916,-2.9258,-2.9648,-3.0068,-3.0078,-3.0303,-3.0762,-3.0984,-3.1139,-3.1286,-3.2457,-3.3016,-3.3073,-3.4235,-3.3955,-3.2742,-3.296,-3.2342,-3.1228,-3.1005,-3.0889,-3.0889,-3.0889,-3.0889,-3.0889,-3.0889,-3.0889,-3.0889,-3.0889,-3.0889,-3.0889,-3.0889,-3.0889,-3.0889,-3.0889,-3.0889,-3.0889,-3.0889,-3.0889,-3.0889,-3.0889,-3.0889,-3.0889,-3.0889,-3.0889,-3.0889,-3.0889,-3.0889,-3.0889,-3.0889,-3.0889,-3.0889,-3.0889,-3.0889,-3.0889,-3.0889,-3.0889,-3.0889,-3.0889,-3.0889,-3.0889,-3.0889,-3.0889,-3.0889,-3.0889,-3.0889,-3.0762,-3.0382,-3.0353,-3.0054,-2.9582,-2.9522,-2.9498,-2.9571,-3.0231,-3.08,-3.1267,-3.1341,-3.1377,0.0,0.0,0.0,0.0,-2.8066,0.0,0.0,0.0,-2.5943,-2.4963,0.0,-2.4818,-2.5326,0.0,0.0,-2.599,-2.5195,-2.4772,-2.6085,-2.6132,-2.6224,-2.6693,-2.5511,-2.5149,-2.6537,-2.662,-2.6688,-2.6975,-2.7149,-2.7388,-2.7702,-2.7806,-2.8144,-2.8896,-2.8965,-2.9199,-2.9639,-2.9695,-2.9853,-3.0273,-3.1369,-3.2102,-3.2514,-3.3674,-3.4224,-3.428,-3.5454,-3.4736,-3.2799,-3.3786,-3.3505,-3.241,-3.1344,-3.0889,-3.0889,-3.0889,-3.0889,-3.0889,-3.0889,-3.0889,-3.0889,-3.0889,-3.0889,-3.0889,-3.0889,-3.0889,-3.0889,-3.0889,-3.0889,-3.0889,-3.0889,-3.0889,-3.0889,-3.0889,-3.0889,-3.0889,-3.0889,-3.0889,-3.0889,-3.0889,-3.0889,-3.0889,-3.0889,-3.0889,-3.0889,-3.0889,-3.0889,-3.0889,-3.0889,-3.0889,-3.0889,-3.0889,-3.0889,-3.0889,-3.0889,-3.0889,-3.0889,-3.0889,-3.0889,-3.0762,-3.0382,-2.9901,-2.9574,-2.9515,-2.9227,-2.9223,-2.9571,-2.9663,-3.0103,-3.0864,-3.1212,-3.1377,0.0,0.0,0.0,0.0,0.0,0.0,-2.7012,0.0,-2.6735,0.0,0.0,0.0,0.0,0.0,0.0,0.0,-2.5181,-2.4917,-2.5776,-2.5315,-2.5285,-2.6296,-2.5798,-2.5509,-2.5868,-2.582,-2.5773,-2.5737,-2.6513,-2.7226,-2.7596,-2.78,-2.8232,-2.8981,-2.873,-2.876,-2.9189,-2.9189,-2.9901,-3.1242,-3.1783,-3.2591,-3.373,-3.4902,-3.5454,-3.5509,-3.6719,-3.6286,-3.4792,-3.5234,-3.4346,-3.2742,-3.2846,-3.2504,-3.1845,-3.117,-3.0889,-3.0889,-3.0889,-3.0889,-3.0889,-3.0889,-3.0889,-3.0889,-3.0889,-3.0889,-3.0889,-3.0889,-3.0889,-3.0889,-3.0889,-3.0889,-3.0889,-3.0889,-3.0889,-3.0889,-3.0889,-3.0889,-3.0889,-3.0889,-3.0889,-3.0889,-3.0889,-3.0889,-3.0889,-3.0889,-3.0889,-3.0889,-3.0889,-3.0889,-3.0889,-3.0889,-3.0889,-3.0889,-3.0889,-3.0889,-3.0889,-3.0889,-3.0889,-3.0762,-3.0382,-3.0157,-2.9853,-2.9509,-2.939,-2.9296,-2.9232,-2.9461,-2.9745,-3.0094,-3.0736,-3.1157,-2.9413,0.0,0.0,0.0,0.0,0.0,0.0,0.0,0.0,0.0,0.0,0.0,0.0,0.0,0.0,0.0,0.0,-2.5204,-2.5549,-2.4944,-2.4889,-2.605,-2.6324,-2.6105,-2.5381,-2.5477,-2.5411,-2.5052,-2.5999,-2.6913,-2.7631,-2.795,-2.8554,-2.9635,-2.9341,-2.9209,-2.9154,-2.9164,-3.0011,-3.1633,-3.1963,-3.2919,-3.4482,-3.5699,-3.6259,-3.6312,-3.7328,-3.711,-3.5971,-3.612,-3.519,-3.3685,-3.4224,-3.4123,-3.347,-3.195,-3.117,-3.0889,-3.0889,-3.1122,-3.1392,-3.1392,-3.1392,-3.1344,-3.1005,-3.0889,-3.0889,-3.0889,-3.0889,-3.0889,-3.0889,-3.0889,-3.0889,-3.0889,-3.0889,-3.0889,-3.0889,-3.0889,-3.0889,-3.0889,-3.0889,-3.0889,-3.0889,-3.0889,-3.0889,-3.0889,-3.0889,-3.0889,-3.0889,-3.0889,-3.0889,-3.0889,-3.0889,-3.0889,-3.0889,-3.0889,-3.0889,-3.0889,-3.0889,-3.0762,-3.0577,-3.045,-3.0206,-2.9745,-2.9686,-2.9509,-2.9281,-2.9449,-2.9651,-2.9781,-3.0367,-3.0781,0.0,0.0,0.0,-2.9248,0.0,0.0,0.0,0.0,-2.7712,0.0,0.0,0.0,0.0,0.0,0.0,0.0,0.0,0.0,0.0,0.0,0.0,0.0,0.0,-2.6642,-2.5502,-2.5929,-2.6075,-2.5612,-2.5751,-2.6424,-2.7838,-2.8157,-2.9115,-3.0987,-3.1313,-3.0959,-2.989,-2.989,-3.0128,-3.0657,-3.1814,-3.3157,-3.4623,-3.5861,-3.6408,-3.6432,-3.6988,-3.6554,-3.5455,-3.5971,-3.6177,-3.5959,-3.4836,-3.5113,-3.5795,-3.3515,-3.1903,-3.0889,-3.0889,-3.1672,-3.2628,-3.2628,-3.2628,-3.2399,-3.1228,-3.0889,-3.0889,-3.0889,-3.0889,-3.0889,-3.0889,-3.0889,-3.0889,-3.0889,-3.0889,-3.0889,-3.0889,-3.0889,-3.0889,-3.0889,-3.0889,-3.0889,-3.0889,-3.0889,-3.0889,-3.0889,-3.0889,-3.0889,-3.0889,-3.0889,-3.0889,-3.0889,-3.0889,-3.0889,-3.0889,-3.0889,-3.0889,-3.0889,-3.0889,-3.0889,-3.0889,-3.0577,-3.0392,-3.0392,-3.0039,-2.9863,-2.9863,-2.9636,-2.9683,-3.0093,-3.0153,-3.0231,0.0,0.0,-3.0654,-2.958,0.0,0.0,0.0,0.0,0.0,0.0,0.0,0.0,0.0,0.0,0.0,0.0,0.0,0.0,0.0,0.0,0.0,0.0,0.0,-2.5446,-2.5052,-2.5513,-2.5665,-2.5315,-2.664,-2.7964,-2.9102,-2.9495,-3.0329,-3.1663,-3.1428,-3.1186,-3.1051,-3.1011,-3.165,-3.2857,-3.327,-3.4274,-3.5813,-3.6183,-3.6411,-3.6411,-3.6591,-3.6458,-3.6121,-3.6642,-3.6367,-3.5738,-3.646,-3.6057,-3.4836,-3.3289,-3.2457,-3.2076,-3.2076,-3.2352,-3.2685,-3.2685,-3.218,-3.145,-3.1005,-3.0889,-3.0889,-3.0889,-3.0889,-3.0889,-3.0889,-3.0889,-3.0889,-3.0889,-3.0889,-3.0889,-3.0889,-3.0889,-3.0889,-3.0889,-3.0889,-3.0889,-3.0889,-3.0889,-3.0889,-3.0889,-3.0889,-3.0889,-3.0889,-3.0889,-3.0889,-3.0889,-3.0889,-3.0889,-3.0889,-3.0889,-3.0889,-3.0889,-3.0889,-3.0889,-3.0889,-3.0762,-3.0635,-3.0382,-3.0274,-3.0098,-2.9922,-2.9804,-2.9761,-2.9724,-2.9923,-3.0046,-3.0863,-3.0911,0.0,-2.9936,-2.9632,0.0,-2.843,0.0,0.0,0.0,0.0,0.0,0.0,0.0,0.0,0.0,0.0,0.0,0.0,-2.4827,0.0,0.0,0.0,0.0,0.0,-2.5632,-2.5732,-2.5697,-2.681,-2.8211,-2.981,-3.0246,-3.1065,-3.2484,-3.2448,-3.2324,-3.2157,-3.2247,-3.2847,-3.3834,-3.3733,-3.4474,-3.5845,-3.5845,-3.5845,-3.5857,-3.6038,-3.6122,-3.6182,-3.6904,-3.6752,-3.6145,-3.7493,-3.7042,-3.5553,-3.4346,-3.3685,-3.3346,-3.3797,-3.3966,-3.3853,-3.3459,-3.2789,-3.2008,-3.117,-3.0889,-3.0889,-3.0889,-3.0889,-3.0889,-3.0889,-3.0889,-3.0889,-3.0889,-3.0889,-3.0889,-3.0889,-3.0889,-3.0889,-3.0889,-3.0889,-3.0889,-3.0889,-3.0889,-3.0889,-3.0889,-3.0889,-3.0889,-3.0889,-3.0889,-3.0889,-3.0889,-3.0889,-3.0889,-3.0889,-3.0889,-3.0889,-3.0889,-3.0889,-3.0889,-3.0889,-3.0889,-3.082,-3.0577,-3.0577,-3.046,-3.0284,-3.0157,-2.9981,-2.9795,-2.9863,-2.9977]},{"header":{"parameterUnit":"m.s-1","parameterCategory":1,"la1":30.6,"la2":29.2853,"lo1":-89.7004,"lo2":-87.6739,"dy":0.0162,"dx":0.0183,"nx":112,"ny":82,"refTime":"2024-09-01T00:00:00:Z","depth":0,"parameterNumber":3,"parameterNumberName":"V-component_of_WINDS"},"data":[0.0,0.0,0.0,0.0,0.0,0.0,0.0,0.0,0.0,0.0,0.0,0.0,0.0,0.0,0.0,0.0,0.0,0.0,0.0,0.0,0.0,0.0,0.0,0.0,0.0,0.0,0.0,0.0,0.0,0.0,0.0,0.0,0.0,0.0,0.0,0.0,0.0,0.0,0.0,0.0,0.0,0.0,0.0,0.0,0.0,0.0,0.0,0.0,0.0,0.0,0.0,0.0,0.0,0.0,0.0,0.0,0.0,0.0,0.0,0.0,0.0,0.0,0.0,0.0,0.0,0.0,0.0,0.0,0.0,0.0,0.0,0.0,0.0,0.0,0.0,0.0,0.0,0.0,0.0,0.0,0.0,0.0,0.0,0.0,0.0,0.0,0.0,0.0,0.0,0.0,5.178,5.4319,5.8667,6.109,6.0337,5.9811,5.6805,5.048,0.0,0.0,0.0,0.0,0.0,0.0,0.0,0.0,0.0,0.0,0.0,0.0,0.0,0.0,0.0,0.0,0.0,0.0,0.0,0.0,0.0,0.0,0.0,0.0,0.0,0.0,0.0,0.0,0.0,0.0,0.0,0.0,0.0,0.0,0.0,0.0,0.0,0.0,0.0,0.0,0.0,0.0,0.0,0.0,0.0,0.0,0.0,0.0,0.0,0.0,0.0,0.0,0.0,0.0,0.0,0.0,0.0,0.0,0.0,0.0,0.0,0.0,0.0,0.0,0.0,0.0,0.0,0.0,0.0,0.0,0.0,0.0,0.0,0.0,0.0,0.0,0.0,0.0,0.0,0.0,0.0,0.0,0.0,0.0,0.0,0.0,0.0,0.0,0.0,0.0,0.0,0.0,0.0,0.0,0.0,0.0,0.0,0.0,0.0,0.0,0.0,0.0,0.0,0.0,5.1466,5.7481,6.01,6.1304,6.1046,5.8975,5.6012,5.2066,0.0,0.0,0.0,0.0,0.0,0.0,0.0,0.0,0.0,0.0,0.0,0.0,0.0,0.0,0.0,0.0,0.0,0.0,0.0,0.0,0.0,0.0,0.0,0.0,0.0,0.0,0.0,0.0,0.0,0.0,0.0,0.0,0.0,0.0,0.0,0.0,0.0,0.0,0.0,0.0,0.0,0.0,0.0,0.0,0.0,0.0,0.0,0.0,0.0,0.0,0.0,0.0,0.0,0.0,0.0,0.0,0.0,0.0,0.0,0.0,0.0,0.0,0.0,0.0,0.0,0.0,0.0,0.0,0.0,0.0,0.0,0.0,0.0,0.0,0.0,0.0,0.0,0.0,0.0,0.0,0.0,0.0,0.0,0.0,0.0,0.0,0.0,0.0,0.0,0.0,0.0,0.0,0.0,0.0,0.0,0.0,0.0,0.0,0.0,0.0,0.0,0.0,0.0,5.0602,5.3813,5.9689,6.0955,6.1355,6.1205,5.9237,5.6147,5.1776,4.8662,0.0,0.0,0.0,0.0,0.0,0.0,0.0,0.0,0.0,0.0,0.0,0.0,0.0,0.0,0.0,0.0,0.0,0.0,0.0,0.0,0.0,0.0,0.0,0.0,0.0,0.0,0.0,0.0,0.0,0.0,0.0,0.0,0.0,0.0,0.0,0.0,0.0,0.0,0.0,0.0,0.0,0.0,0.0,0.0,0.0,0.0,0.0,0.0,0.0,0.0,0.0,0.0,0.0,0.0,0.0,0.0,0.0,0.0,0.0,0.0,0.0,0.0,0.0,0.0,0.0,0.0,0.0,0.0,0.0,0.0,0.0,0.0,0.0,0.0,0.0,0.0,0.0,0.0,0.0,0.0,0.0,0.0,0.0,0.0,0.0,0.0,0.0,0.0,0.0,0.0,0.0,0.0,0.0,0.0,0.0,0.0,0.0,0.0,0.0,0.0,0.0,0.0,5.456,5.6536,6.1026,6.1431,6.1345,6.1225,5.9069,5.576,5.1188,4.7134,0.0,0.0,0.0,0.0,0.0,0.0,0.0,0.0,0.0,0.0,0.0,0.0,0.0,0.0,0.0,0.0,0.0,0.0,0.0,0.0,0.0,0.0,0.0,0.0,0.0,0.0,0.0,0.0,0.0,0.0,0.0,0.0,0.0,0.0,0.0,0.0,0.0,0.0,0.0,0.0,0.0,0.0,0.0,0.0,0.0,0.0,0.0,0.0,0.0,0.0,0.0,0.0,0.0,0.0,0.0,0.0,0.0,0.0,0.0,0.0,0.0,0.0,0.0,0.0,0.0,0.0,0.0,0.0,0.0,0.0,0.0,0.0,0.0,0.0,0.0,0.0,0.0,0.0,0.0,0.0,0.0,0.0,0.0,0.0,0.0,0.0,0.0,0.0,0.0,0.0,0.0,0.0,0.0,0.0,0.0,0.0,0.0,0.0,0.0,0.0,0.0,0.0,5.5041,5.8542,6.1213,6.1436,6.1372,6.1305,5.7478,5.3865,5.1072,4.5471,0.0,0.0,0.0,0.0,0.0,0.0,0.0,0.0,0.0,0.0,0.0,0.0,0.0,0.0,0.0,0.0,0.0,0.0,0.0,0.0,0.0,0.0,0.0,0.0,0.0,0.0,0.0,0.0,0.0,0.0,0.0,0.0,0.0,0.0,0.0,0.0,0.0,0.0,0.0,0.0,0.0,0.0,0.0,0.0,0.0,0.0,0.0,0.0,0.0,0.0,0.0,0.0,0.0,0.0,0.0,0.0,0.0,0.0,0.0,0.0,0.0,0.0,0.0,0.0,0.0,0.0,0.0,0.0,0.0,0.0,0.0,0.0,0.0,0.0,0.0,0.0,0.0,0.0,0.0,0.0,0.0,0.0,0.0,0.0,0.0,0.0,0.0,0.0,0.0,0.0,0.0,0.0,0.0,0.0,0.0,0.0,0.0,0.0,0.0,0.0,0.0,0.0,5.4218,5.7617,0.0,6.1543,6.1487,6.1364,5.8363,5.4691,5.0474,0.0,0.0,0.0,0.0,0.0,0.0,0.0,0.0,0.0,0.0,0.0,0.0,0.0,0.0,0.0,0.0,0.0,0.0,0.0,0.0,0.0,0.0,0.0,0.0,0.0,0.0,0.0,0.0,0.0,0.0,0.0,0.0,0.0,0.0,0.0,0.0,0.0,0.0,0.0,0.0,0.0,0.0,0.0,0.0,0.0,0.0,0.0,0.0,0.0,0.0,0.0,0.0,0.0,0.0,0.0,0.0,0.0,0.0,0.0,0.0,0.0,0.0,0.0,0.0,0.0,0.0,0.0,0.0,0.0,0.0,0.0,0.0,0.0,0.0,0.0,0.0,0.0,0.0,0.0,0.0,0.0,0.0,0.0,0.0,0.0,0.0,0.0,0.0,0.0,0.0,0.0,0.0,0.0,0.0,0.0,0.0,0.0,0.0,0.0,0.0,0.0,0.0,5.0759,5.4394,5.7828,0.0,6.16,6.1449,6.1074,5.8154,5.4333,4.9683,0.0,0.0,0.0,0.0,0.0,0.0,0.0,0.0,0.0,0.0,0.0,0.0,0.0,0.0,0.0,0.0,0.0,0.0,0.0,0.0,0.0,0.0,0.0,0.0,0.0,0.0,0.0,0.0,0.0,0.0,0.0,0.0,0.0,0.0,0.0,0.0,0.0,0.0,0.0,0.0,0.0,0.0,0.0,0.0,0.0,0.0,0.0,0.0,0.0,0.0,0.0,0.0,0.0,0.0,0.0,0.0,0.0,0.0,0.0,0.0,0.0,0.0,0.0,0.0,0.0,0.0,0.0,0.0,0.0,0.0,0.0,0.0,0.0,0.0,0.0,0.0,0.0,0.0,0.0,0.0,0.0,0.0,0.0,0.0,0.0,0.0,0.0,0.0,0.0,0.0,0.0,0.0,0.0,0.0,0.0,0.0,0.0,0.0,0.0,0.0,0.0,0.0,5.1052,5.5918,5.9776,6.1508,6.1638,6.1248,6.0388,5.6311,5.2294,0.0,0.0,0.0,0.0,0.0,0.0,0.0,0.0,0.0,0.0,0.0,0.0,0.0,0.0,0.0,0.0,0.0,0.0,0.0,0.0,0.0,0.0,0.0,0.0,0.0,0.0,0.0,0.0,0.0,0.0,0.0,0.0,0.0,0.0,0.0,0.0,0.0,0.0,0.0,0.0,0.0,0.0,0.0,0.0,0.0,0.0,0.0,0.0,0.0,0.0,0.0,0.0,0.0,0.0,0.0,0.0,0.0,0.0,0.0,0.0,0.0,0.0,0.0,0.0,0.0,0.0,0.0,0.0,0.0,0.0,0.0,0.0,0.0,0.0,0.0,0.0,0.0,0.0,0.0,0.0,0.0,0.0,0.0,0.0,0.0,0.0,0.0,0.0,0.0,0.0,0.0,0.0,0.0,0.0,0.0,0.0,0.0,0.0,0.0,0.0,0.0,0.0,0.0,5.0975,5.5912,5.9777,6.1505,6.1681,6.132,6.0442,5.7459,5.3368,4.8053,0.0,0.0,0.0,0.0,0.0,0.0,0.0,0.0,0.0,0.0,0.0,0.0,0.0,0.0,0.0,0.0,0.0,0.0,0.0,0.0,0.0,0.0,0.0,0.0,0.0,0.0,0.0,0.0,0.0,0.0,0.0,0.0,0.0,0.0,0.0,0.0,0.0,0.0,0.0,0.0,0.0,0.0,0.0,0.0,0.0,0.0,0.0,0.0,0.0,0.0,0.0,0.0,0.0,0.0,0.0,0.0,0.0,0.0,0.0,0.0,0.0,0.0,0.0,0.0,0.0,0.0,0.0,0.0,0.0,0.0,0.0,0.0,0.0,0.0,0.0,0.0,0.0,0.0,0.0,0.0,0.0,0.0,0.0,0.0,0.0,0.0,0.0,0.0,0.0,0.0,0.0,0.0,0.0,0.0,0.0,0.0,0.0,0.0,0.0,0.0,0.0,0.0,5.1426,5.6118,5.9766,6.1503,6.1707,6.1204,5.9991,5.7788,5.4042,4.8327,0.0,0.0,0.0,0.0,0.0,0.0,0.0,0.0,0.0,0.0,0.0,0.0,0.0,0.0,0.0,0.0,0.0,0.0,0.0,0.0,0.0,0.0,0.0,0.0,0.0,0.0,0.0,0.0,0.0,0.0,0.0,0.0,0.0,0.0,0.0,0.0,0.0,0.0,0.0,0.0,0.0,0.0,0.0,0.0,0.0,0.0,0.0,0.0,0.0,0.0,0.0,0.0,0.0,0.0,0.0,0.0,0.0,0.0,0.0,0.0,0.0,0.0,0.0,0.0,0.0,0.0,0.0,0.0,0.0,0.0,0.0,0.0,0.0,0.0,0.0,0.0,0.0,0.0,0.0,0.0,0.0,0.0,0.0,0.0,0.0,0.0,0.0,0.0,0.0,0.0,0.0,0.0,0.0,0.0,0.0,0.0,0.0,0.0,0.0,0.0,0.0,0.0,5.2163,5.6522,5.9863,6.1522,6.1698,6.1035,5.9356,5.7688,5.4519,4.9355,0.0,0.0,0.0,0.0,0.0,0.0,0.0,0.0,0.0,0.0,0.0,0.0,0.0,0.0,0.0,0.0,0.0,0.0,0.0,0.0,0.0,0.0,0.0,0.0,0.0,0.0,0.0,0.0,0.0,0.0,0.0,0.0,0.0,0.0,0.0,0.0,0.0,0.0,0.0,0.0,0.0,0.0,0.0,0.0,0.0,0.0,0.0,0.0,0.0,0.0,0.0,0.0,0.0,0.0,0.0,0.0,0.0,0.0,0.0,0.0,3.8654,0.0,0.0,0.0,0.0,0.0,0.0,0.0,0.0,0.0,0.0,0.0,0.0,0.0,0.0,0.0,0.0,0.0,0.0,0.0,0.0,0.0,0.0,0.0,0.0,0.0,0.0,0.0,0.0,0.0,0.0,0.0,0.0,0.0,0.0,0.0,0.0,0.0,0.0,0.0,0.0,0.0,5.232,5.7049,6.0529,6.1581,6.1698,6.1271,6.0217,5.8541,5.5607,5.1054,4.7597,0.0,0.0,0.0,0.0,0.0,0.0,0.0,0.0,0.0,0.0,0.0,0.0,0.0,0.0,0.0,0.0,0.0,0.0,0.0,0.0,0.0,0.0,0.0,0.0,0.0,0.0,0.0,0.0,0.0,0.0,0.0,0.0,0.0,0.0,0.0,0.0,0.0,0.0,0.0,0.0,0.0,0.0,0.0,0.0,0.0,0.0,0.0,0.0,0.0,0.0,0.0,0.0,0.0,0.0,0.0,0.0,0.0,0.0,0.0,0.0,4.1597,0.0,0.0,0.0,0.0,0.0,0.0,0.0,0.0,0.0,0.0,0.0,0.0,0.0,0.0,0.0,0.0,0.0,0.0,0.0,0.0,0.0,0.0,0.0,0.0,0.0,0.0,0.0,0.0,0.0,0.0,0.0,0.0,0.0,0.0,0.0,0.0,0.0,0.0,0.0,0.0,5.2935,5.7473,6.0725,6.1601,6.1698,6.1349,6.0471,5.8792,5.6497,5.3427,4.9621,0.0,0.0,0.0,0.0,0.0,0.0,0.0,0.0,0.0,0.0,0.0,0.0,0.0,0.0,0.0,0.0,0.0,0.0,0.0,0.0,0.0,0.0,0.0,0.0,0.0,0.0,0.0,0.0,0.0,0.0,0.0,0.0,0.0,0.0,0.0,0.0,0.0,0.0,0.0,0.0,0.0,0.0,0.0,0.0,0.0,0.0,0.0,0.0,0.0,0.0,0.0,0.0,0.0,4.9278,5.0306,5.2207,5.1619,5.2117,5.3269,4.9759,4.8158,4.7784,4.5327,0.0,0.0,0.0,0.0,0.0,0.0,0.0,0.0,0.0,0.0,0.0,0.0,0.0,0.0,0.0,0.0,0.0,0.0,0.0,0.0,0.0,0.0,0.0,0.0,5.1033,5.0892,0.0,0.0,0.0,0.0,0.0,0.0,0.0,0.0,0.0,0.0,0.0,0.0,5.3817,5.7972,6.09,6.162,6.1698,6.1408,6.0686,5.9026,5.7367,5.5825,5.1935,4.8622,0.0,0.0,0.0,0.0,0.0,0.0,0.0,0.0,0.0,0.0,0.0,0.0,0.0,0.0,0.0,0.0,0.0,0.0,0.0,0.0,0.0,0.0,0.0,0.0,0.0,0.0,0.0,0.0,0.0,0.0,0.0,0.0,3.5299,3.7118,0.0,0.0,0.0,0.0,0.0,0.0,0.0,0.0,0.0,0.0,0.0,0.0,0.0,4.8154,4.9851,5.225,5.323,5.2867,5.5739,5.6959,5.6686,5.7269,5.772,5.8009,5.7448,0.0,5.0544,4.875,0.0,0.0,0.0,0.0,0.0,0.0,0.0,0.0,0.0,0.0,0.0,0.0,0.0,0.0,0.0,0.0,0.0,0.0,0.0,0.0,0.0,0.0,5.4912,5.3627,5.464,5.5499,0.0,5.0212,4.6815,4.5583,4.3669,0.0,0.0,0.0,0.0,0.0,0.0,0.0,5.4873,5.887,6.1562,6.1698,6.1698,6.164,6.1542,5.9924,5.8519,5.7523,5.4851,5.2491,5.0637,4.7494,0.0,0.0,0.0,0.0,0.0,0.0,0.0,0.0,0.0,0.0,0.0,0.0,0.0,0.0,0.0,0.0,0.0,0.0,0.0,0.0,0.0,0.0,0.0,0.0,0.0,0.0,0.0,0.0,0.0,3.5446,3.8244,3.8978,3.9248,3.9003,0.0,0.0,0.0,0.0,0.0,0.0,0.0,0.0,0.0,5.0327,5.1693,5.3041,5.4396,5.6073,5.6998,5.7171,5.8758,5.9561,5.9691,6.0061,6.0243,6.0311,6.0382,5.8855,5.6117,5.3409,5.1355,4.9689,0.0,0.0,0.0,0.0,4.8002,4.8905,4.9961,5.0507,5.037,4.8177,0.0,0.0,0.0,0.0,0.0,0.0,0.0,0.0,0.0,0.0,5.6762,5.7445,5.8187,5.8636,5.8246,5.5977,5.3196,0.0,4.9355,4.8144,4.5683,0.0,0.0,0.0,0.0,5.4783,5.6491,5.9631,6.1698,6.1698,6.1698,6.1698,6.1698,6.0098,5.8948,5.8558,5.6138,5.4166,5.2917,5.0477,4.7725,0.0,0.0,0.0,0.0,0.0,0.0,0.0,0.0,0.0,0.0,0.0,0.0,0.0,0.0,0.0,0.0,0.0,0.0,0.0,0.0,0.0,0.0,0.0,0.0,0.0,0.0,0.0,0.0,3.8546,4.0855,4.0821,4.1802,4.1742,0.0,0.0,0.0,0.0,0.0,0.0,4.826,5.0029,5.2098,5.4573,5.6106,5.7338,5.8305,5.9036,5.973,6.0372,6.0463,6.0846,6.1448,6.1448,6.146,6.1481,6.1571,6.1256,6.0419,5.7395,5.5489,5.4277,5.2176,5.1615,5.2006,5.2264,5.293,5.3964,5.5871,5.6239,5.5554,5.3645,5.2312,5.0965,4.8408,0.0,0.0,0.0,0.0,5.3229,5.5376,5.6743,5.805,5.9944,6.0568,6.0725,6.0725,6.0217,5.8621,0.0,5.4189,5.329,5.005,0.0,0.0,0.0,0.0,5.6469,5.7933,6.0217,6.1698,6.1698,6.1698,6.1698,6.1698,6.0098,5.9102,5.9102,5.6918,5.5337,5.4693,5.2995,5.0653,4.7666,0.0,0.0,0.0,0.0,0.0,0.0,0.0,0.0,0.0,0.0,0.0,0.0,0.0,0.0,0.0,0.0,0.0,0.0,0.0,0.0,0.0,0.0,0.0,0.0,0.0,0.0,0.0,0.0,0.0,4.3335,4.489,0.0,0.0,0.0,0.0,4.6311,4.8692,5.0942,5.2877,5.4564,5.6348,5.8266,5.9285,6.0201,6.1082,6.1215,6.1286,6.1325,6.133,6.1421,6.1581,6.1581,6.1623,6.1699,6.1699,6.1678,6.1483,5.9726,5.7949,5.6286,5.5371,5.4512,5.3867,5.4705,5.5593,5.6413,5.655,5.7077,5.7643,5.7523,5.6372,5.5005,5.483,5.37,0.0,0.0,5.4986,5.6547,5.7445,5.8948,6.0237,6.0373,6.1037,6.162,6.162,6.1601,6.0764,0.0,5.6296,5.5164,5.4949,0.0,5.4012,5.4851,5.6508,5.7992,5.8929,6.0586,6.1698,6.1698,6.1698,6.1698,6.1698,6.0098,5.9102,5.9102,5.7484,5.6508,5.6469,5.481,5.3014,5.118,4.7861,0.0,0.0,0.0,0.0,0.0,0.0,0.0,0.0,0.0,0.0,0.0,0.0,0.0,0.0,0.0,0.0,0.0,0.0,0.0,0.0,0.0,0.0,0.0,0.0,0.0,0.0,0.0,0.0,4.6906,4.8559,0.0,4.7792,4.8735,4.9853,5.0875,5.2801,5.4718,5.6607,5.7852,5.9076,6.029,6.0708,6.1045,6.1356,6.1475,6.1534,6.1534,6.1571,6.1627,6.1656,6.1656,6.1678,6.1699,6.1698,6.1695,6.1654,6.1064,6.042,5.9759,5.8912,5.8713,5.8889,5.8632,5.9113,5.9883,5.9883,5.971,5.9373,5.8724,5.8046,5.7483,5.7483,5.7049,5.6738,5.7614,5.832,5.8962,5.9785,6.0452,6.0919,6.0919,6.1153,6.1387,6.1387,6.1387,6.1095,6.0174,5.9224,5.8226,5.7094,5.7113,5.718,5.6822,5.832,5.9756,6.0551,6.1267,6.1698,6.1698,6.1698,6.1698,6.1698,6.0028,5.8756,5.8233,5.6503,5.5286,5.4814,5.419,5.3097,5.1433,4.9657,4.6612,0.0,0.0,0.0,0.0,0.0,0.0,0.0,0.0,0.0,0.0,0.0,0.0,0.0,0.0,0.0,0.0,0.0,0.0,0.0,0.0,0.0,0.0,0.0,0.0,0.0,4.5887,4.8732,4.9673,5.1849,5.2771,5.1507,5.2721,5.4004,5.5007,5.6377,5.7853,5.9434,6.0378,6.1155,6.1751,6.1861,6.2044,6.2341,6.2152,6.2212,6.2505,6.2557,6.2578,6.2578,6.2265,6.2148,6.2129,6.1834,6.1693,6.1708,6.1697,6.1664,6.1571,6.1052,6.1193,6.162,6.1056,6.118,6.1628,6.1545,6.1144,6.0551,5.9898,5.9625,5.9548,5.9548,5.9548,5.9664,6.0247,6.0402,6.0519,6.105,6.1206,6.1206,6.1206,6.1206,6.1206,6.1206,6.1206,6.1206,6.1206,6.09,6.0305,5.9155,5.9428,5.9611,5.9011,5.9915,6.0863,6.1437,6.1517,6.1534,6.1534,6.1534,6.1417,6.1148,5.9482,5.8208,5.7639,5.5671,5.4299,5.375,5.349,5.2593,5.0962,4.9496,4.7337,4.4423,0.0,0.0,0.0,0.0,0.0,0.0,0.0,0.0,0.0,0.0,0.0,0.0,0.0,0.0,0.0,0.0,0.0,0.0,0.0,0.0,0.0,0.0,0.0,4.6253,5.0063,5.2469,5.1618,5.4707,5.5961,5.3578,5.571,5.7631,5.8595,5.9483,6.0384,6.1283,6.2159,6.2678,6.2747,6.2867,6.3347,6.4186,6.3434,6.3457,6.4297,6.4297,6.4297,6.4277,6.3437,6.3047,6.2988,6.2103,6.1726,6.1725,6.1705,6.1618,6.1495,6.1634,6.1696,6.1674,6.1674,6.1598,6.1452,6.1279,6.1206,6.1179,6.1179,6.1199,6.1192,6.1192,6.1192,6.1192,6.1192,6.1192,6.1192,6.1192,6.1192,6.1192,6.1192,6.1192,6.1192,6.1192,6.1192,6.1192,6.1192,6.1192,6.1199,6.1206,6.1206,6.1253,6.1466,6.131,0.0,6.1466,6.133,6.1193,6.1213,6.1193,6.0882,6.0112,5.8557,5.7555,5.7373,5.5078,5.3687,5.3565,5.2845,5.171,5.0096,4.7568,4.6167,4.5974,0.0,0.0,0.0,0.0,0.0,0.0,0.0,0.0,0.0,0.0,0.0,0.0,0.0,0.0,0.0,0.0,0.0,0.0,0.0,0.0,0.0,4.8239,5.0562,4.9987,5.2558,5.4982,5.6241,5.7819,5.886,5.8906,5.9563,6.0113,6.0383,6.1317,6.1973,6.223,6.3205,6.3771,6.379,6.3873,6.4021,6.4275,6.4042,6.4062,6.4297,6.4297,6.4297,6.4297,6.4042,6.3898,6.3752,6.2886,6.2411,6.222,6.1604,6.1316,6.1298,6.1471,6.1466,6.134,6.134,6.1316,6.1259,6.122,6.1132,6.1044,6.1044,6.0983,6.0902,6.0902,6.0902,6.0902,6.0902,6.0902,6.0902,6.0902,6.0902,6.0902,6.0902,6.0902,6.0902,6.0902,6.0902,6.0902,6.0902,6.0902,6.0964,6.117,6.1206,6.1184,6.1147,6.1162,0.0,6.1147,6.1162,6.1266,6.1401,6.1292,6.1175,6.1089,5.9348,5.7711,5.6459,5.3893,5.2445,5.2515,5.1753,5.1431,5.165,5.0331,4.9002,0.0,0.0,0.0,0.0,0.0,0.0,0.0,0.0,0.0,0.0,0.0,0.0,0.0,0.0,0.0,0.0,0.0,0.0,0.0,0.0,0.0,0.0,5.2245,5.4645,5.4762,5.6089,5.7616,5.9166,5.9868,6.0461,6.1031,6.1152,6.1339,6.1696,6.2295,6.283,6.3249,6.4187,6.4739,6.4773,6.4823,6.5019,6.539,6.5039,6.5039,6.539,6.5329,6.5284,6.5243,6.4867,6.4613,6.4475,6.3599,6.3149,6.2976,6.2106,6.1706,0.0,0.0,0.0,0.0,0.0,6.1128,6.1112,6.1044,6.0974,6.0922,6.0922,6.0856,6.08,6.08,6.08,6.08,6.08,6.08,6.08,6.08,6.08,6.08,6.08,6.08,6.08,6.08,6.08,6.08,6.08,6.08,0.0,6.1011,6.1037,6.1019,6.1002,6.101,6.1019,6.1002,6.101,6.1072,6.1198,6.1098,6.0926,6.0674,5.9301,0.0,0.0,0.0,5.2778,5.2119,5.1304,0.0,0.0,0.0,0.0,0.0,0.0,0.0,0.0,5.1067,5.1379,0.0,0.0,0.0,0.0,0.0,0.0,0.0,0.0,0.0,0.0,0.0,0.0,0.0,0.0,0.0,0.0,5.555,5.7747,5.9526,5.9779,6.0019,6.074,6.0992,6.1108,6.1126,6.1221,6.1666,6.2549,6.276,6.3304,6.4279,0.0,0.0,0.0,0.0,6.6113,6.6894,6.6113,6.6112,6.6874,6.6752,6.6642,6.6564,6.5738,6.531,6.5161,6.4284,6.3906,6.3825,6.296,6.2465,6.2201,6.1441,6.1155,6.114,6.101,6.0983,6.0954,6.0842,0.0,0.0,6.08,6.08,6.08,6.08,6.08,6.08,6.08,6.08,6.08,6.08,6.08,6.08,6.08,6.08,6.08,6.08,6.08,6.08,6.08,6.08,6.08,6.08,6.08,6.0842,6.0954,6.0877,6.0842,6.0964,6.0877,6.0812,6.0827,0.0,0.0,5.9719,5.8972,5.8143,5.7206,5.5779,5.422,5.2578,5.1951,5.2337,5.3778,5.3894,5.4959,5.7003,5.7195,5.7684,5.8338,5.463,5.3693,0.0,0.0,0.0,0.0,0.0,0.0,0.0,0.0,0.0,0.0,0.0,0.0,0.0,0.0,0.0,5.5835,5.7989,5.966,6.0664,6.08,6.0858,6.1012,6.108,6.1143,6.1252,6.1289,6.1687,6.261,6.3448,6.4272,6.5121,6.6086,6.662,6.664,6.664,6.6738,6.6894,6.6629,6.6575,6.6731,0.0,0.0,6.6507,6.6326,6.6118,6.5863,6.4985,6.455,6.4378,6.3499,6.2763,6.2055,6.1214,6.0888,6.0877,6.0853,6.0831,6.0831,6.0823,6.08,6.08,6.08,6.08,6.08,6.08,6.08,0.0,6.08,6.08,6.08,6.08,6.08,6.08,6.08,6.08,6.08,6.08,6.08,6.08,6.08,6.08,6.08,6.08,6.08,6.0823,6.0831,6.0816,6.0804,6.085,6.0816,6.0842,6.0944,6.0856,6.0784,6.0712,5.9847,5.8941,5.8107,5.7101,5.6083,5.5054,5.6199,5.668,5.6305,5.6988,5.7236,5.7003,5.8357,5.9108,5.9223,5.7788,5.7625,0.0,0.0,0.0,0.0,0.0,0.0,0.0,0.0,0.0,0.0,0.0,4.8075,5.0808,0.0,5.5924,5.8143,5.963,6.0652,6.1134,6.12,6.12,6.12,6.12,6.1252,6.1336,6.1817,6.2472,6.3374,6.4347,6.5265,6.6104,6.6639,6.6894,6.6894,6.6832,6.6806,6.6806,6.6675,6.6592,6.6592,6.647,6.6351,6.6295,6.6258,6.6157,6.5981,6.5542,6.5307,6.5186,6.432,6.3455,6.2666,6.2224,6.1531,6.08,6.08,6.08,6.08,6.08,6.08,6.08,6.08,6.08,6.08,6.08,6.08,6.08,6.08,6.08,6.08,6.08,6.08,6.08,6.08,6.08,6.08,6.08,6.08,6.08,6.08,6.08,6.08,6.08,6.08,6.08,6.08,6.08,6.08,6.08,6.08,6.0827,6.089,6.0842,6.0827,6.089,6.0041,5.9338,5.8934,5.8107,5.7473,5.7011,5.7838,5.828,5.8242,5.8684,5.8896,5.8907,5.9742,6.0146,6.0146,6.0185,6.0185,0.0,0.0,0.0,0.0,0.0,0.0,0.0,4.3663,4.5332,4.7803,5.0167,5.251,5.4931,5.6609,5.8192,5.9871,6.071,6.1186,6.1289,6.1311,6.1337,6.1369,6.1344,6.1342,6.1431,6.234,6.3269,6.4158,6.5075,6.5976,6.6855,6.6894,6.6894,6.6854,6.6756,6.6692,6.6658,6.6531,6.6458,6.6445,6.6254,6.6138,6.6079,6.6013,6.5972,6.5897,6.5897,6.5897,6.584,6.5147,6.4339,6.3551,6.3551,6.2627,6.1281,6.1281,6.1185,6.105,6.105,6.0935,6.08,6.08,6.08,6.08,6.08,6.08,6.08,6.08,6.08,6.08,6.08,6.08,6.08,6.08,6.08,6.08,6.08,6.08,6.08,6.08,6.08,6.08,6.08,6.08,6.08,6.08,6.08,6.08,6.08,6.08,6.08,6.08,6.08,6.08,6.08,6.0165,5.9742,5.9742,5.9146,5.88,5.88,5.88,5.9088,5.9742,5.9742,6.0108,6.08,6.08,6.0877,6.1069,6.1774,6.1716,3.8874,3.9245,4.022,4.3482,4.3894,4.5132,0.0,5.1721,5.1565,5.4205,5.5603,5.6724,5.7929,5.8934,5.989,6.0828,6.1142,6.1289,6.1303,6.1353,6.1431,6.154,6.1467,6.1435,6.1571,6.2384,6.3281,6.4218,6.5097,6.5976,6.6855,6.6894,6.6852,6.6729,6.6702,6.6645,6.6521,6.6378,6.6298,6.6226,6.6088,6.6024,6.6005,6.6001,6.5972,6.5897,6.5897,6.5897,6.5878,6.5782,6.5243,6.4455,6.4455,6.3878,6.3031,6.3031,6.257,6.1947,6.1947,6.1447,6.08,6.08,6.08,6.08,6.08,6.08,6.08,6.08,6.08,6.08,6.08,6.08,6.08,6.08,6.08,6.08,6.08,6.08,6.08,6.08,6.08,6.08,6.08,6.08,6.08,6.08,6.08,6.08,6.08,6.08,6.08,6.08,6.08,6.08,6.08,6.0704,6.0646,6.0646,6.0569,6.0512,6.0512,6.0512,6.055,6.0646,6.0646,6.0704,6.08,6.08,6.1204,6.1966,6.2062,6.2062,4.2318,4.3659,4.501,4.6879,4.8381,5.0259,5.355,5.4262,5.4824,5.6838,5.8037,5.9003,5.989,6.0344,6.0729,6.115,6.1267,6.1344,6.1461,6.151,6.1551,6.1651,6.1605,6.1602,6.1653,6.2904,6.3883,6.4277,6.5586,6.6483,6.6764,6.6784,6.6746,6.6639,6.6526,6.6452,6.6371,6.6205,6.6114,6.6074,6.5998,6.5953,6.5947,6.5947,6.5923,6.5897,6.5897,6.5897,6.5897,6.5897,6.5686,6.5359,6.5359,6.5128,6.4686,6.3666,6.3089,6.2724,6.2274,6.187,6.1466,6.0954,6.08,6.08,6.08,6.08,6.08,6.08,6.08,6.08,6.08,6.08,6.08,6.08,6.08,6.08,6.08,6.08,6.08,6.08,6.08,6.08,6.08,6.08,6.08,6.08,6.08,6.08,6.08,6.08,6.08,6.08,6.08,6.08,6.08,6.08,6.08,6.08,6.08,6.08,6.08,6.08,6.08,6.08,6.08,6.105,6.1562,6.1562,6.1973,6.282,6.332,6.3551,4.4763,4.6721,4.8595,4.9808,5.2067,5.4304,5.5553,5.6483,5.7455,5.8809,5.9698,6.0421,6.1036,6.1161,6.1181,6.1305,6.1355,6.1437,6.1573,6.1616,6.1649,6.1699,6.1699,6.1699,6.1699,6.3066,6.4043,6.4277,6.5663,6.6553,6.668,6.6684,6.6615,6.6515,6.6388,6.6267,6.6215,6.6077,6.5996,6.5972,6.5923,6.5897,6.5897,6.5897,6.5897,6.5897,6.5897,6.5897,6.5897,6.5897,6.5897,6.5897,6.5897,6.5897,6.5743,6.4474,6.3858,6.3551,6.2724,6.2281,6.1966,6.1069,6.08,6.0769,6.0678,6.0734,6.0788,6.0697,6.0734,6.08,6.08,6.08,6.08,6.08,6.08,6.08,6.08,6.08,6.08,6.08,6.08,6.0757,6.0678,6.0734,6.0757,6.0666,6.0734,6.08,6.08,6.08,6.08,6.08,6.08,6.08,6.08,6.08,6.08,6.08,6.08,6.08,6.08,6.08,6.08,6.08,6.1031,6.1466,6.2101,6.232,6.2858,6.3666,6.432,6.4724,4.5601,4.7328,4.9961,5.2531,5.4563,5.6578,5.9146,5.9764,6.0016,6.0838,6.1041,6.1115,6.1274,6.1283,6.1331,6.1393,6.1501,6.1581,6.1605,6.1653,6.1699,6.1699,6.1699,6.1699,6.1699,6.2519,6.3398,6.4238,6.5004,6.5802,6.6658,6.6631,6.6509,6.6317,6.6309,6.6215,6.6001,6.6008,6.5972,6.591,6.5897,6.5897,6.5897,6.5897,6.5897,6.5897,6.5897,6.5897,6.5897,6.5897,6.5897,6.5897,6.5897,6.5897,6.5878,6.584,6.5282,6.4436,6.357,6.2743,6.1966,6.1069,6.08,6.0734,6.0422,6.0546,6.0734,6.0409,6.0546,6.08,6.08,6.08,6.08,6.08,6.08,6.08,6.08,6.08,6.08,6.08,6.08,6.071,6.0382,6.0585,6.0678,6.0349,6.0585,6.08,6.08,6.08,6.08,6.08,6.08,6.08,6.08,6.08,6.08,6.08,6.08,6.08,6.08,6.08,6.08,6.08,6.1639,6.2082,6.2101,6.2878,6.3724,6.457,6.4589,6.5051,4.8519,5.0964,5.3451,5.5392,5.7254,5.8953,6.0364,6.0692,6.0632,6.0414,6.036,6.0056,5.9021,5.9321,5.9733,5.9804,6.0322,6.095,6.1577,6.1698,6.1699,6.1699,6.1655,6.1624,6.1624,6.2426,6.3284,6.4102,6.4896,6.5684,6.6462,6.6432,6.6325,6.6177,6.6125,6.6066,6.6008,6.596,6.5923,6.5897,6.5897,6.5897,6.5897,6.5897,6.5897,6.5897,6.5897,6.5897,6.5897,6.5897,6.5897,6.5865,6.5608,6.5499,6.547,6.5203,6.4915,6.4568,6.3977,6.3059,6.2022,6.1202,6.0574,6.0121,5.9996,6.0042,6.0102,5.9996,6.0042,6.015,6.015,6.015,6.015,6.015,6.015,6.015,6.015,6.015,6.015,6.015,6.015,6.0087,5.9981,6.0057,6.016,6.0279,6.0604,6.08,6.08,6.08,6.08,6.08,6.08,6.08,6.08,6.08,6.08,6.08,6.08,6.0788,6.0741,6.1327,6.1635,6.1606,6.2449,6.3185,6.3762,6.4032,6.4584,6.541,6.541,6.5519,5.1454,5.3994,5.6168,5.7783,5.9331,6.0577,6.1101,6.0977,6.0541,5.9756,5.936,5.8735,5.7416,5.7393,5.7909,5.8904,5.9281,5.9971,6.1484,6.1699,6.1699,6.1676,6.1893,6.2044,6.2002,6.2738,6.3452,6.4024,6.4783,6.5551,6.6318,6.6278,6.6187,6.6066,6.6025,6.5996,6.5972,6.5923,6.5897,6.5897,6.5897,6.5897,6.5897,6.5897,6.5897,6.5897,6.5897,6.5897,6.5897,6.5736,6.5696,6.5649,6.5234,6.5089,6.5057,6.4786,6.461,6.4461,6.3973,6.3101,6.2065,6.1252,6.0456,5.9774,5.9641,5.9692,5.9774,5.9641,5.9692,5.9791,5.9791,5.9791,5.9791,5.9791,5.9791,5.9791,5.9791,5.9791,5.9791,5.9791,5.9791,5.9758,5.9605,5.9588,5.9706,6.0072,6.0307,6.0533,6.0757,6.08,6.08,6.08,6.08,6.08,6.0777,6.0757,6.0746,6.0741,6.0998,6.1139,6.1102,6.1965,6.2445,6.2394,6.3239,6.3976,6.4533,6.4821,6.5217,6.5734,6.5585,6.5475,5.4238,5.6267,5.8027,5.9665,6.0731,6.1393,6.1334,6.0667,5.9791,5.8894,5.8013,5.7143,5.6243,5.5569,5.5995,5.8574,5.8418,5.8848,6.1347,6.1738,6.1734,6.1664,6.2415,6.2893,6.2771,6.3424,6.3902,6.4031,6.4681,6.5433,6.6254,6.6167,6.6055,6.6008,6.6035,6.601,6.5897,6.5897,6.5897,6.5897,6.5897,6.5897,6.5897,6.5897,6.5897,6.5897,6.5885,6.5885,6.584,6.5441,6.5268,6.5238,6.4839,6.4681,6.4681,6.4646,6.4445,6.4098,6.3669,6.2943,6.2089,6.1277,6.0463,5.9732,5.9289,5.945,5.9675,5.9289,5.945,5.9741,5.9741,5.9741,5.9741,5.9741,5.9779,5.9817,5.9817,5.9836,5.9855,5.9817,5.9779,5.9624,5.9252,5.9178,5.9307,5.9765,5.9796,5.9996,6.0654,6.0746,6.0746,6.0734,6.0734,6.0722,6.0641,6.0641,6.0655,6.0648,6.1358,6.1812,6.1869,6.2713,6.3159,6.3159,6.4003,6.4444,6.4444,6.5197,6.5566,6.5518,6.5156,6.4973,5.6167,5.8169,5.9767,6.0788,6.1218,6.1237,6.057,5.9805,5.8616,5.6566,5.5444,5.4211,5.2162,5.3161,5.4744,5.6074,5.7734,5.951,6.137,6.2186,6.2557,6.243,6.3105,6.3567,6.3527,6.4186,6.4638,6.4675,6.4841,6.5306,6.6108,6.6066,6.6013,6.6008,6.6537,6.6519,6.5897,6.5897,6.5897,6.5897,6.5897,6.5897,6.5897,6.5897,6.5897,6.5865,6.5575,6.5456,6.5407,6.5025,6.4837,6.4822,6.4483,6.433,6.4291,6.3986,6.3832,6.3746,6.363,6.3056,6.2216,6.1413,6.0572,5.9749,5.9031,5.8905,5.8965,5.8845,5.8905,5.8984,5.8984,5.8984,5.8984,5.8984,5.9433,5.9881,5.9881,6.0385,6.0665,6.0012,5.9395,5.8945,5.8845,5.8825,5.9132,6.0041,5.9665,5.9432,5.9846,5.9992,5.9977,5.9792,5.9842,5.9861,5.9744,6.0015,6.0437,6.109,6.1538,6.2073,6.267,6.3587,6.4047,6.401,6.4562,6.4851,6.4851,6.5042,6.4957,6.4554,6.4805,6.47,5.8045,5.9707,6.0928,6.1377,6.1222,6.0536,5.8934,5.7919,5.6502,5.3596,5.2623,5.1729,4.9961,5.1113,5.2988,5.498,5.6795,5.8815,6.1256,6.2301,6.2777,6.2669,6.3676,6.4346,6.4293,6.4986,6.5569,6.5923,6.5595,6.5738,6.6545,6.6217,6.6312,6.7038,6.7077,6.7071,6.6994,6.6609,6.6417,6.6417,6.607,6.5897,6.5897,6.5709,6.5635,6.5603,6.5203,6.5041,6.5009,6.4629,6.4483,6.4445,6.4069,6.3939,6.3897,6.3673,6.3602,6.3602,6.3602,6.3305,6.2747,6.1577,6.0611,5.9735,5.8939,5.8716,5.8716,5.8716,5.8716,5.8716,5.8716,5.8977,5.9237,5.9237,5.9868,6.0481,6.0481,6.0853,6.0945,6.0072,5.9552,5.9104,5.8691,5.8911,5.9324,5.9899,5.992,5.9758,5.9529,5.9585,5.9566,5.9425,5.9479,5.9613,5.9847,6.0095,6.0641,6.1666,6.2254,6.2829,6.3499,6.4384,6.4824,6.4766,6.5047,6.5095,6.4911,6.4911,6.4665,6.4157,6.4254,6.4115,5.9793,6.0906,6.1614,6.1614,6.0911,5.957,5.7012,5.5566,5.3808,5.0391,4.9687,4.9414,4.8535,4.9277,5.1133,5.457,5.5845,5.7612,6.1077,6.2301,6.2819,6.2745,6.4229,6.5203,6.5071,6.5696,6.6416,6.7248,6.6568,6.6506,6.7345,6.6697,6.7019,6.8532,6.7725,6.7686,6.8571,6.7705,6.7205,6.709,6.634,6.5923,6.5814,6.5407,6.5219,6.5188,6.4786,6.4628,6.461,6.4271,6.4128,6.4087,6.3739,6.3602,6.3602,6.3602,6.3602,6.3602,6.3602,6.3602,6.336,6.1856,6.0778,5.9924,5.9125,5.8791,5.8716,5.8716,5.8716,5.8735,5.8846,5.9364,5.9921,6.0054,6.0741,6.1373,6.1373,6.1373,6.1128,6.0367,6.0125,5.9786,5.8934,5.9375,5.9871,5.9889,6.0402,6.0499,5.9799,5.9541,5.9418,5.9382,5.9381,5.9702,6.0416,6.0529,6.1055,6.2232,6.3004,6.3649,6.4168,6.487,6.5217,6.5217,6.5185,6.4966,6.4631,6.4631,6.4388,6.3932,6.3649,6.3468,6.1117,6.1538,6.1679,6.1679,6.0546,5.873,5.6113,5.373,5.1113,4.7676,4.6973,4.6719,4.584,4.7578,5.0233,5.3592,5.5415,5.7561,6.0881,6.2653,6.3592,6.3514,6.4977,6.6003,6.5982,6.6003,6.636,6.7248,6.7056,6.7314,6.8218,6.8091,6.8449,6.9436,6.8629,6.859,6.9475,6.8609,6.7802,6.709,6.6686,6.6096,6.5393,6.499,6.4803,6.4786,6.4445,0.0,6.4251,6.3873,6.3695,6.3714,6.3624,6.3602,6.3602,6.3602,6.3602,6.3602,6.3602,6.3602,6.3453,6.2506,6.1651,6.0815,5.9961,5.9237,5.8716,5.8716,5.8716,5.8865,5.9534,5.9791,6.007,6.0815,6.1614,6.219,6.219,6.219,6.2109,6.1853,6.1256,6.0733,6.0451,6.0539,6.0789,6.1337,6.0964,6.0769,6.1165,6.024,5.9471,5.9253,5.9342,5.9675,6.0351,6.0729,6.13,6.2242,6.2739,6.3351,6.4086,6.4256,6.4331,6.4331,6.4012,6.3801,6.3736,6.3736,6.3472,6.3038,6.3354,6.3303,6.1393,6.1677,6.1582,6.1133,5.9414,5.6933,5.3437,5.0955,4.8393,4.4935,4.4555,4.4725,4.4348,4.6372,4.8937,5.1468,5.3605,5.6115,5.9484,6.133,6.2673,6.3545,6.5139,6.6286,6.6676,6.67,6.7193,6.8462,6.829,6.8421,6.9091,6.9488,6.9706,6.9706,6.9706,6.9797,7.0017,6.9178,6.8437,6.7773,6.719,6.6476,6.5641,6.5255,6.4841,6.4407,6.4067,6.3894,6.3854,6.3691,6.3602,6.3602,6.3602,6.3602,6.3602,6.3602,6.3602,6.3602,6.3602,6.3602,6.3546,6.3156,6.2487,6.167,6.0834,5.9998,5.9329,5.9329,5.9329,5.9401,5.9791,6.0555,6.1317,6.1744,6.2406,6.2917,6.2917,6.2868,6.2669,6.2198,6.1768,6.1338,6.0794,6.1029,6.1429,6.166,6.1704,6.1722,6.1594,6.1053,6.0433,5.9887,5.9879,6.0234,6.0951,6.1203,6.1772,6.2859,6.3115,6.3476,6.4076,6.4096,6.4096,6.4096,6.3911,6.3696,6.349,6.349,6.3257,6.2823,6.3014,6.3272,6.108,6.1502,6.1462,6.0581,5.8295,5.519,5.1069,4.846,4.5982,4.2699,4.2671,4.3239,4.3298,4.5248,4.7528,4.9594,5.1828,5.4563,5.8132,6.014,6.1832,6.3396,6.5056,6.6383,6.7157,6.7258,6.7923,6.9459,6.9367,6.94,6.9807,7.0436,7.0474,6.984,7.0436,7.0578,7.0186,6.954,6.8948,6.8395,6.7695,6.6825,6.586,6.5451,6.4835,6.4046,6.3739,6.3602,6.3602,6.3602,6.3602,6.3602,6.3602,6.3602,6.3602,6.3602,6.3602,6.3598,6.3557,6.3557,6.3557,6.3511,6.2996,6.2239,6.1608,6.0828,6.0141,6.0141,6.0163,6.0221,6.0385,6.1388,6.2387,6.2528,6.296,6.3354,6.3354,6.3284,6.3005,6.2335,6.2224,6.1974,6.1211,6.161,6.1991,6.1875,6.2401,6.2585,6.1942,6.1851,6.1612,6.0988,6.0768,6.0988,6.1796,6.1851,6.2278,6.3289,6.3349,6.3494,6.3806,6.3827,6.3827,6.3827,6.3827,6.3674,6.3349,6.3349,6.325,6.3099,6.3099,6.3539,6.0218,6.1009,6.1386,6.0449,5.7662,5.4231,5.0722,4.7408,4.4303,4.1665,4.176,4.2325,4.2331,4.3812,4.6076,4.9221,5.1231,5.3831,5.7853,6.0546,6.2436,6.3389,6.4991,6.636,6.7217,6.7246,6.775,6.9061,6.946,6.9809,7.0222,7.0295,7.0314,7.0238,7.0314,7.0169,6.9758,6.9683,6.9228,6.8395,6.8025,6.6994,6.5451,6.5042,6.4409,6.3647,6.3602,6.3602,0.0,6.3602,6.3602,6.3602,6.3602,6.3602,6.3602,6.3602,6.3602,6.3579,6.3447,6.3424,6.34,6.3284,6.2752,6.2201,6.2127,6.1552,6.0904,6.0904,6.0988,6.1261,6.1986,6.2194,6.2359,6.2983,6.3181,6.3213,6.3213,6.3213,6.3128,6.2959,6.2916,6.2849,6.2628,6.2658,6.2695,6.2695,6.2743,6.2762,6.2688,6.2695,6.2677,6.2578,6.1924,6.1814,6.264,6.2695,6.2732,6.2855,6.2855,6.288,6.291,6.291,6.291,6.291,6.291,6.2886,6.2855,6.2855,6.3259,6.398,6.398,6.4402,5.9037,6.0159,6.0595,5.9646,5.6834,5.3362,4.9905,4.6441,4.3363,4.1313,4.1112,4.1475,4.2038,4.2665,4.4228,4.7592,4.8674,5.0584,5.4805,5.709,5.9248,6.1657,6.3411,6.5274,6.739,6.7606,6.8036,6.9039,6.926,6.9427,6.9567,6.9814,6.9941,6.9941,6.9941,6.974,6.9346,6.9346,6.9049,6.8466,6.8305,6.7392,6.5825,6.564,6.4865,6.3602,6.3602,6.3602,0.0,6.3602,6.3602,6.3602,6.3602,6.3557,6.347,6.347,6.3424,6.3354,6.3307,6.3284,6.3284,6.3213,6.2968,6.2709,6.278,6.2249,6.1601,6.1601,6.1643,6.1762,6.2077,6.2475,6.2854,6.3139,6.3141,6.3075,6.3075,6.3021,6.2929,6.288,6.288,6.2855,6.2805,6.278,6.278,6.278,6.278,6.278,6.278,6.278,6.278,6.278,6.2511,6.2456,6.2762,6.278,6.278,6.278,6.278,6.278,6.278,6.278,6.278,6.278,6.278,6.278,6.278,6.3337,6.3759,6.409,6.4604,6.5246,5.7099,5.86,5.9249,5.827,5.5664,5.2425,4.8948,4.5653,4.285,4.1094,4.0694,4.0868,4.1536,4.2041,4.3211,4.5877,4.7117,4.905,5.28,5.4878,5.7124,6.0126,6.1798,6.3855,6.6789,6.7774,6.8488,6.9061,6.8978,6.8908,6.8908,6.9198,6.9407,6.9508,6.9508,6.9325,6.893,6.8908,6.8655,6.8153,6.8153,6.7298,6.5719,6.5719,6.4958,6.3602,6.3602,6.3602,0.0,6.3602,6.3579,6.3534,6.3534,6.3447,6.3354,6.3354,6.3284,6.3189,6.3147,6.3141,6.3123,6.3075,6.3021,6.2953,6.3051,6.2712,6.2293,6.2293,6.2316,6.234,6.2316,6.2717,6.3141,6.3093,6.3002,6.2953,6.2953,6.2855,6.278,6.278,6.278,6.278,6.278,6.278,6.278,6.278,6.278,6.278,6.278,6.278,6.278,6.278,6.278,6.278,6.278,6.278,6.278,6.278,6.278,6.278,6.278,6.278,6.278,6.278,6.3062,6.3191,6.3191,6.4035,6.4567,6.4806,6.5393,6.609,5.421,5.6168,5.7281,5.6275,5.4111,5.1322,4.7902,4.5082,4.2717,4.0961,4.0595,4.0595,4.0614,4.2022,4.3455,4.4286,4.7264,5.0355,5.2847,5.5104,5.7239,5.9277,6.048,6.2224,6.5047,6.7619,6.9093,6.9091,6.8735,6.8506,6.8506,6.8506,6.8688,6.9091,6.9109,6.8908,6.8506,6.8506,6.8116,6.7317,6.7317,6.6444,6.4805,6.4805,6.4359,6.3602,6.3602,6.3602,0.0,6.3602,6.3534,6.34,6.34,6.3331,6.3213,6.3213,6.3213,6.3189,6.3051,6.3002,6.2978,6.283,6.2805,6.2805,6.2805,6.2904,6.2984,6.2984,6.3099,6.3147,6.3032,6.3002,6.2978,6.283,6.2805,6.2805,6.2805,6.278,6.278,6.278,6.278,6.278,6.278,6.278,6.278,6.278,6.278,6.278,6.278,6.278,6.278,6.278,6.278,6.278,6.278,6.278,6.278,6.278,6.278,6.278,6.278,6.278,6.278,6.278,6.3649,6.409,6.409,6.4897,6.5705,6.6476,6.6476,6.6916,5.0083,5.1722,5.2822,5.1868,5.0574,4.8773,4.5912,4.4153,4.2653,4.0957,4.1072,4.1496,4.1496,4.2383,4.416,4.7305,4.8537,5.0183,5.3314,5.5138,5.6829,5.8606,6.2397,6.5198,6.6087,6.7701,6.8688,6.8688,6.856,6.8481,6.8481,6.8481,6.8578,6.8707,6.8688,6.8636,6.8506,6.8481,6.8091,6.7317,6.7202,6.6312,6.4786,6.4604,6.4155,6.3447,6.3354,6.3331,6.3331,6.3331,6.3307,6.326,6.326,6.3171,6.3051,6.3051,6.3021,6.2904,6.288,6.2855,6.2855,6.2805,6.278,6.278,6.278,6.283,6.2855,6.2855,6.288,6.2923,6.288,6.2855,6.2855,6.2805,6.278,6.278,6.278,6.278,6.278,6.278,6.278,6.278,6.278,6.278,6.278,6.278,6.278,6.278,6.278,6.278,6.278,6.278,6.278,6.278,6.278,6.278,6.278,6.278,6.278,6.278,6.278,6.278,6.278,6.278,6.308,6.3503,6.409,6.4916,6.5999,6.7302,6.7302,6.7448,4.6822,4.8403,4.9345,4.8767,4.7957,4.6709,4.4333,4.3179,4.2205,4.0756,4.095,4.1436,4.1671,4.2384,4.398,4.716,4.8018,4.9461,5.2836,5.4507,5.6262,5.8741,6.2689,6.5401,6.587,6.7203,6.819,6.8487,6.8481,6.8481,6.8481,6.8481,6.8481,6.8481,6.8481,6.8481,6.8481,6.8432,6.7876,6.6762,6.6642,6.5747,6.4183,6.4023,6.3722,6.3331,6.3237,6.3213,0.0,6.3213,6.3165,6.3123,6.3123,6.3026,6.2929,6.2929,6.288,6.278,6.278,6.278,6.278,6.278,6.278,6.278,6.278,6.278,6.278,6.278,6.278,6.278,6.278,6.278,6.278,6.278,6.278,6.278,6.278,6.278,6.278,6.278,6.278,6.278,6.278,6.278,6.278,6.278,6.278,6.278,6.278,6.278,6.278,6.278,6.278,6.278,6.278,6.278,6.278,6.278,6.278,6.278,6.278,6.278,6.278,6.278,6.3429,6.4016,6.4549,6.5668,6.6714,6.7687,6.7687,6.7687,0.0,4.5822,4.6518,4.6433,4.5891,4.4902,4.3024,4.2148,0.0,4.0414,4.0386,4.077,4.1447,4.2277,4.3357,4.4983,4.6581,4.8759,5.1987,5.3734,5.6014,5.9576,6.1784,6.3509,6.4776,6.6346,6.7633,6.8426,6.8481,6.85,6.85,6.85,6.8457,6.8457,6.8401,6.8426,6.85,6.8358,6.7506,6.5975,6.5774,6.4857,6.3263,6.3208,6.3189,0.0,6.3189,6.3165,6.3165,6.3165,6.3099,6.3002,6.3002,6.2904,6.278,6.278,6.278,6.278,6.278,6.278,6.278,6.278,6.278,6.278,6.278,6.278,6.278,6.278,6.278,6.278,6.278,6.278,6.278,6.278,6.278,6.278,6.278,6.278,6.278,6.278,6.278,6.278,6.278,6.278,6.278,6.278,6.278,6.278,6.278,6.278,6.278,6.278,6.278,6.278,6.278,6.278,6.278,6.278,6.278,6.278,6.278,6.278,6.278,6.278,6.4457,6.5338,6.5393,6.6935,6.7687,6.7687,6.7687,6.7687,3.9136,0.0,4.1832,4.0999,4.1607,4.2078,0.0,4.1016,4.1246,4.0386,4.0739,4.1619,4.3049,4.3855,4.5456,4.8975,5.0225,5.1691,5.443,5.6987,5.9153,6.0704,6.2925,6.4733,6.5701,6.6722,6.7633,6.8426,6.8408,6.8334,6.8334,6.824,6.819,6.819,6.7598,6.7629,6.8334,6.8215,6.764,6.6661,6.5908,6.5053,6.4075,6.3272,6.2953,6.3051,6.2929,6.288,6.288,6.288,6.2898,6.283,6.283,6.2848,6.278,6.278,6.278,6.278,6.278,6.278,6.278,6.278,6.278,6.278,6.278,6.278,6.278,6.278,6.278,6.278,6.278,6.278,6.278,6.278,6.278,6.278,6.278,6.278,6.278,6.278,6.278,6.278,6.278,6.278,6.278,6.278,6.278,6.278,6.278,6.278,6.278,6.278,6.278,6.278,6.278,6.278,6.278,6.278,6.278,6.278,6.278,6.278,6.278,6.278,6.4457,6.5613,6.6219,6.721,6.7687,6.7687,6.7687,6.7687,3.6281,3.8268,4.0061,3.9575,4.0358,4.1073,4.0367,4.0444,4.0525,3.9984,4.0294,4.1142,4.2708,4.3882,4.5677,4.8969,5.0375,5.2335,5.5958,5.8786,6.0924,6.2086,6.3363,6.4452,6.5258,6.5697,6.6333,6.7166,6.7148,6.7099,6.7099,6.7049,6.698,6.698,6.6524,6.6715,6.7654,6.7158,6.6499,6.5705,6.5131,6.4443,6.3647,6.3057,6.283,6.2904,6.283,6.278,6.278,6.278,6.278,6.278,6.278,6.278,6.278,6.278,6.278,6.278,6.278,6.278,6.2755,6.2464,6.2585,6.2755,6.2464,6.2386,6.2438,6.273,6.278,6.278,6.278,6.278,6.273,6.2438,6.2386,6.2386,6.2386,6.2386,6.2464,6.2755,6.278,6.278,6.278,6.278,6.278,6.278,6.278,6.278,6.278,6.278,6.278,6.278,6.278,6.278,6.278,6.278,6.278,6.278,6.278,6.278,6.278,6.278,6.3147,6.3918,6.4842,6.5888,6.7045,6.7485,6.7687,6.7687,6.7687,6.7687,3.5114,3.7392,3.9675,3.964,4.0325,4.0918,4.054,4.0087,3.9694,3.9532,3.9738,4.0412,4.1993,4.362,4.5507,4.7865,4.9875,5.2661,5.7043,5.968,6.1678,6.3026,6.3303,6.3645,6.4321,6.4413,6.474,6.5496,6.5526,6.5501,6.5501,6.552,6.552,6.5656,6.5402,6.5635,6.6305,6.5893,6.526,6.4432,6.435,6.3764,6.2844,6.281,6.2755,6.2661,6.2661,0.0,6.278,6.2705,6.273,6.278,6.278,6.278,6.278,6.278,6.278,6.2798,6.2705,6.261,6.242,6.2032,6.2184,6.2402,6.1887,6.1661,6.1688,6.2204,6.2424,6.2515,6.2515,6.2515,6.2368,6.1851,6.1842,6.1897,6.1897,6.1978,6.2184,6.2705,6.278,6.278,6.278,6.278,6.278,6.278,6.278,6.278,6.278,6.278,6.278,6.278,6.278,6.278,6.278,6.278,6.278,6.278,6.278,6.278,6.278,6.278,6.3539,6.5099,6.5246,6.6035,6.7504,6.7632,6.7687,6.7687,6.7687,6.7687,3.6115,3.779,3.8864,3.776,3.9058,4.0379,3.9546,3.9418,3.9458,3.9483,4.0084,4.1267,4.3586,4.5204,4.7194,5.0302,5.3385,5.6057,5.8071,5.9903,6.1322,6.211,6.283,6.3527,6.4321,6.4413,6.4537,6.4835,6.4748,6.4667,6.4667,6.4594,6.4767,6.5353,6.4692,6.4119,6.3703,6.5447,6.5933,6.5143,6.5118,6.4406,6.3039,6.287,6.2534,6.205,0.0,6.2334,6.2755,6.2237,6.2334,6.278,6.278,6.278,6.278,6.278,6.278,6.273,6.221,6.1668,6.1265,6.1741,6.1584,6.1168,6.1019,6.0565,6.0135,6.0221,6.0716,6.1189,6.1189,6.1189,6.116,6.1091,6.15,6.1897,6.1897,6.229,6.2705,6.278,6.278,6.278,6.278,6.278,6.278,6.278,6.278,6.278,6.278,6.278,6.278,6.278,6.278,6.278,6.278,6.278,6.278,6.278,6.278,6.278,6.278,6.278,6.3282,6.4255,6.4952,6.576,6.6678,6.7357,6.7687,6.7687,6.7687,6.7687,3.5082,3.6734,3.8103,3.7517,3.9574,4.164,4.1196,4.1161,4.1115,4.0709,4.1269,4.2449,4.4407,4.6011,4.8413,5.2604,5.5234,5.7304,5.8937,6.0148,6.1301,6.2417,6.2854,6.3198,6.3512,6.3243,6.3087,6.3175,6.2771,6.2544,6.2544,6.2504,6.2609,6.2909,6.2566,6.2209,6.1918,6.3429,6.3742,6.2927,6.3312,6.293,6.1918,6.1812,6.1622,6.1368,0.0,6.151,6.176,6.1482,6.1538,6.1815,6.2166,6.2316,6.2316,6.2316,6.2316,6.2184,6.1214,6.0873,6.0826,6.0392,6.0279,6.0177,5.9351,5.8916,5.8678,5.8734,5.9517,6.0409,6.079,6.0897,6.0808,6.0481,6.0651,6.0861,6.0861,6.1098,6.15,6.2184,6.2316,6.2412,6.273,6.278,6.278,6.278,6.278,6.278,6.278,6.278,6.278,6.278,6.278,6.278,6.278,6.278,6.278,6.278,6.278,6.278,6.278,6.278,6.3411,6.4714,6.5118,6.5907,6.7136,6.7504,6.7687,6.7687,6.7687,6.7687,3.4426,3.5892,3.7421,3.7852,4.0059,4.2264,4.2869,4.2999,4.2928,4.2718,4.3494,4.4498,4.5458,4.742,5.0287,5.445,5.6404,5.7935,5.9423,6.0281,6.1218,6.2518,6.2843,6.2904,6.2805,6.2237,6.1824,6.1686,6.1062,6.0676,6.0676,6.0676,6.0748,6.0897,6.0897,6.0838,6.0706,6.1479,6.1569,6.0897,6.1641,6.1537,6.0706,6.0838,6.0808,6.0676,6.0676,6.0748,6.0897,6.0766,6.0778,6.0956,6.1454,6.1686,6.1686,6.1686,6.1574,6.1318,6.0331,6.0188,6.0313,5.9442,5.925,5.9158,5.8035,5.7469,5.7255,5.7574,5.8328,5.9306,6.0215,6.0463,6.034,5.9873,5.9891,6.0019,6.0019,6.0129,6.0498,6.1472,6.1796,6.205,6.2508,6.2705,6.278,6.278,6.278,6.278,6.278,6.278,6.278,6.278,6.278,6.278,6.278,6.278,6.278,6.278,6.278,6.278,6.278,6.278,6.3386,6.4695,6.5118,6.5907,6.7136,6.7504,6.7687,6.7687,6.7687,6.7687,3.5711,3.6301,3.685,3.8346,3.9424,4.0733,4.3109,4.3574,4.3981,4.556,4.7198,4.814,4.7368,5.0433,5.3664,5.5531,5.723,5.8574,5.931,6.0116,6.0875,6.16,6.2346,6.2805,6.278,6.2237,6.164,6.1015,6.0406,6.0065,6.0065,6.0065,6.0313,6.0897,6.0897,6.0615,6.0065,6.0686,6.095,6.0897,6.176,6.144,6.0097,6.0646,6.0585,6.0065,6.0065,6.0357,6.0867,6.0299,6.0406,6.0897,6.0956,6.0956,6.0956,6.0956,6.0633,6.0129,6.0051,5.9631,5.9216,5.9756,5.9057,5.7985,5.7775,5.6777,5.5921,5.665,5.694,5.735,5.8751,5.9132,5.9132,5.9064,5.9549,6.0019,6.0019,6.045,6.0867,6.0956,6.1482,6.1924,6.1951,6.2412,6.278,6.278,6.278,6.278,6.278,6.278,6.278,6.278,6.278,6.278,6.278,6.278,6.278,6.278,6.278,6.278,6.278,6.278,6.2853,6.2989,6.4512,6.5375,6.5485,6.6971,6.7687,6.7687,6.7687,6.7687,3.4431,3.6258,3.7981,3.8588,4.0079,4.1803,4.3387,4.5285,4.7038,4.82,4.9769,5.0803,5.0412,5.2784,5.5027,5.5739,5.7129,5.845,5.9265,5.9582,5.9889,6.0311,6.1359,6.1766,6.101,6.1137,6.1021,6.0406,5.9744,5.9383,5.9383,5.9383,5.9466,5.9726,5.9726,5.9613,5.9383,5.9596,5.9726,5.9726,6.0473,6.0314,5.9383,5.9596,5.958,5.9383,5.9383,5.9499,5.9694,5.9466,5.9532,5.9759,6.0188,6.0301,6.0225,6.0303,5.9906,5.9324,5.9342,5.9199,5.896,5.8746,5.8038,5.7097,5.6465,5.564,5.5152,5.6294,5.6689,5.715,5.8633,5.9012,5.9012,5.9012,5.9199,5.9383,5.9383,5.9547,5.9838,6.0251,6.0529,6.0831,6.1207,6.1806,6.2237,6.2237,6.2559,6.278,6.278,6.278,6.278,6.278,6.278,6.278,6.278,6.278,6.278,6.278,6.278,6.278,6.278,6.278,6.3062,6.3594,6.4732,6.5558,6.6054,6.7155,6.7687,6.7687,6.7687,6.7687,3.3972,3.6028,3.8138,3.8891,4.0708,4.2815,4.4774,4.7131,4.9361,5.0926,5.2123,5.297,5.3205,5.4537,5.571,5.6051,5.7183,5.8226,5.8865,5.9089,5.92,5.9186,6.04,6.0774,5.957,5.9891,6.0024,5.9664,5.9036,5.8771,5.8995,5.9012,5.9012,5.9012,5.9012,5.9012,5.9012,5.9012,5.9012,5.9012,5.9483,5.945,5.9012,5.9012,5.9012,5.9012,5.9012,5.9012,5.9012,5.9012,5.8995,5.8961,5.9222,5.9236,5.9104,5.9018,5.8666,5.8235,5.8217,5.8359,5.8479,5.7912,5.7241,5.6486,5.5904,5.5111,5.4726,5.6192,5.6517,5.6822,5.8564,5.9012,5.9012,5.9012,5.9012,5.9012,5.9012,5.9012,5.9149,5.9615,5.9858,6.0129,6.0524,6.1149,6.1584,6.1584,6.1933,6.229,6.249,6.2534,6.2585,6.278,6.278,6.278,6.278,6.278,6.278,6.278,6.278,6.278,6.278,6.278,6.3099,6.3686,6.4751,6.5576,6.6127,6.7173,6.7687,6.7687,6.7687,6.7687,3.4784,3.5646,3.6909,3.9313,4.113,4.3406,4.7407,4.9003,5.0565,5.3775,5.4436,5.4718,5.5631,5.5717,5.5868,5.6675,5.7483,5.7997,5.7997,5.8694,5.8963,5.8352,5.9517,5.9928,5.8765,5.8624,5.8674,5.8888,5.8255,5.8219,5.8961,5.8995,5.8995,5.8995,5.9012,5.9012,5.9012,5.9012,5.9012,5.9012,5.9012,5.9012,5.9012,5.9012,5.9012,5.9012,5.9012,5.9012,5.9012,5.9012,5.8927,5.8737,5.8134,5.7757,5.7501,5.6997,5.6788,5.6755,5.6589,5.6986,5.7587,5.7432,5.685,5.6218,5.6438,5.5408,5.4548,5.6274,5.6219,5.61,5.8375,5.8961,5.8995,5.9012,5.9012,5.9012,5.9012,5.9012,5.9012,5.9012,5.9549,5.9987,5.9987,6.0481,6.0897,6.0897,6.0897,6.1149,6.1814,6.1897,6.2131,6.273,6.2798,6.278,6.278,6.278,6.278,6.278,6.278,6.278,6.278,6.278,6.278,6.278,6.4457,6.5319,6.5319,6.6916,6.7687,6.7687,6.7687,6.7687,3.4784,3.689,3.9129,4.0432,4.3223,4.6434,4.9389,5.1132,5.3059,5.6271,5.6473,5.6161,5.6463,5.6477,5.6528,5.6767,5.7483,5.7997,5.7997,5.8217,5.8002,5.702,5.8089,5.8277,5.6663,5.7399,5.782,5.7441,5.7248,5.7219,5.7443,5.7943,5.8236,5.8236,5.8737,5.9012,5.9012,5.9012,5.9012,5.9012,5.9012,5.9012,5.9012,5.9012,5.9012,5.9012,5.9012,5.9012,5.8978,5.8892,5.8427,5.7809,5.7604,5.6935,5.606,5.6335,5.6196,5.5884,5.6233,5.685,5.7363,5.6799,5.6423,5.6099,5.5553,5.4832,5.4381,5.5226,5.5462,5.5697,5.6832,5.7107,5.7398,5.8703,5.8823,5.8701,5.884,5.8875,5.8875,5.8875,5.9081,5.93,5.93,5.9841,6.0268,6.0268,6.0615,6.0956,6.1178,6.1612,6.1978,6.2157,6.2559,6.278,6.278,6.278,6.278,6.278,6.278,6.278,6.278,6.278,6.278,6.278,6.4457,6.5319,6.5319,6.6916,6.7687,6.7687,6.7687,6.7687,3.5977,3.8395,4.0891,4.2948,4.5553,4.847,5.1922,5.3702,5.528,5.7538,5.7373,5.6914,5.7226,5.7024,5.6914,5.7226,5.7685,5.7997,5.7997,5.7797,5.7327,5.6412,5.6994,5.6898,5.5309,5.616,5.6654,5.6338,5.6322,5.646,5.6788,5.7219,5.746,5.746,5.7892,5.8133,5.8133,5.8133,5.8133,5.8133,5.8133,5.8133,5.815,5.8737,5.8857,5.8564,5.8254,5.8099,5.7998,5.7912,5.7467,5.6832,5.6594,5.5944,5.5158,5.5329,5.5173,5.4881,5.516,5.5741,5.6303,5.5792,5.5604,5.5468,5.5009,5.4446,5.4134,5.4803,5.4903,5.5052,5.6047,5.6013,5.6081,5.7569,5.7998,5.8098,5.8203,5.846,5.8683,5.8683,5.8806,5.8927,5.8927,5.93,5.9598,5.9598,6.0125,6.0524,6.0524,6.1091,6.1482,6.1482,6.1833,6.2148,6.2412,6.2192,6.2271,6.2755,6.2585,6.2559,6.278,6.278,6.278,6.278,6.4145,6.4989,6.5319,6.6586,6.7375,6.7687,6.7687,6.7687,3.7689,3.9795,4.2049,4.5993,4.7865,4.9939,5.4454,5.6106,5.695,5.7813,5.7428,5.7134,5.7868,5.7409,5.7152,5.7886,5.7997,5.7973,5.7927,5.7449,5.6869,5.6303,5.6221,5.5791,5.462,5.5018,5.5371,5.5492,5.548,5.5822,5.6546,5.665,5.6684,5.6684,5.6753,5.6805,5.6805,5.6805,5.6805,5.6805,5.6805,5.6805,5.684,5.8202,5.8443,5.7771,5.7048,5.6656,5.6472,5.6472,5.6235,5.5825,5.5263,5.4906,5.4652,5.4138,5.3948,5.3948,5.375,5.416,5.4771,5.4567,5.4532,5.4601,5.4669,5.4227,5.3886,5.4734,5.4477,5.4305,5.5689,5.5383,5.4924,5.5809,5.6645,5.7277,5.7345,5.7909,5.8405,5.8473,5.8631,5.8788,5.8788,5.8892,5.8978,5.9012,5.9516,5.9923,5.9923,6.045,6.0808,6.0808,6.0867,6.1149,6.1769,6.1236,6.1407,6.2541,6.2184,6.2157,6.2705,6.2755,6.278,6.278,6.3649,6.4457,6.5209,6.6072,6.688,6.7577,6.765,6.7687,3.683,3.9193,4.1902,4.5314,4.9187,5.2601,5.4271,5.528,5.6271,5.7703,5.785,5.7795,5.796,5.785,5.7795,5.796,5.7997,5.7821,5.7358,5.7191,5.6739,5.5716,5.5589,5.5313,5.4557,5.462,5.4721,5.4736,5.4753,5.4822,5.4994,5.5546,5.5874,5.5874,5.6477,5.6805,5.6805,5.6805,5.6805,5.6805,5.6805,5.6805,5.6805,5.7133,5.7185,5.7029,5.6691,5.6438,5.6269,5.6167,5.5621,5.4889,5.4754,5.4381,5.3888,5.3669,5.3668,5.375,5.3584,5.4042,5.455,5.3923,5.4126,5.4482,5.394,5.372,5.3718,5.3804,5.382,5.3835,5.4042,5.3957,5.3839,5.4042,5.5093,5.6263,5.7016,5.7289,5.7579,5.814,5.8419,5.8596,5.8788,5.8823,5.8875,5.8978,5.9132,5.9233,5.9233,5.9776,6.0205,6.0205,6.0615,6.0956,6.1102,6.0985,6.1015,6.1275,6.1668,6.1951,6.2104,6.2559,6.278,6.278,6.3649,6.4182,6.4347,6.5797,6.6586,6.6769,6.7393,6.7687,3.6834,3.9703,4.2958,4.7186,5.0453,5.2949,5.4124,5.4711,5.5354,5.6602,5.7152,5.7538,5.7923,5.7997,5.7997,5.7997,5.7997,5.7797,5.7191,5.6887,5.6394,5.5502,5.5134,5.4834,5.4543,5.4512,5.4512,5.4512,5.4512,5.4512,5.4512,5.4874,5.5081,5.5081,5.5495,5.5701,5.5701,5.5701,5.5701,5.5701,5.5604,5.5554,5.5572,5.6031,5.6236,5.6169,5.5644,5.5292,5.5109,5.4991,5.4568,5.4059,5.4059,5.389,5.3618,5.3534,5.3551,5.3601,5.3534,5.3754,5.4008,5.3619,5.3754,5.3991,5.3619,5.3551,5.3584,5.3534,5.3551,5.3584,5.3534,5.3501,5.3501,5.3501,5.4363,5.5311,5.5805,5.6178,5.6535,5.6925,5.7169,5.7464,5.7909,5.8443,5.8823,5.8909,5.8961,5.9012,5.9012,5.93,5.9516,5.9516,5.9791,6.0107,6.045,6.017,6.0246,6.0867,6.0962,6.1127,6.1397,6.2032,6.249,6.278,6.3264,6.3686,6.409,6.4934,6.5742,6.6512,6.6916,6.732,3.6226,3.9931,4.4086,4.9127,5.1187,5.2344,5.3683,5.4087,5.4418,5.5225,5.6033,5.684,5.7648,5.7795,5.7831,5.7978,5.7997,5.775,5.7065,5.6599,5.6027,5.5343,5.4803,5.4512,5.4512,5.4512,5.4512,5.4512,5.4512,5.4512,5.4512,5.4512,5.4512,5.4512,5.4512,5.4512,5.4512,5.4512,5.448,5.4448,5.4271,5.4175,5.4192,5.5004,5.5361,5.5309,5.4497,5.4078,5.3915,5.375,5.3601,5.3501,5.3501,5.3501,5.3501,5.3501,5.3501,5.3501,5.3501,5.3501,5.3501,5.3501,5.3501,5.3501,5.3501,5.3501,5.3501,5.3501,5.3501,5.3501,5.3501,5.3501,5.3501,5.3501,5.3957,5.4431,5.4566,5.5091,5.5564,5.57,5.5874,5.62,5.6794,5.7739,5.8359,5.8359,5.8479,5.8565,5.8565,5.8702,5.8823,5.8823,5.8926,5.9233,5.9794,5.9334,5.9448,6.0524,6.0188,6.0237,6.0718,6.1368,6.196,6.2464,6.2705,6.3154,6.387,6.4016,6.4861,6.6292,6.6439,6.6916,3.2668,3.7847,4.3814,4.766,5.0325,5.205,5.227,5.2858,5.3592,5.4399,5.5188,5.5996,5.6822,5.6969,5.7189,5.7886,5.7997,5.7613,5.6572,5.6357,5.5887,5.4759,5.4557,5.4512,5.4512,5.4512,5.4512,5.4512,5.4512,5.4512,5.4512,5.4512,5.4512,5.4512,5.4512,5.4512,5.4512,5.4512,5.4399,5.4239,5.411,5.4013,5.4013,5.4278,5.4377,5.4377,5.4112,5.3915,5.375,5.3584,5.3534,5.3501,5.3501,5.3501,5.3501,5.3501,5.3501,5.3501,5.3501,5.3501,5.3501,5.3501,5.3501,5.3501,5.3501,5.3501,5.3501,5.3501,5.3501,5.3501,5.3501,5.3501,5.3501,5.3501,5.3585,5.3822,5.4448,5.4668,5.4938,5.5598,5.5874,5.603,5.6132,5.6406,5.6628,5.6628,5.6747,5.683,5.683,5.755,5.8064,5.8064,5.8633,5.9047,5.9149,5.9047,5.9064,5.9249,5.9729,6.0051,6.0129,6.0706,6.1073,6.116,6.2245,6.2853,6.2989,6.3723,6.4567,6.5485,6.6182,6.6916,3.4489,3.8565,4.2641,4.6444,4.839,4.9531,5.0222,5.1035,5.1718,5.1976,5.2516,5.3568,5.5727,5.5885,5.5884,5.6538,5.6509,5.6219,5.5714,5.5715,5.5473,5.4589,5.4512,5.4512,5.4512,5.4512,5.4512,5.4512,5.4512,5.4512,5.4512,5.4512,5.4512,5.4512,5.4512,5.4512,5.4512,5.4512,5.4367,5.4078,5.4013,5.3948,5.3849,5.4013,5.4078,5.4078,5.4013,5.3882,5.3684,5.3551,5.3501,5.3501,5.3501,5.3501,5.3501,5.3501,5.3501,5.3501,5.3501,5.3501,5.3501,5.3501,5.3501,5.3501,5.3501,5.3501,5.3501,5.3501,5.3501,5.3501,5.3501,5.3501,5.3501,5.3501,5.3501,5.3602,5.3907,5.3974,5.4076,5.4414,5.4872,5.5212,5.5212,5.5723,5.6133,5.6133,5.6286,5.6421,5.6472,5.6864,5.7309,5.7823,5.8202,5.8564,5.8978,5.9012,5.9012,5.9012,5.9267,5.945,5.945,6.0048,6.0406,6.0406,6.164,6.2308,6.2308,6.302,6.3796,6.464,6.4989,6.5595,3.5339,3.7987,4.0152,4.4205,4.5873,4.6864,4.8158,4.9221,4.9908,4.9882,5.0205,5.1236,5.3727,5.4212,5.44,5.4987,5.49,5.4679,5.4498,5.4592,5.455,5.4184,5.4124,5.4178,5.4382,5.4367,5.4385,5.4385,5.4385,5.4385,5.4385,5.4385,5.4385,5.4385,5.4385,5.4385,5.4385,5.4303,5.4175,5.3915,5.3899,5.38,5.3668,5.3849,5.3932,5.3866,5.3915,5.3816,5.3634,5.3517,5.3501,5.3501,5.3501,5.3501,5.3501,5.3501,5.3501,5.3501,5.3501,5.3501,5.3501,5.3501,5.3501,5.3501,5.3501,5.3501,5.3501,5.3501,5.3501,5.3501,5.3501,5.3501,5.3501,5.3501,5.3501,5.3501,5.3501,5.3501,5.3501,5.3501,5.394,5.4313,5.4313,5.4907,5.5366,5.5366,5.5502,5.5671,5.5772,5.6044,5.6487,5.7171,5.7479,5.7926,5.8668,5.8737,5.8806,5.8995,5.9012,5.9012,5.9012,5.9483,5.9761,5.9761,6.0861,6.1472,6.164,6.2438,6.3152,6.3855,6.402,6.453,3.2262,3.4081,3.5754,4.003,4.28,4.484,4.6294,4.7652,4.8686,4.8917,4.9347,4.978,5.0222,5.1566,5.2845,5.3496,5.37,5.353,5.2811,5.2747,5.2855,5.3149,5.3049,5.3308,5.4139,5.411,5.4013,5.4013,5.4013,5.4013,5.4013,5.4013,5.4013,5.4013,5.4013,5.4013,5.4013,5.3849,5.3733,5.37,5.3584,5.3534,5.3534,5.3651,5.3634,5.3534,5.3651,5.3634,5.3501,5.3501,5.3501,5.3501,5.3501,5.3501,5.3501,5.3501,5.3501,5.3501,5.3501,5.3501,5.3501,5.3501,5.3501,5.3501,5.3501,5.3501,5.3501,5.3501,5.3501,5.3501,5.3501,5.3501,5.3501,5.3501,5.3501,5.3501,5.3501,5.3501,5.3501,5.3501,5.3534,5.3568,5.3568,5.3585,5.3619,5.3619,5.3753,5.3819,5.3852,5.4798,5.5475,5.551,5.6327,5.7167,5.7892,5.7961,5.8271,5.8978,5.9012,5.9012,5.9012,5.9047,5.9047,5.9047,5.9729,6.0375,6.0956,6.2192,6.2936,6.3157,6.3803,6.453,3.0123,3.1918,3.3897,3.737,3.9842,4.1719,4.294,4.4804,4.6259,4.6265,4.6986,4.7692,4.791,4.9276,5.0735,5.1794,5.1815,5.1755,5.1824,5.1971,5.2135,5.2258,5.2215,5.2492,5.3308,5.3312,5.3485,5.3946,5.398,5.398,5.398,5.398,5.398,5.398,5.398,5.398,5.398,5.3816,5.37,5.37,5.3551,5.3501,5.3501,5.3551,5.3568,5.3501,5.3551,5.3551,5.3501,5.3501,5.3501,5.3501,5.3501,5.3501,5.3501,5.3501,5.3501,5.3501,5.3501,5.3501,5.3501,5.3501,5.3501,5.3501,5.3501,5.3501,5.3501,5.3501,5.3501,5.3501,5.3501,5.3501,5.3501,5.3501,5.3501,5.3501,5.3501,5.3501,5.3501,5.3501,5.3501,5.3501,5.3501,5.3501,5.3501,5.3501,5.3517,5.3601,5.3684,5.4055,5.4545,5.5156,5.563,5.6416,5.7671,5.7842,5.8219,5.8961,5.9012,5.9012,5.9012,5.9012,5.9012,5.9012,5.9663,6.0097,6.0313,6.1178,6.184,6.2313,6.2129,6.264,2.8076,2.9633,3.1636,3.488,3.6661,3.8254,4.0713,4.2312,4.3458,4.417,4.5076,4.5873,4.6343,4.729,4.847,4.9801,4.9878,4.9958,5.0504,5.0737,5.0969,5.1287,5.1273,5.1532,5.2362,5.2588,5.2897,5.3391,5.368,5.3833,5.3833,5.3833,5.3833,5.3833,5.3833,5.3833,5.3833,5.3701,5.3634,5.3634,5.3551,5.3501,5.3501,5.3501,5.3501,5.3501,5.3501,5.3501,5.3501,5.3501,5.3501,5.3501,5.3501,5.3501,5.3501,5.3501,5.3501,5.3501,5.3501,5.3501,5.3501,5.3501,5.3501,5.3501,5.3501,5.3501,5.3501,5.3501,5.3501,5.3501,5.3501,5.3501,5.3501,5.3501,5.3501,5.3501,5.3501,5.3501,5.3501,5.3501,5.3501,5.3501,5.3501,5.3501,5.3501,5.3501,5.3501,5.3534,5.3634,5.3684,5.3937,5.4547,5.4798,5.5461,5.6729,5.7157,5.7671,5.8514,5.8789,5.8961,5.9012,5.9012,5.9012,5.9012,5.945,5.9663,5.9663,6.0494,6.1033,6.1243,6.1003,6.135,0.0,0.0,0.0,3.2449,3.3301,3.4605,3.9665,4.0207,4.0373,4.2816,4.3714,4.4387,4.5399,4.5618,4.6126,4.7551,4.7937,4.8269,4.8863,4.8951,4.9317,5.0201,5.0161,5.0418,5.1371,5.1924,5.2249,5.2266,5.2993,5.3433,5.3433,5.345,5.3484,5.3501,5.3501,5.3501,5.3501,5.3501,5.3501,5.3501,5.3501,5.3501,5.3501,5.3501,5.3501,5.3501,5.3501,5.3501,5.3501,5.3501,5.3501,5.3501,5.3501,5.3501,5.3501,5.3501,5.3501,5.3501,5.3501,5.3501,5.3501,5.3501,5.3501,5.3501,5.3501,5.3501,5.3501,5.3501,5.3501,5.3501,5.3501,5.3501,5.3501,5.3501,5.3501,5.3501,5.3501,5.3501,5.3501,5.3501,5.3501,5.3501,5.3501,5.3501,5.3501,5.3501,5.3501,5.3501,5.3501,5.3601,5.37,5.37,5.3882,5.4288,5.5022,5.5757,5.6594,5.7604,5.8324,5.8789,5.8944,5.8978,5.8995,5.9012,5.9012,5.9012,5.9012,6.0246,6.0555,6.0001,6.0615,6.0897,2.4862,0.0,0.0,0.0,0.0,0.0,3.581,3.6612,3.7601,4.0314,4.0984,4.1528,4.2973,4.369,4.4367,4.5348,4.6455,4.7217,4.7378,4.7868,4.8291,4.8572,4.9015,4.9625,5.0432,5.0623,5.093,5.1471,5.1725,5.186,5.186,5.235,5.2909,5.3484,5.3501,5.3501,5.3501,5.3501,5.3501,5.3501,5.3501,5.3501,5.3501,5.3501,5.3501,5.3501,5.3501,5.3501,5.3501,5.3501,5.3501,5.3501,5.3501,5.3501,5.3501,5.3501,5.3501,5.3501,5.3501,5.3501,5.3501,5.3501,5.3501,5.3501,5.3501,5.3501,5.3501,5.3501,5.3501,5.3501,5.3501,5.3501,5.3501,5.3501,5.3501,5.3501,5.3501,5.3501,5.3501,5.3501,5.3501,5.3501,5.3501,5.3501,5.3501,5.3501,5.3501,5.3501,5.3501,5.3534,5.3551,5.3551,5.3701,5.409,5.4889,5.5229,5.5773,5.6628,5.6969,5.7414,5.8015,5.8152,5.8461,5.8995,5.9012,5.9012,5.9012,5.9366,5.9679,6.0001,6.0615,6.0676,0.0,0.0,0.0,2.9249,0.0,0.0,3.4767,3.512,3.5711,3.8866,3.9767,4.0349,4.161,4.2439,4.32,4.3961,4.4823,4.5703,4.6667,4.7175,4.7445,4.7445,4.8105,4.8714,4.9137,4.9729,5.027,5.071,5.1048,5.1185,5.1185,5.1911,5.252,5.2993,5.3331,5.3501,5.3501,5.3501,5.3501,5.3501,5.3501,5.3501,5.3501,5.3501,5.3501,5.3501,5.3501,5.3501,5.3501,5.3501,5.3501,5.3501,5.3501,5.3501,5.3501,5.3501,5.3501,5.3501,5.3501,5.3501,5.3501,5.3501,5.3501,5.3501,5.3501,5.3501,5.3501,5.3501,5.3501,5.3501,5.3501,5.3501,5.3501,5.3501,5.3501,5.3501,5.3501,5.3501,5.3501,5.3501,5.3501,5.3501,5.3501,5.3501,5.3501,5.3501,5.3501,5.3501,5.3501,5.3501,5.3501,5.3501,5.3584,5.3821,5.4279,5.4669,5.5128,5.5689,5.6081,5.6576,5.7174,5.7602,5.791,5.8081,5.8392,5.8547,5.8547,5.8857,5.9199,5.9582,5.9934,5.9902,2.5854,2.6228,0.0,0.0,3.0298,0.0,3.4931,3.453,3.4195,3.7575,3.8748,3.9421,4.033,4.1158,4.19,4.2587,4.3006,4.4035,4.6244,4.6616,4.6667,4.6667,4.7344,4.78,4.78,4.9035,4.9847,4.9847,5.0541,5.0982,5.1082,5.1708,5.2131,5.23,5.2993,5.3416,5.3501,5.3501,5.3501,5.3501,5.3501,5.3501,5.3501,5.3501,5.3501,5.3518,5.3399,5.3433,5.3501,5.3382,5.3433,5.3501,5.3501,5.3501,5.3501,5.3501,5.3501,5.3501,5.3501,5.3501,5.3501,5.3501,5.3501,5.3501,5.3501,5.3501,5.3501,5.3501,5.3501,5.3501,5.3501,5.3501,5.3501,5.3501,5.3501,5.3501,5.3501,5.3501,5.3501,5.3501,5.3501,5.3501,5.3501,5.3501,5.3501,5.3501,5.3501,5.3501,5.3501,5.3501,5.3501,5.3501,5.3501,5.3501,5.3501,5.4093,5.4533,5.472,5.5349,5.5928,5.6351,5.7054,5.7241,5.6805,5.7443,5.7823,5.7909,5.865,5.9012,5.9012,5.9012,5.9012,2.736,2.8329,2.9445,2.921,0.0,0.0,3.1613,3.1263,3.1483,3.3369,3.3445,3.3786,3.5698,3.7068,3.7939,3.8122,4.0519,4.2972,4.4773,4.5534,4.5923,4.5923,4.6566,4.7005,4.7005,4.7817,4.8342,4.8342,4.9018,4.9695,5.027,5.0439,5.1065,5.2266,5.2452,5.2858,5.3501,5.3501,5.3501,5.3501,5.3501,5.3501,5.3501,5.3501,5.3501,5.3467,5.2834,5.2903,5.3433,5.2799,5.292,5.3501,5.3501,5.3501,5.3501,5.3501,5.3501,5.3501,5.3501,5.3501,5.3501,5.3501,5.3501,5.3501,5.3501,5.3501,5.3501,5.3501,5.3501,5.3501,5.3501,5.3501,5.3501,5.3501,5.3501,5.3501,5.3501,5.3501,5.3501,5.3501,5.3501,5.3501,5.3501,5.3501,5.3501,5.3501,5.3501,5.3501,5.3501,5.3501,5.3501,5.3501,5.3501,5.3501,5.3501,5.3636,5.3721,5.3788,5.4024,5.4515,5.5345,5.5684,5.6142,5.6788,5.6943,5.7305,5.7909,5.865,5.9012,5.9012,5.9012,5.9012,2.8636,2.9173,3.0038,3.036,0.0,0.0,0.0,3.1427,3.1436,3.3179,3.3047,3.3049,3.4487,3.5338,3.5938,3.6335,3.8755,4.0777,4.1243,4.3546,4.5145,4.5145,4.5805,4.6244,4.6244,4.6921,4.7361,4.7361,4.8037,4.8612,4.8984,4.9695,5.0422,5.1183,5.1572,5.2131,5.2892,5.2909,5.3112,5.3501,5.3501,5.3501,5.3501,5.3093,5.2903,5.2868,5.204,5.2148,5.2868,5.2466,5.2764,5.3501,5.3501,5.3501,5.3501,5.3501,5.3501,5.3501,5.3501,5.3501,5.3501,5.3501,5.3501,5.3501,5.3501,5.3501,5.3501,5.3501,5.3501,5.3501,5.3501,5.3501,5.3501,5.3501,5.3501,5.3501,5.3501,5.3501,5.3501,5.3501,5.3501,5.3501,5.3501,5.3501,5.3501,5.3501,5.3501,5.3501,5.3501,5.3501,5.3501,5.3501,5.3501,5.3501,5.3501,5.3501,5.3501,5.3501,5.3551,5.382,5.4378,5.4936,5.5561,5.6202,5.6202,5.6391,5.6771,5.7909,5.865,5.9012,5.9012,5.9012,0.0,0.0,0.0,0.0,0.0,3.1562,0.0,0.0,0.0,3.3345,3.3245,3.3107,3.3768,3.3916,3.4181,3.4929,3.6843,3.8025,3.7455,4.0814,4.339,4.3496,4.4429,4.5037,4.5058,4.5597,4.6195,4.6769,4.6954,4.7295,4.7872,4.9035,4.9796,5.0084,5.0676,5.1352,5.208,5.2097,5.2486,5.3281,5.3129,5.3129,5.3246,5.2449,5.2076,5.204,5.1236,5.1422,5.2272,5.2112,5.252,5.328,5.3433,5.3501,5.3501,5.3501,5.3501,5.3501,5.3501,5.3501,5.3501,5.3501,5.3501,5.3501,5.3501,5.3501,5.3501,5.3501,5.3501,5.3501,5.3501,5.3501,5.3501,5.3501,5.3501,5.3501,5.3501,5.3501,5.3501,5.3501,5.3501,5.3501,5.3501,5.3501,5.3501,5.3501,5.3501,5.3501,5.3501,5.3501,5.3501,5.3501,5.3501,5.3501,5.3501,5.3501,5.3501,5.3501,5.3501,5.3551,5.37,5.4478,5.5066,5.5344,5.5376,5.5477,5.5615,5.6857,5.7926,5.8806,5.8944,5.9012,0.0,0.0,0.0,0.0,3.3153,0.0,0.0,0.0,3.1262,3.035,0.0,3.0241,3.086,0.0,0.0,3.1881,3.374,3.5133,3.5172,3.7233,3.8971,3.9573,4.1427,4.2694,4.2676,4.2808,4.3981,4.6604,4.5072,4.5133,4.774,4.8041,4.8748,5.005,5.0168,5.0574,5.1336,5.1303,5.1708,5.2435,5.1695,5.175,5.2414,5.1606,5.122,5.1182,5.04,5.0897,5.2236,5.1533,5.1716,5.2501,5.3212,5.3501,5.3501,5.3501,5.3501,5.3501,5.3501,5.3501,5.3501,5.3501,5.3501,5.3501,5.3501,5.3501,5.3501,5.3501,5.3501,5.3501,5.3501,5.3501,5.3501,5.3501,5.3501,5.3501,5.3501,5.3501,5.3501,5.3501,5.3501,5.3501,5.3501,5.3501,5.3501,5.3501,5.3501,5.3501,5.3501,5.3501,5.3501,5.3501,5.3501,5.3501,5.3501,5.3501,5.3501,5.3501,5.3501,5.3551,5.37,5.4081,5.4327,5.436,5.4537,5.496,5.5615,5.5788,5.6615,5.8047,5.8702,5.9012,0.0,0.0,0.0,0.0,0.0,0.0,3.1767,0.0,3.1234,0.0,0.0,0.0,0.0,0.0,0.0,0.0,3.2376,3.3216,3.2405,3.4526,3.6704,3.8261,3.9254,4.0138,4.0998,4.112,4.1954,4.3912,4.3265,4.3466,4.5143,4.6844,4.7928,4.8232,4.9017,4.9813,5.0557,5.0557,5.0889,5.1613,5.1236,5.1281,5.157,5.0783,5.04,5.0361,4.951,4.9829,5.0859,5.0554,5.1161,5.2272,5.2183,5.2397,5.2868,5.3314,5.3501,5.3501,5.3501,5.3501,5.3501,5.3501,5.3501,5.3501,5.3501,5.3501,5.3501,5.3501,5.3501,5.3501,5.3501,5.3501,5.3501,5.3501,5.3501,5.3501,5.3501,5.3501,5.3501,5.3501,5.3501,5.3501,5.3501,5.3501,5.3501,5.3501,5.3501,5.3501,5.3501,5.3501,5.3501,5.3501,5.3501,5.3501,5.3501,5.3501,5.3501,5.3501,5.3501,5.3551,5.37,5.3849,5.3996,5.4207,5.4271,5.4522,5.4977,5.5408,5.5943,5.6598,5.7805,5.8599,3.3539,0.0,0.0,0.0,0.0,0.0,0.0,0.0,0.0,0.0,0.0,0.0,0.0,0.0,0.0,0.0,0.0,3.1686,3.0651,3.2288,3.4257,3.602,3.6905,3.7894,3.9177,3.8951,3.9506,4.1387,4.1007,4.1442,4.3164,4.5499,4.671,4.6518,4.7762,4.8733,4.9493,4.951,4.9824,5.05,5.0292,5.021,5.0172,4.9362,4.9001,4.8961,4.8537,4.8802,4.9623,4.9829,5.0608,5.1623,5.122,5.1311,5.1786,5.2782,5.3314,5.3501,5.3501,5.3365,5.3161,5.3161,5.3161,5.3212,5.3433,5.3501,5.3501,5.3501,5.3501,5.3501,5.3501,5.3501,5.3501,5.3501,5.3501,5.3501,5.3501,5.3501,5.3501,5.3501,5.3501,5.3501,5.3501,5.3501,5.3501,5.3501,5.3501,5.3501,5.3501,5.3501,5.3501,5.3501,5.3501,5.3501,5.3501,5.3501,5.3501,5.3501,5.3501,5.3551,5.3634,5.3684,5.3799,5.4078,5.411,5.4207,5.4353,5.495,5.5329,5.557,5.6962,5.7892,0.0,0.0,0.0,3.3059,0.0,0.0,0.0,0.0,3.1809,0.0,0.0,0.0,0.0,0.0,0.0,0.0,0.0,0.0,0.0,0.0,0.0,0.0,0.0,3.6169,3.6933,3.577,3.6388,3.9818,3.8088,3.8718,4.2867,4.3986,4.4833,4.5511,4.6423,4.7221,4.7951,4.7951,4.8332,4.9061,4.8295,4.7907,4.7874,4.7052,4.6705,4.6735,4.7342,4.8071,4.8911,4.9623,4.9908,5.0065,5.0805,5.0615,5.0182,5.1733,5.2834,5.3501,5.3501,5.2972,5.2343,5.2343,5.2343,5.2485,5.328,5.3501,5.3501,5.3501,5.3501,5.3501,5.3501,5.3501,5.3501,5.3501,5.3501,5.3501,5.3501,5.3501,5.3501,5.3501,5.3501,5.3501,5.3501,5.3501,5.3501,5.3501,5.3501,5.3501,5.3501,5.3501,5.3501,5.3501,5.3501,5.3501,5.3501,5.3501,5.3501,5.3501,5.3501,5.3501,5.3501,5.3634,5.3717,5.3717,5.3915,5.4013,5.4013,5.416,5.4668,5.5424,5.6412,5.6857,0.0,0.0,3.4345,3.373,0.0,0.0,0.0,0.0,0.0,0.0,0.0,0.0,0.0,0.0,0.0,0.0,0.0,0.0,0.0,0.0,0.0,0.0,0.0,3.3845,3.4089,3.4088,3.4923,3.692,3.6751,3.762,4.0056,4.2222,4.3617,4.4085,4.5303,4.6343,4.7137,4.7187,4.7255,4.7473,4.7185,4.7066,4.699,4.6731,4.6603,4.6603,4.6834,4.7086,4.7394,4.8078,4.8701,4.9189,4.9386,4.9971,5.0805,5.1878,5.2449,5.2729,5.2729,5.2537,5.2307,5.2307,5.2642,5.3127,5.3433,5.3501,5.3501,5.3501,5.3501,5.3501,5.3501,5.3501,5.3501,5.3501,5.3501,5.3501,5.3501,5.3501,5.3501,5.3501,5.3501,5.3501,5.3501,5.3501,5.3501,5.3501,5.3501,5.3501,5.3501,5.3501,5.3501,5.3501,5.3501,5.3501,5.3501,5.3501,5.3501,5.3501,5.3501,5.3501,5.3501,5.3551,5.3601,5.37,5.3783,5.3882,5.398,5.4045,5.4247,5.4602,5.4826,5.5627,3.4655,3.4481,0.0,3.3911,3.3346,0.0,3.1853,0.0,0.0,0.0,0.0,0.0,0.0,0.0,0.0,0.0,0.0,0.0,0.0,2.8623,0.0,0.0,0.0,0.0,0.0,3.2369,3.3234,3.5046,3.5336,3.6353,3.85,4.0596,4.1983,4.243,4.3851,4.5005,4.5818,4.616,4.6263,4.625,4.6324,4.6166,4.588,4.588,4.588,4.5895,4.6126,4.6234,4.6311,4.7234,4.7896,4.8404,4.8532,4.9269,5.0306,5.1161,5.1623,5.1842,5.1549,5.1438,5.1512,5.1769,5.2219,5.2747,5.3314,5.3501,5.3501,5.3501,5.3501,5.3501,5.3501,5.3501,5.3501,5.3501,5.3501,5.3501,5.3501,5.3501,5.3501,5.3501,5.3501,5.3501,5.3501,5.3501,5.3501,5.3501,5.3501,5.3501,5.3501,5.3501,5.3501,5.3501,5.3501,5.3501,5.3501,5.3501,5.3501,5.3501,5.3501,5.3501,5.3501,5.3501,5.3517,5.3634,5.3634,5.3701,5.38,5.3849,5.3948,5.4028,5.4013,5.4641]}]]